[[{"header":{"parameterUnit":"m.s-1","parameterCategory":1,"la1":30.6,"la2":29.2853,"lo1":-89.7004,"lo2":-87.6739,"dy":0.0162,"dx":0.0183,"nx":112,"ny":82,"refTime":"2026-05-18T12:00:00:Z","depth":0,"parameterNumber":2,"parameterNumberName":"U-component_of_WINDS"},"data":[0.0,0.0,0.0,0.0,0.0,0.0,0.0,0.0,0.0,0.0,0.0,0.0,0.0,0.0,0.0,0.0,0.0,0.0,0.0,0.0,0.0,0.0,0.0,0.0,0.0,0.0,0.0,0.0,0.0,0.0,0.0,0.0,0.0,0.0,0.0,0.0,0.0,0.0,0.0,0.0,0.0,0.0,0.0,0.0,0.0,0.0,0.0,0.0,0.0,0.0,0.0,0.0,0.0,0.0,0.0,0.0,0.0,0.0,0.0,0.0,0.0,0.0,0.0,0.0,0.0,0.0,0.0,0.0,0.0,0.0,0.0,0.0,0.0,0.0,0.0,0.0,0.0,0.0,0.0,0.0,0.0,0.0,0.0,0.0,0.0,0.0,0.0,0.0,0.0,0.0,-4.2335,-4.3269,-4.4801,-4.5557,-4.5076,-4.4171,-4.38,-4.4137,0.0,0.0,0.0,0.0,0.0,0.0,0.0,0.0,0.0,0.0,0.0,0.0,0.0,0.0,0.0,0.0,0.0,0.0,0.0,0.0,0.0,0.0,0.0,0.0,0.0,0.0,0.0,0.0,0.0,0.0,0.0,0.0,0.0,0.0,0.0,0.0,0.0,0.0,0.0,0.0,0.0,0.0,0.0,0.0,0.0,0.0,0.0,0.0,0.0,0.0,0.0,0.0,0.0,0.0,0.0,0.0,0.0,0.0,0.0,0.0,0.0,0.0,0.0,0.0,0.0,0.0,0.0,0.0,0.0,0.0,0.0,0.0,0.0,0.0,0.0,0.0,0.0,0.0,0.0,0.0,0.0,0.0,0.0,0.0,0.0,0.0,0.0,0.0,0.0,0.0,0.0,0.0,0.0,0.0,0.0,0.0,0.0,0.0,0.0,0.0,0.0,0.0,0.0,0.0,-4.399,-4.4939,-4.5339,-4.5797,-4.6436,-4.5162,-4.5013,-4.6552,0.0,0.0,0.0,0.0,0.0,0.0,0.0,0.0,0.0,0.0,0.0,0.0,0.0,0.0,0.0,0.0,0.0,0.0,0.0,0.0,0.0,0.0,0.0,0.0,0.0,0.0,0.0,0.0,0.0,0.0,0.0,0.0,0.0,0.0,0.0,0.0,0.0,0.0,0.0,0.0,0.0,0.0,0.0,0.0,0.0,0.0,0.0,0.0,0.0,0.0,0.0,0.0,0.0,0.0,0.0,0.0,0.0,0.0,0.0,0.0,0.0,0.0,0.0,0.0,0.0,0.0,0.0,0.0,0.0,0.0,0.0,0.0,0.0,0.0,0.0,0.0,0.0,0.0,0.0,0.0,0.0,0.0,0.0,0.0,0.0,0.0,0.0,0.0,0.0,0.0,0.0,0.0,0.0,0.0,0.0,0.0,0.0,0.0,0.0,0.0,0.0,0.0,0.0,-4.4475,-4.505,-4.5953,-4.5678,-4.582,-4.6722,-4.5321,-4.4957,-4.6292,-4.3408,0.0,0.0,0.0,0.0,0.0,0.0,0.0,0.0,0.0,0.0,0.0,0.0,0.0,0.0,0.0,0.0,0.0,0.0,0.0,0.0,0.0,0.0,0.0,0.0,0.0,0.0,0.0,0.0,0.0,0.0,0.0,0.0,0.0,0.0,0.0,0.0,0.0,0.0,0.0,0.0,0.0,0.0,0.0,0.0,0.0,0.0,0.0,0.0,0.0,0.0,0.0,0.0,0.0,0.0,0.0,0.0,0.0,0.0,0.0,0.0,0.0,0.0,0.0,0.0,0.0,0.0,0.0,0.0,0.0,0.0,0.0,0.0,0.0,0.0,0.0,0.0,0.0,0.0,0.0,0.0,0.0,0.0,0.0,0.0,0.0,0.0,0.0,0.0,0.0,0.0,0.0,0.0,0.0,0.0,0.0,0.0,0.0,0.0,0.0,0.0,0.0,0.0,-4.5889,-4.6139,-4.6802,-4.5973,-4.5668,-4.6397,-4.5081,-4.4545,-4.531,-4.324,0.0,0.0,0.0,0.0,0.0,0.0,0.0,0.0,0.0,0.0,0.0,0.0,0.0,0.0,0.0,0.0,0.0,0.0,0.0,0.0,0.0,0.0,0.0,0.0,0.0,0.0,0.0,0.0,0.0,0.0,0.0,0.0,0.0,0.0,0.0,0.0,0.0,0.0,0.0,0.0,0.0,0.0,0.0,0.0,0.0,0.0,0.0,0.0,0.0,0.0,0.0,0.0,0.0,0.0,0.0,0.0,0.0,0.0,0.0,0.0,0.0,0.0,0.0,0.0,0.0,0.0,0.0,0.0,0.0,0.0,0.0,0.0,0.0,0.0,0.0,0.0,0.0,0.0,0.0,0.0,0.0,0.0,0.0,0.0,0.0,0.0,0.0,0.0,0.0,0.0,0.0,0.0,0.0,0.0,0.0,0.0,0.0,0.0,0.0,0.0,0.0,0.0,-4.7616,-4.7654,-4.7704,-4.6262,-4.5337,-4.5394,-4.4553,-4.4106,-4.4288,-4.267,0.0,0.0,0.0,0.0,0.0,0.0,0.0,0.0,0.0,0.0,0.0,0.0,0.0,0.0,0.0,0.0,0.0,0.0,0.0,0.0,0.0,0.0,0.0,0.0,0.0,0.0,0.0,0.0,0.0,0.0,0.0,0.0,0.0,0.0,0.0,0.0,0.0,0.0,0.0,0.0,0.0,0.0,0.0,0.0,0.0,0.0,0.0,0.0,0.0,0.0,0.0,0.0,0.0,0.0,0.0,0.0,0.0,0.0,0.0,0.0,0.0,0.0,0.0,0.0,0.0,0.0,0.0,0.0,0.0,0.0,0.0,0.0,0.0,0.0,0.0,0.0,0.0,0.0,0.0,0.0,0.0,0.0,0.0,0.0,0.0,0.0,0.0,0.0,0.0,0.0,0.0,0.0,0.0,0.0,0.0,0.0,0.0,0.0,0.0,0.0,0.0,0.0,-4.7338,-4.7507,-4.7037,-4.5982,-4.5307,-4.5307,-4.4991,-4.4391,-4.3398,0.0,0.0,0.0,0.0,0.0,0.0,0.0,0.0,0.0,0.0,0.0,0.0,0.0,0.0,0.0,0.0,0.0,0.0,0.0,0.0,0.0,0.0,0.0,0.0,0.0,0.0,0.0,0.0,0.0,0.0,0.0,0.0,0.0,0.0,0.0,0.0,0.0,0.0,0.0,0.0,0.0,0.0,0.0,0.0,0.0,0.0,0.0,0.0,0.0,0.0,0.0,0.0,0.0,0.0,0.0,0.0,0.0,0.0,0.0,0.0,0.0,0.0,0.0,0.0,0.0,0.0,0.0,0.0,0.0,0.0,0.0,0.0,0.0,0.0,0.0,0.0,0.0,0.0,0.0,0.0,0.0,0.0,0.0,0.0,0.0,0.0,0.0,0.0,0.0,0.0,0.0,0.0,0.0,0.0,0.0,0.0,0.0,0.0,0.0,0.0,0.0,0.0,-4.6013,-4.6954,-4.7236,-4.655,-4.5769,-4.5182,-4.4914,-4.4647,-4.3903,-4.2489,0.0,0.0,0.0,0.0,0.0,0.0,0.0,0.0,0.0,0.0,0.0,0.0,0.0,0.0,0.0,0.0,0.0,0.0,0.0,0.0,0.0,0.0,0.0,0.0,0.0,0.0,0.0,0.0,0.0,0.0,0.0,0.0,0.0,0.0,0.0,0.0,0.0,0.0,0.0,0.0,0.0,0.0,0.0,0.0,0.0,0.0,0.0,0.0,0.0,0.0,0.0,0.0,0.0,0.0,0.0,0.0,0.0,0.0,0.0,0.0,0.0,0.0,0.0,0.0,0.0,0.0,0.0,0.0,0.0,0.0,0.0,0.0,0.0,0.0,0.0,0.0,0.0,0.0,0.0,0.0,0.0,0.0,0.0,0.0,0.0,0.0,0.0,0.0,0.0,0.0,0.0,0.0,0.0,0.0,0.0,0.0,0.0,0.0,0.0,0.0,0.0,0.0,-4.5655,-4.67,-4.7043,-4.6461,-4.5718,-4.4934,-4.4064,-4.3261,-4.2431,0.0,0.0,0.0,0.0,0.0,0.0,0.0,0.0,0.0,0.0,0.0,0.0,0.0,0.0,0.0,0.0,0.0,0.0,0.0,0.0,0.0,0.0,0.0,0.0,0.0,0.0,0.0,0.0,0.0,0.0,0.0,0.0,0.0,0.0,0.0,0.0,0.0,0.0,0.0,0.0,0.0,0.0,0.0,0.0,0.0,0.0,0.0,0.0,0.0,0.0,0.0,0.0,0.0,0.0,0.0,0.0,0.0,0.0,0.0,0.0,0.0,0.0,0.0,0.0,0.0,0.0,0.0,0.0,0.0,0.0,0.0,0.0,0.0,0.0,0.0,0.0,0.0,0.0,0.0,0.0,0.0,0.0,0.0,0.0,0.0,0.0,0.0,0.0,0.0,0.0,0.0,0.0,0.0,0.0,0.0,0.0,0.0,0.0,0.0,0.0,0.0,0.0,0.0,-4.4472,-4.5552,-4.5916,-4.5268,-4.5083,-4.4661,-4.3787,-4.3532,-4.2821,-4.1379,0.0,0.0,0.0,0.0,0.0,0.0,0.0,0.0,0.0,0.0,0.0,0.0,0.0,0.0,0.0,0.0,0.0,0.0,0.0,0.0,0.0,0.0,0.0,0.0,0.0,0.0,0.0,0.0,0.0,0.0,0.0,0.0,0.0,0.0,0.0,0.0,0.0,0.0,0.0,0.0,0.0,0.0,0.0,0.0,0.0,0.0,0.0,0.0,0.0,0.0,0.0,0.0,0.0,0.0,0.0,0.0,0.0,0.0,0.0,0.0,0.0,0.0,0.0,0.0,0.0,0.0,0.0,0.0,0.0,0.0,0.0,0.0,0.0,0.0,0.0,0.0,0.0,0.0,0.0,0.0,0.0,0.0,0.0,0.0,0.0,0.0,0.0,0.0,0.0,0.0,0.0,0.0,0.0,0.0,0.0,0.0,0.0,0.0,0.0,0.0,0.0,0.0,-4.3776,-4.4912,-4.523,-4.458,-4.4616,-4.4486,-4.3958,-4.3347,-4.2439,-4.1154,0.0,0.0,0.0,0.0,0.0,0.0,0.0,0.0,0.0,0.0,0.0,0.0,0.0,0.0,0.0,0.0,0.0,0.0,0.0,0.0,0.0,0.0,0.0,0.0,0.0,0.0,0.0,0.0,0.0,0.0,0.0,0.0,0.0,0.0,0.0,0.0,0.0,0.0,0.0,0.0,0.0,0.0,0.0,0.0,0.0,0.0,0.0,0.0,0.0,0.0,0.0,0.0,0.0,0.0,0.0,0.0,0.0,0.0,0.0,0.0,0.0,0.0,0.0,0.0,0.0,0.0,0.0,0.0,0.0,0.0,0.0,0.0,0.0,0.0,0.0,0.0,0.0,0.0,0.0,0.0,0.0,0.0,0.0,0.0,0.0,0.0,0.0,0.0,0.0,0.0,0.0,0.0,0.0,0.0,0.0,0.0,0.0,0.0,0.0,0.0,0.0,0.0,-4.3457,-4.4545,-4.4835,-4.424,-4.4275,-4.4374,-4.4374,-4.2822,-4.158,-4.0909,0.0,0.0,0.0,0.0,0.0,0.0,0.0,0.0,0.0,0.0,0.0,0.0,0.0,0.0,0.0,0.0,0.0,0.0,0.0,0.0,0.0,0.0,0.0,0.0,0.0,0.0,0.0,0.0,0.0,0.0,0.0,0.0,0.0,0.0,0.0,0.0,0.0,0.0,0.0,0.0,0.0,0.0,0.0,0.0,0.0,0.0,0.0,0.0,0.0,0.0,0.0,0.0,0.0,0.0,0.0,0.0,0.0,0.0,0.0,0.0,-4.2728,-4.3023,0.0,0.0,0.0,0.0,0.0,0.0,0.0,0.0,0.0,0.0,0.0,0.0,0.0,0.0,0.0,0.0,0.0,0.0,0.0,0.0,0.0,0.0,0.0,0.0,0.0,0.0,0.0,0.0,0.0,0.0,0.0,0.0,0.0,0.0,0.0,0.0,0.0,0.0,0.0,0.0,-4.3321,-4.3917,-4.4068,-4.3961,-4.4033,-4.4094,-4.4094,-4.2604,-4.1358,-4.063,-3.902,0.0,0.0,0.0,0.0,0.0,0.0,0.0,0.0,0.0,0.0,0.0,0.0,0.0,0.0,0.0,0.0,0.0,0.0,0.0,0.0,0.0,0.0,0.0,0.0,0.0,0.0,0.0,0.0,0.0,0.0,0.0,0.0,0.0,0.0,0.0,0.0,0.0,0.0,0.0,0.0,0.0,0.0,0.0,0.0,0.0,0.0,0.0,0.0,0.0,0.0,0.0,0.0,0.0,0.0,0.0,0.0,0.0,0.0,0.0,-4.403,-4.3608,0.0,0.0,0.0,0.0,0.0,0.0,0.0,0.0,0.0,0.0,0.0,0.0,0.0,0.0,0.0,0.0,0.0,0.0,0.0,0.0,0.0,0.0,0.0,0.0,0.0,0.0,0.0,0.0,0.0,0.0,0.0,0.0,0.0,0.0,0.0,0.0,0.0,0.0,0.0,0.0,-4.3149,-4.3516,-4.3515,-4.3548,-4.3599,-4.3632,-4.3632,-4.2173,-4.0957,-4.0259,-3.8077,0.0,0.0,0.0,0.0,0.0,0.0,0.0,0.0,0.0,0.0,0.0,0.0,0.0,0.0,0.0,0.0,0.0,0.0,0.0,0.0,0.0,0.0,0.0,0.0,0.0,0.0,0.0,0.0,0.0,0.0,0.0,0.0,0.0,0.0,0.0,0.0,0.0,0.0,0.0,0.0,0.0,0.0,0.0,0.0,0.0,0.0,0.0,0.0,0.0,0.0,0.0,0.0,0.0,-4.3716,-4.4369,-4.4743,-4.4949,-4.559,-4.647,-4.6323,-4.5003,-4.3057,-4.4782,0.0,0.0,0.0,0.0,0.0,0.0,0.0,0.0,0.0,0.0,0.0,0.0,0.0,0.0,0.0,0.0,0.0,0.0,0.0,0.0,0.0,0.0,-4.3124,-4.2177,-4.154,-4.0738,-3.9099,0.0,0.0,0.0,0.0,0.0,0.0,0.0,0.0,0.0,0.0,0.0,-4.2974,-4.3269,-4.3214,-4.3214,-4.3214,-4.3214,-4.3214,-4.1934,-4.0773,-3.9932,-3.7454,-3.5507,0.0,0.0,0.0,0.0,0.0,0.0,0.0,0.0,0.0,0.0,0.0,0.0,0.0,0.0,0.0,0.0,0.0,0.0,0.0,0.0,0.0,0.0,0.0,0.0,0.0,0.0,0.0,0.0,0.0,0.0,0.0,0.0,-4.0217,-3.9613,0.0,0.0,0.0,0.0,0.0,0.0,0.0,0.0,0.0,0.0,0.0,0.0,0.0,-4.3348,-4.3124,-4.354,-4.3877,-4.4134,-4.4584,-4.5245,-4.6057,-4.6379,-4.7337,-4.8721,-4.803,0.0,-4.5333,-4.425,0.0,0.0,0.0,0.0,0.0,0.0,0.0,0.0,0.0,0.0,0.0,0.0,0.0,0.0,0.0,0.0,0.0,0.0,0.0,0.0,0.0,0.0,-4.359,-4.2086,-4.2195,-4.2177,-4.0582,-4.0905,-4.1318,-4.0608,-4.0389,-4.0098,0.0,0.0,0.0,0.0,0.0,0.0,-4.2995,-4.3214,-4.3214,-4.3214,-4.3214,-4.3214,-4.3214,-4.2465,-4.1363,-3.9825,-3.9506,-3.8022,-3.5009,-3.4618,0.0,0.0,0.0,0.0,0.0,0.0,0.0,0.0,0.0,0.0,0.0,0.0,0.0,0.0,0.0,0.0,0.0,0.0,0.0,0.0,0.0,0.0,0.0,0.0,0.0,0.0,0.0,0.0,0.0,-3.9608,-4.069,-4.0319,-4.0603,-4.0582,0.0,0.0,0.0,0.0,0.0,0.0,0.0,0.0,0.0,-4.254,-4.2894,-4.362,-4.4712,-4.4817,-4.5404,-4.6477,-4.6318,-4.6754,-4.7711,-4.7541,-4.8123,-4.9145,-4.8357,-4.7645,-4.6979,-4.582,-4.5497,-4.5625,0.0,0.0,0.0,0.0,-4.5424,-4.568,-4.5333,-4.5168,-4.5038,-4.4674,0.0,0.0,0.0,0.0,0.0,0.0,0.0,-4.2077,-4.1569,-4.2591,-4.347,-4.2359,-4.2418,-4.2548,-4.1825,-4.2027,-4.2121,-4.1433,-4.1306,-4.1197,-4.0834,-3.9813,0.0,0.0,0.0,-4.1357,-4.2941,-4.3087,-4.3031,-4.3031,-4.3031,-4.3031,-4.3031,-4.2414,-4.172,-4.0974,-3.9745,-3.8389,-3.6921,-3.5155,-3.4428,0.0,0.0,0.0,0.0,0.0,0.0,0.0,0.0,0.0,0.0,0.0,0.0,0.0,0.0,0.0,0.0,0.0,0.0,0.0,0.0,0.0,0.0,0.0,0.0,0.0,0.0,0.0,0.0,-4.0175,-4.114,-4.1188,-4.1188,-4.1052,0.0,0.0,0.0,0.0,0.0,0.0,-4.1231,-4.1205,-4.173,-4.2933,-4.3285,-4.4216,-4.5811,-4.5935,-4.6686,-4.8037,-4.7718,-4.8063,-4.9031,-4.8677,-4.8959,-4.967,-4.8656,-4.8229,-4.8135,-4.6985,-4.6293,-4.5892,-4.5475,-4.5566,-4.591,-4.5693,-4.5765,-4.5929,-4.5929,-4.5868,-4.5789,-4.573,-4.4798,-4.3614,-4.3153,0.0,0.0,0.0,0.0,-4.2041,-4.1606,-4.2228,-4.2857,-4.2394,-4.2394,-4.2512,-4.253,-4.2512,-4.2372,-4.1971,-4.1881,-4.179,-4.1574,-4.0655,0.0,-4.1523,-4.1198,-4.1324,-4.2736,-4.2823,-4.2767,-4.2767,-4.2767,-4.2767,-4.2767,-4.2301,-4.1922,-4.1704,-4.0022,-3.8755,-3.8123,-3.5842,-3.4847,-3.541,0.0,0.0,0.0,0.0,0.0,0.0,0.0,0.0,0.0,0.0,0.0,0.0,0.0,0.0,0.0,0.0,0.0,0.0,0.0,0.0,0.0,0.0,0.0,0.0,0.0,0.0,0.0,0.0,0.0,-4.194,-4.1947,0.0,0.0,0.0,0.0,-4.2137,-4.2283,-4.2638,-4.3321,-4.3452,-4.3511,-4.3478,-4.4938,-4.5707,-4.5632,-4.6909,-4.7686,-4.7919,-4.8145,-4.8724,-4.9679,-4.9825,-5.0342,-5.1015,-4.9518,-4.8863,-4.8686,-4.6626,-4.6186,-4.6686,-4.5142,-4.5481,-4.6739,-4.5989,-4.6186,-4.6829,-4.6829,-4.6829,-4.6806,-4.6692,-4.4923,-4.2983,-4.3643,-4.214,0.0,0.0,-4.253,-4.1635,-4.2337,-4.2065,-4.1661,-4.186,-4.2071,-4.2236,-4.229,-4.2272,-4.2257,-4.234,-4.2318,-4.2024,-4.1274,0.0,-4.1123,-4.1151,-4.1155,-4.1463,-4.2241,-4.2328,-4.2328,-4.2328,-4.2328,-4.2328,-4.2328,-4.2358,-4.202,-4.1185,-4.1103,-4.0012,-3.763,-3.7506,-3.6415,-3.415,-3.4735,0.0,0.0,0.0,0.0,0.0,0.0,0.0,0.0,0.0,0.0,0.0,0.0,0.0,0.0,0.0,0.0,0.0,0.0,0.0,0.0,0.0,0.0,0.0,0.0,0.0,0.0,0.0,0.0,-4.178,-4.2779,0.0,-4.2876,-4.2438,-4.2382,-4.2888,-4.2947,-4.3259,-4.3971,-4.4073,-4.4524,-4.5468,-4.6048,-4.6765,-4.7651,-4.8165,-4.8683,-4.924,-4.8816,-4.9073,-4.984,-4.8943,-4.8945,-4.9572,-4.8075,-4.7413,-4.7309,-4.5933,-4.5905,-4.666,-4.6086,-4.6193,-4.6678,-4.6394,-4.6465,-4.6713,-4.6713,-4.6578,-4.6411,-4.6175,-4.5086,-4.3861,-4.414,-4.3207,-4.2133,-4.2486,-4.2191,-4.1723,-4.1545,-4.1308,-4.1169,-4.1396,-4.1657,-4.1809,-4.1827,-4.1827,-4.1788,-4.1661,-4.1709,-4.169,-4.1407,-4.1375,-4.1375,-4.1354,-4.1375,-4.1503,-4.1743,-4.1778,-4.1778,-4.1778,-4.1778,-4.1778,-4.1778,-4.1361,-4.1188,-4.1354,-4.0439,-3.9732,-3.9312,-3.7905,-3.6953,-3.6581,-3.4411,-3.3141,0.0,0.0,0.0,0.0,0.0,0.0,0.0,0.0,0.0,0.0,0.0,0.0,0.0,0.0,0.0,0.0,0.0,0.0,0.0,0.0,0.0,0.0,0.0,0.0,0.0,-4.1222,-4.2343,-4.221,-4.3366,-4.3967,-4.3468,-4.3176,-4.3142,-4.3425,-4.3459,-4.3769,-4.4561,-4.4837,-4.5483,-4.6579,-4.7096,-4.7793,-4.8775,-4.9051,-4.9465,-4.9993,-4.9476,-4.9327,-4.9579,-4.8534,-4.8189,-4.8344,-4.7148,-4.6569,-4.6429,-4.5557,-4.5529,-4.6062,-4.6062,-4.6062,-4.6062,-4.6062,-4.6062,-4.6062,-4.6062,-4.5912,-4.5709,-4.5503,-4.4828,-4.4104,-4.4405,-4.3692,-4.2775,-4.2535,-4.2107,-4.1635,-4.1121,-4.082,-4.0704,-4.0907,-4.114,-4.134,-4.1358,-4.134,-4.1255,-4.1001,-4.1128,-4.1311,-4.1311,-4.1311,-4.1311,-4.1311,-4.1311,-4.1311,-4.1311,-4.1311,-4.1311,-4.1311,-4.1311,-4.1188,-4.0926,-4.0438,-4.0285,-4.0512,-3.9547,-3.9128,-3.9347,-3.7861,-3.7042,-3.7065,-3.399,-3.2944,-3.3991,0.0,0.0,0.0,0.0,0.0,0.0,0.0,0.0,0.0,0.0,0.0,0.0,0.0,0.0,0.0,0.0,0.0,0.0,0.0,0.0,0.0,0.0,0.0,-4.0508,-4.1493,-4.2412,-4.328,-4.3671,-4.3892,-4.3892,-4.3209,-4.3073,-4.3824,-4.3892,-4.428,-4.515,-4.5897,-4.6399,-4.6655,-4.8051,-4.881,-4.8827,-4.9631,-5.0011,-5.0011,-4.9976,-4.9533,-4.8792,-4.8741,-4.8327,-4.7603,-4.6862,-4.6446,-4.6189,-4.5468,-4.5113,-4.4978,-4.5005,-4.5005,-4.5005,-4.5005,-4.5005,-4.5005,-4.5005,-4.4913,-4.4803,-4.482,-4.4173,-4.3589,-4.435,-4.3548,-4.2472,-4.3183,-4.2337,-4.1204,-4.117,-4.0629,-4.0171,-4.0419,-4.0645,-4.0819,-4.0871,-4.0836,-4.0724,-4.0541,-4.0704,-4.0888,-4.0888,-4.0888,-4.0888,-4.0888,-4.0888,0.0,-4.0888,-4.0888,-4.0888,-4.0888,-4.0853,-4.0543,-3.9744,-3.9641,-3.9319,-3.8617,-3.8548,-3.8237,-3.7542,-3.7491,-3.6766,-3.5194,-3.3655,-3.3621,-3.5142,0.0,0.0,0.0,0.0,0.0,0.0,0.0,0.0,0.0,0.0,0.0,0.0,0.0,0.0,0.0,0.0,0.0,0.0,0.0,0.0,0.0,-3.9199,-3.9769,-4.0216,-4.1409,-4.2356,-4.2715,-4.3484,-4.3973,-4.3973,-4.3771,-4.3738,-4.3956,-4.3973,-4.4378,-4.5297,-4.579,-4.6555,-4.7792,-4.8455,-4.9068,-4.9666,-4.989,-5.0011,-4.9993,-4.9309,-4.8873,-4.8615,-4.7386,-4.6741,-4.6501,-4.5764,-4.5412,-4.5333,-4.5036,-4.4886,-4.4858,-4.4951,-4.5005,-4.5005,-4.5005,-4.5005,-4.4978,-4.4886,-4.4831,-4.4776,-4.4682,-4.449,-4.4299,-4.4547,-4.3893,-4.3031,-4.2692,-4.1931,-4.1085,-4.0527,-4.0265,-4.0121,-4.0313,-4.0468,-4.059,-4.0607,-4.059,-4.0541,-4.0387,-4.0337,-4.0337,-4.0337,-4.0337,-4.0337,-4.0337,-4.0337,-4.0337,-4.0337,-4.0337,-4.0337,-4.0337,-3.9844,-3.9428,-3.9207,-3.8204,-3.775,-3.8067,-3.7597,-3.7444,-3.7795,-3.7268,-3.6287,-3.4717,-3.4253,-3.3981,0.0,0.0,0.0,0.0,0.0,0.0,0.0,0.0,0.0,0.0,0.0,0.0,0.0,0.0,0.0,0.0,0.0,0.0,0.0,0.0,0.0,0.0,-3.9948,-4.0629,-4.0716,-4.1583,-4.2341,-4.2697,-4.3372,-4.396,-4.4247,-4.4281,-4.4414,-4.4697,-4.4714,-4.499,-4.5621,-4.625,-4.7089,-4.8056,-4.8739,-4.9308,-4.9772,-4.9713,-4.9654,-4.9637,-4.8748,-4.8131,-4.7807,-4.6595,-4.5834,-4.5538,-4.5166,-4.4923,-4.4769,-4.4703,-4.4592,-4.4525,0.0,0.0,0.0,0.0,-4.4831,-4.4831,-4.472,-4.4709,-4.4709,-4.4643,-4.4615,-4.4615,-4.4615,-4.3809,-4.2861,-4.2422,-4.1542,-4.0629,-4.0214,-4.0096,-4.0138,-4.0188,-4.0288,-4.032,-4.032,-4.032,-4.0313,-4.0238,-3.9909,0.0,-4.0045,-4.0096,-4.0096,-4.0096,-4.0096,-4.0096,-4.0096,-3.9842,-3.9656,-3.9656,-3.8971,-3.8389,-3.8043,-3.7192,0.0,0.0,0.0,-3.6455,-3.6918,-3.6518,0.0,0.0,0.0,0.0,0.0,0.0,0.0,0.0,-3.3858,-3.3626,0.0,0.0,0.0,0.0,0.0,0.0,0.0,0.0,0.0,0.0,0.0,0.0,0.0,0.0,0.0,0.0,-4.0785,-4.1628,-4.1709,-4.1985,-4.2395,-4.297,-4.3391,-4.3856,-4.4533,-4.4651,-4.4948,-4.5559,-4.5608,-4.572,-4.6007,-4.6965,0.0,0.0,0.0,-4.9381,-4.935,-4.9152,-4.9029,-4.9012,-4.8031,-4.7245,-4.6634,-4.5947,-4.5303,-4.472,-4.4886,-4.4769,-4.4474,-4.4401,-4.4265,-4.4051,-4.4429,-4.457,-4.4615,-4.4615,-4.4615,-4.4615,-4.4615,0.0,0.0,-4.4615,-4.4615,-4.4581,-4.4496,-4.3436,-4.2269,-4.2202,-4.1153,-4.0096,-4.0096,-4.0096,-4.0096,-4.0096,-4.0096,-4.0096,-4.0096,-4.0096,-4.0096,-4.0096,-3.9495,-3.9191,-3.9859,-3.9977,-4.0011,-4.0096,-4.0096,-4.0079,-3.9994,-3.9394,-3.8954,-3.887,-3.8227,0.0,-3.666,-3.6478,-3.6071,-3.5301,-3.54,-3.5498,-3.5577,-3.5577,-3.5577,-3.5554,-3.5554,-3.5554,-3.5554,-3.5498,-3.5469,-3.5412,-3.4046,-3.3294,0.0,0.0,0.0,0.0,0.0,0.0,0.0,0.0,0.0,0.0,0.0,0.0,0.0,0.0,0.0,-4.0883,-4.1417,-4.1806,-4.2342,-4.2454,-4.2534,-4.2664,-4.3262,-4.3748,-4.3894,-4.4431,-4.4821,-4.4968,-4.4968,-4.5294,-4.6045,-4.6535,-4.7123,-4.7864,-4.8349,-4.856,-4.8433,-4.8257,-4.808,-4.7884,-4.6255,0.0,-4.5634,-4.4491,-4.4077,-4.4241,-4.4542,-4.4553,-4.4293,-4.3852,-4.3676,-4.3663,-4.4179,-4.4468,-4.4615,-4.4615,-4.4615,-4.4615,-4.4615,-4.4615,-4.4615,-4.4615,-4.4615,-4.4496,-4.3826,-4.3014,0.0,-4.1576,-4.0764,-4.0096,-4.0096,-4.0096,-4.0096,-4.0096,-4.0096,-4.0096,-4.0096,-4.0096,-4.0096,-4.0096,-3.9495,-3.9039,-3.9174,-3.9208,-3.9394,-4.0011,-4.0096,-3.9893,-3.9276,-3.9089,-3.8768,-3.8176,-3.7449,-3.6901,-3.6632,-3.5699,-3.5157,-3.5152,-3.5268,-3.5383,-3.5498,-3.5537,-3.5452,-3.536,-3.536,-3.536,-3.536,-3.5337,-3.5268,-3.5158,-3.4742,-3.4492,0.0,0.0,0.0,0.0,0.0,0.0,0.0,0.0,0.0,0.0,0.0,-3.6805,-3.8618,0.0,-3.9914,-4.1369,-4.1873,-4.2229,-4.2554,-4.2602,-4.2602,-4.2602,-4.3233,-4.3848,-4.4221,-4.4885,-4.5451,-4.5807,-4.584,-4.6053,-4.6478,-4.6814,-4.721,-4.7622,-4.8,-4.8114,-4.7951,-4.7754,-4.7539,-4.7339,-4.5652,-4.4952,-4.5065,-4.3951,-4.3549,-4.3759,-4.42,-4.4155,-4.3802,-4.3276,-4.3139,-4.3336,-4.3713,-4.4155,-4.4615,-4.4615,-4.4615,-4.4615,-4.4615,-4.4615,-4.4615,-4.4615,-4.4344,-4.3927,-4.3511,-4.2642,-4.1677,-4.1305,-4.0663,-4.0096,-4.0096,-4.0096,-4.0096,-4.0096,-4.0096,-4.0096,-4.0096,-4.0096,-4.0096,-4.0096,-3.9191,-3.8565,-3.8937,-3.8379,-3.8261,-3.9385,-3.9859,-3.9817,-3.8999,-3.8593,-3.8038,-3.7249,-3.6491,-3.5937,-3.5685,-3.4896,-3.4513,-3.4691,-3.4828,-3.497,-3.5088,-3.5088,-3.5058,-3.4899,-3.4899,-3.4899,-3.4899,-3.4828,-3.478,-3.4691,-3.4423,-3.4325,0.0,0.0,0.0,0.0,0.0,0.0,0.0,-3.4764,-3.5503,-3.6497,-3.7145,-3.8003,-3.9619,-4.0364,-4.0934,-4.1693,-4.2261,-4.2602,-4.2602,-4.2602,-4.2602,-4.2602,-4.3233,-4.3945,-4.4528,-4.5208,-4.5905,-4.6617,-4.6682,-4.673,-4.6876,-4.715,-4.7303,-4.7303,-4.7605,-4.7688,-4.7504,-4.7286,-4.71,-4.6896,-4.5351,-4.4622,-4.4607,-4.3597,-4.3143,-4.3204,-4.3595,-4.3476,-4.3005,-4.2617,-4.2585,-4.2803,-4.3143,-4.3713,-4.4412,-4.4485,-4.4514,-4.4542,-4.4514,-4.4514,-4.4542,-4.4542,-4.4119,-4.3589,-4.3274,-4.2371,-4.1356,-4.1068,-4.0544,-4.0096,-4.0096,-4.0096,-4.0096,-4.0096,-4.0096,-4.0096,-4.0096,-4.0096,-4.0096,-4.0096,-3.9005,-3.8261,-3.8676,-3.7763,-3.7374,-3.8599,-3.9276,-3.9369,-3.8486,-3.7782,-3.703,-3.6157,-3.5461,-3.4859,-3.4407,-3.4109,-3.3958,-3.4009,-3.4143,-3.4308,-3.4456,-3.4456,-3.4366,-3.4259,-3.4259,-3.4259,-3.4259,-3.4143,-3.4084,-3.4084,-3.3704,-3.3694,-3.3137,-3.3145,-3.334,-3.3955,-3.4101,-3.4262,0.0,-3.5146,-3.5778,-3.776,-3.823,-3.891,-4.098,-4.1434,-4.1709,-4.236,-4.2554,-4.2602,-4.2602,-4.2602,-4.2602,-4.2602,-4.3233,-4.3735,-4.3832,-4.448,-4.5192,-4.5872,-4.5921,-4.6212,-4.686,-4.6945,-4.6945,-4.6945,-4.6979,-4.6911,-4.6738,-4.6512,-4.6337,-4.6175,-4.4582,-4.3881,-4.397,-4.2782,-4.2317,-4.2412,-4.2475,-4.2205,-4.1722,-4.1852,-4.1787,-4.1754,-4.2412,-4.3064,-4.3676,-4.4006,-4.4241,-4.431,-4.4184,-4.4224,-4.4338,-4.4338,-4.4373,-4.4225,-4.2828,-4.2303,-4.1897,-4.0603,-4.0163,-4.0096,-4.0096,-4.0096,-4.0096,-4.0096,-4.0096,-4.0096,-4.0096,-4.0096,-4.0096,-4.0096,-3.9453,-3.8659,-3.7964,-3.7704,-3.7701,-3.7983,-3.8091,-3.7824,-3.6969,-3.6458,-3.5859,-3.4985,-3.444,-3.3885,-3.3224,-3.3256,-3.3203,-3.2975,-3.3198,-3.3407,-3.3547,-3.3547,-3.3469,-3.3355,-3.3355,-3.3355,-3.3355,-3.3329,-3.3329,-3.3329,-3.3029,-3.3087,-3.2967,-3.308,-3.3242,-3.3922,-3.4424,-3.4813,-3.5146,-3.5817,-3.6918,-3.8634,-3.9314,-4.014,-4.1873,-4.2197,-4.2278,-4.2554,-4.2602,-4.2602,-4.2602,-4.2602,-4.2602,-4.2602,-4.2861,-4.3217,-4.367,-4.4366,-4.5079,-4.5743,-4.5807,-4.6115,-4.6878,-4.6876,-4.6876,-4.6876,-4.6876,-4.6807,-4.6582,-4.6512,-4.6353,-4.6064,-4.4598,-4.3828,-4.3746,-4.2518,-4.2061,-4.219,-4.1997,-4.1688,-4.1392,-4.139,-4.1374,-4.1425,-4.198,-4.2633,-4.3323,-4.3772,-4.3873,-4.3839,-4.3919,-4.3873,-4.3869,-4.4109,-4.4069,-4.3775,-4.3149,-4.2337,-4.1525,-4.0899,-4.0434,-4.0096,-4.0096,-4.0096,-4.0096,-4.0096,-4.0096,-4.0096,-4.0096,-4.0096,-4.0096,-4.0096,-3.9495,-3.8879,-3.8428,-3.7442,-3.6693,-3.6645,-3.7151,-3.7192,-3.6156,-3.5795,-3.5258,-3.4232,-3.3697,-3.3277,-3.2922,-3.2776,-3.2683,-3.2559,-3.2749,-3.2868,-3.2933,-3.2933,-3.2868,-3.2749,-3.2749,-3.2749,-3.2749,-3.2749,-3.2749,-3.2722,-3.2547,-3.248,-3.2643,-3.2935,-3.3315,-3.4182,-3.4797,-3.5309,-3.5671,-3.6578,-3.7684,-3.9136,-3.9994,-4.0869,-4.2116,-4.2473,-4.2602,-4.2602,-4.2602,-4.2602,-4.2602,-4.2602,-4.2602,-4.2602,-4.2602,-4.2797,-4.3331,-4.3881,-4.4561,-4.5451,-4.5516,-4.5921,-4.6828,-4.6876,-4.6876,-4.6876,-4.6876,-4.6842,-4.6687,-4.6687,-4.6545,-4.6207,-4.4772,-4.3931,-4.3658,-4.2234,-4.1604,-4.1654,-4.139,-4.1223,-4.1055,-4.0984,-4.0984,-4.1122,-4.1521,-4.2077,-4.271,-4.3094,-4.3306,-4.338,-4.3443,-4.3426,-4.3456,-4.3772,-4.3757,-4.3552,-4.335,-4.2389,-4.1343,-4.1141,-4.0585,-4.0037,-4.0037,-4.0087,-4.007,-4.0062,-4.0037,-4.0037,-4.0011,-3.9995,-3.9995,-3.9995,-3.9547,-3.9,-3.838,-3.7137,-3.5976,-3.5249,-3.5743,-3.5916,-3.5149,-3.4787,-3.4274,-3.3324,-3.2926,-3.2668,-3.2547,-3.2342,-3.2219,-3.2163,-3.2244,-3.2299,-3.2299,-3.2299,-3.2244,-3.2148,-3.2148,-3.2056,-3.1885,-3.2056,-3.2056,-3.1873,-3.1959,-3.1953,-3.2044,-3.2562,-3.3445,-3.4822,-3.5195,-3.5542,-3.6934,-3.7263,-3.7728,-3.9185,-4.0011,-4.0723,-4.1498,-4.2164,-4.2602,-4.2602,-4.2602,-4.2602,-4.2602,-4.2602,-4.2602,-4.2602,-4.2602,-4.2619,-4.2635,-4.2651,-4.3266,-4.4706,-4.482,-4.5419,-4.6846,-4.6876,-4.6876,-4.6876,-4.6876,-4.6876,-4.6876,-4.6876,-4.6772,-4.6582,-4.5046,-4.4068,-4.3627,-4.1729,-4.073,-4.0558,-4.0524,-4.0524,-4.0524,-4.0524,-4.0524,-4.0558,-4.0969,-4.1307,-4.1558,-4.1787,-4.238,-4.3066,-4.2741,-4.2851,-4.3143,-4.3342,-4.373,-4.3958,-4.3238,-4.2484,-4.172,-4.1027,-4.0369,-3.9901,-3.9901,-4.0011,-4.0062,-3.9952,-3.9901,-3.9875,-3.9729,-3.9703,-3.9703,-3.9703,-3.9687,-3.9098,-3.7283,-3.6798,-3.6006,-3.4063,-3.3519,-3.3408,-3.363,-3.3097,-3.2508,-3.2109,-3.2038,-3.1968,-3.1841,-3.1813,-3.1727,-3.1539,-3.1524,-3.1524,-3.1524,-3.1524,-3.1524,-3.1524,-3.1524,-3.121,-3.0565,-3.121,-3.118,-3.058,-3.1225,-3.1511,-3.2336,-3.2546,-3.2821,-3.4741,-3.5558,-3.6173,-3.7085,-3.7695,-3.8311,-3.9311,-3.97,-4.0202,-4.1385,-4.1759,-4.2083,-4.2522,-4.2602,-4.2764,-4.325,-4.3346,-4.3346,-4.3346,-4.3346,-4.312,-4.2651,-4.2602,-4.3201,-4.469,-4.4787,-4.5403,-4.6811,-4.6876,-4.6876,-4.6876,-4.6876,-4.6858,-4.6687,-4.6703,-4.658,-4.6243,-4.4529,-4.3264,-4.2396,-4.1305,-4.0696,-4.0489,-4.0489,-4.0489,-4.0489,-4.0489,-4.0489,-4.0524,-4.0799,-4.1088,-4.1374,-4.1323,-4.1588,-4.1916,-4.2029,-4.2061,-4.2078,-4.2444,-4.2772,-4.29,-4.2209,-4.1504,-4.0799,-4.0348,-3.9839,-3.9487,-3.9703,-3.9935,-4.0062,-3.9926,-3.9661,-3.9408,-3.9259,-3.8974,-3.8783,-3.8783,-3.8783,-3.839,-3.7243,-3.6367,-3.5104,-3.2889,-3.2765,-3.2895,-3.2815,-3.252,-3.2247,-3.201,-3.1912,-3.1841,-3.1784,-3.167,-3.1568,-3.1511,-3.1511,-3.1511,-3.1511,-3.1511,-3.1511,-3.1511,-3.1511,-3.1391,-3.1152,-3.1391,-3.1391,-3.1167,-3.1391,-3.1511,-3.3064,-3.3501,-3.3939,-3.5542,-3.6319,-3.6853,-3.7549,-3.8068,-3.8537,-3.9007,-3.9327,-3.9862,-4.1012,-4.1628,-4.218,-4.2877,-4.3201,-4.3541,-4.4043,-4.4091,-4.4091,-4.4091,-4.3864,-4.3524,-4.3023,-4.2748,-4.3088,-4.4318,-4.4642,-4.5289,-4.6439,-4.6747,-4.6876,-4.6876,-4.6876,-4.6807,-4.6582,-4.6512,-4.6119,-4.5412,-4.4176,-4.2934,-4.1716,-4.1283,-4.0874,-4.0489,-4.0489,-4.0489,-4.0489,-4.0489,-4.0489,-4.0524,-4.0627,-4.0817,-4.0987,-4.0916,-4.095,-4.1055,-4.144,-4.1491,-4.1475,-4.1802,-4.211,-4.2235,-4.1557,-4.0847,-4.0167,-3.9764,-3.9357,-3.9115,-3.9372,-3.9687,-3.9893,-3.9651,-3.9302,-3.899,-3.8728,-3.8395,-3.8169,-3.8169,-3.7959,-3.75,-3.663,-3.5304,-3.3808,-3.2231,-3.2247,-3.2342,-3.2092,-3.1994,-3.1925,-3.1826,-3.1741,-3.1698,-3.1698,-3.1568,-3.1511,-3.1511,-3.1511,-3.1511,-3.1511,-3.1511,-3.1391,-3.1137,-3.1376,-3.1271,-3.0808,-3.1271,-3.1376,-3.1137,-3.1391,-3.1511,-3.4133,-3.5185,-3.6416,-3.7117,-3.7295,-3.7473,-3.823,-3.8391,-3.8391,-3.8391,-3.8942,-3.9667,-4.0367,-4.163,-4.2797,-4.3589,-4.4318,-4.4804,-4.4836,-4.4852,-4.4852,-4.4852,-4.4237,-4.38,-4.3767,-4.3072,-4.2942,-4.367,-4.4383,-4.5079,-4.5759,-4.6488,-4.6876,-4.6876,-4.6876,-4.6807,-4.6582,-4.6372,-4.5576,-4.4226,-4.4023,-4.3107,-4.1648,-4.1617,-4.1217,-4.0489,-4.0489,-4.0489,-4.0489,-4.0489,-4.0489,-4.0489,-4.0489,-4.0489,-4.0489,-4.0489,-4.0489,-4.0558,-4.0932,-4.1153,-4.129,-4.1489,-4.1737,-4.1821,-4.115,-4.0448,-3.9759,-3.9234,-3.8906,-3.8761,-3.8914,-3.9292,-3.9504,-3.905,-3.8832,-3.8595,-3.8144,-3.7943,-3.7812,-3.778,-3.7201,-3.6398,-3.5438,-3.3668,-3.2287,-3.2025,-3.187,-3.1727,-3.1539,-3.1511,-3.1511,-3.1511,-3.1511,-3.1511,-3.1511,-3.1511,-3.1511,-3.1511,-3.1511,-3.1511,-3.1511,-3.1511,-3.1197,-3.0567,-3.1182,-3.0898,-2.9711,-3.0898,-3.1167,-3.0567,-3.1197,-3.1511,-3.4644,-3.5185,-3.5768,-3.7015,-3.7295,-3.7473,-3.823,-3.8391,-3.8391,-3.8391,-3.8553,-3.9039,-4.027,-4.1225,-4.2245,-4.3508,-4.4318,-4.4965,-4.5467,-4.5548,-4.5548,-4.5548,-4.5386,-4.5079,-4.4561,-4.3864,-4.3508,-4.3702,-4.4383,-4.5079,-4.5759,-4.6488,-4.6876,-4.6876,-4.6876,-4.6738,-4.6369,-4.592,-4.539,-4.4722,-4.4167,-4.3355,-4.234,-4.1832,-4.1217,-4.0489,-4.0489,-4.0489,-4.0489,-4.0489,-4.0489,-4.0489,-4.0489,-4.0489,-4.0489,-4.0489,-4.0489,-4.0524,-4.0608,-4.0677,-4.073,-4.0749,-4.051,-4.0033,-3.9349,-3.8665,-3.8044,-3.7681,-3.7664,-3.7812,-3.8116,-3.8423,-3.8618,-3.8383,-3.8059,-3.7711,-3.7476,-3.7134,-3.6721,-3.6208,-3.5047,-3.4019,-3.3664,-3.2756,-3.2038,-3.187,-3.1813,-3.1727,-3.1539,-3.1511,-3.1511,-3.1511,-3.1511,-3.1511,-3.1511,-3.1511,-3.1511,-3.1511,-3.1511,-3.1511,-3.1511,-3.1511,-3.1421,-3.1241,-3.1406,-3.1346,-3.1017,-3.1346,-3.1406,-3.1241,-3.1421,-3.1511,-3.5914,-3.6351,-3.6788,-3.7598,-3.7549,-3.7392,-3.7825,-3.7695,-3.7566,-3.7873,-3.7922,-3.8359,-3.9784,-4.0915,-4.1968,-4.3055,-4.435,-4.537,-4.5743,-4.6083,-4.6277,-4.6277,-4.6002,-4.5662,-4.5273,-4.4593,-4.4059,-4.3735,-4.4091,-4.4625,-4.5322,-4.6034,-4.6552,-4.6911,-4.6876,-4.6649,-4.6084,-4.5609,-4.5167,-4.4761,-4.4406,-4.3636,-4.2602,-4.2217,-4.1494,-4.0489,-4.0489,-4.0489,-4.0489,-4.0489,-4.0489,-4.0489,-4.0489,-4.0489,-4.0489,-4.0489,-4.0489,-4.0489,-4.0489,-4.0489,-4.0489,-4.0489,-4.0243,-3.9751,-3.88,-3.8246,-3.7802,-3.708,-3.7074,-3.7358,-3.7623,-3.7899,-3.8055,-3.7841,-3.7565,-3.7238,-3.7043,-3.6723,-3.6199,-3.5124,-3.3963,-3.2993,-3.2632,-3.2182,-3.1898,-3.1813,-3.1727,-3.1626,-3.1511,-3.1511,-3.1511,-3.1511,-3.1511,-3.1511,-3.1511,-3.1511,-3.1511,-3.1511,-3.1511,-3.1511,-3.1511,-3.1511,-3.1361,-3.1062,-3.1346,-3.1361,-3.1062,-3.1361,-3.1511,-3.1511,-3.1511,-3.1511,-3.7295,-3.7841,-3.8391,-3.8391,-3.7857,-3.7295,-3.7295,-3.6761,-3.6465,-3.7036,-3.7231,-3.7728,-3.9088,-4.051,-4.1725,-4.2473,-4.435,-4.5694,-4.5791,-4.6423,-4.6876,-4.6876,-4.6326,-4.5953,-4.5953,-4.5322,-4.4625,-4.3913,-4.3767,-4.4026,-4.4755,-4.5435,-4.6131,-4.686,-4.6858,-4.6493,-4.5848,-4.5426,-4.5055,-4.4648,-4.4648,-4.3917,-4.2602,-4.2602,-4.1848,-4.0489,-4.0489,-4.0489,-4.0489,-4.0489,-4.0489,-4.0489,-4.0489,-4.0489,-4.0489,-4.0489,-4.0489,-4.0489,-4.0489,-4.0489,-4.0489,-4.0489,-4.0428,-4.0136,-3.9,-3.8523,-3.8155,-3.7095,-3.6969,-3.7118,-3.7238,-3.7506,-3.7653,-3.7358,-3.7178,-3.7043,-3.6754,-3.643,-3.5753,-3.4286,-3.339,-3.2651,-3.2046,-3.1841,-3.1756,-3.1756,-3.1597,-3.1511,-3.1511,-3.1511,-3.1511,-3.1511,-3.1511,-3.1511,-3.1511,-3.1511,-3.1511,-3.1511,-3.1511,-3.1511,-3.1511,-3.1511,-3.1227,-3.0657,-3.1197,-3.1212,-3.0642,-3.1212,-3.1511,-3.1511,-3.1511,-3.1511,-3.7295,-3.7841,-3.8391,-3.8391,-3.7857,-3.7295,-3.7295,-3.6761,-3.6335,-3.6448,-3.6891,-3.7554,-3.8424,-3.9735,-4.1112,-4.2392,-4.3945,-4.516,-4.5726,-4.6423,-4.6876,-4.6876,-4.6779,-4.6698,-4.6698,-4.605,-4.5338,-4.4658,-4.4043,-4.4026,-4.4755,-4.5435,-4.6131,-4.686,-4.658,-4.6298,-4.6064,-4.5646,-4.5241,-4.4836,-4.4836,-4.4065,-4.2602,-4.2602,-4.1848,-4.0489,-4.0489,-4.0489,-4.0489,-4.0489,-4.0489,-4.0489,-4.0489,-4.0489,-4.0489,-4.0489,-4.0489,-4.0489,-4.0489,-4.0489,-4.0489,-4.0489,-4.012,-3.9613,-3.9382,-3.8554,-3.7631,-3.7416,-3.7001,-3.6647,-3.6662,-3.6693,-3.6723,-3.6662,-3.6631,-3.6616,-3.6554,-3.5508,-3.4301,-3.3244,-3.246,-3.192,-3.1641,-3.1568,-3.1539,-3.1539,-3.1511,-3.1511,-3.1511,-3.1511,-3.1511,-3.1511,-3.1511,-3.1511,-3.1511,-3.1511,-3.1511,-3.1511,-3.1511,-3.1511,-3.1511,-3.1511,-3.1451,-3.1331,-3.1451,-3.1451,-3.1331,-3.1451,-3.1511,-3.1511,-3.1511,-3.1511,-3.8079,-3.8339,-3.8502,-3.8045,-3.7384,-3.6766,-3.6313,-3.5671,-3.5266,-3.5639,-3.5979,-3.6546,-3.763,-3.8699,-3.9865,-4.129,-4.2731,-4.4043,-4.5127,-4.5872,-4.6455,-4.6828,-4.6876,-4.6876,-4.6876,-4.6568,-4.5937,-4.4868,-4.4464,-4.4269,-4.4237,-4.5225,-4.5953,-4.6309,-4.6405,-4.6388,-4.6211,-4.5864,-4.5463,-4.5061,-4.4949,-4.4103,-4.2602,-4.2602,-4.1848,-4.0489,-4.0489,-4.0489,-4.0489,-4.0489,-4.0489,-4.0489,-4.0489,-4.0489,-4.0489,-4.0489,-4.0489,-4.0489,-4.0489,-4.0489,-4.0489,-4.0489,-4.0274,-3.9874,-3.92,-3.8539,-3.7877,-3.7169,-3.6738,-3.6492,-3.6492,-3.6492,-3.6492,-3.6492,-3.6492,-3.6399,-3.5938,-3.4912,-3.3847,-3.2974,-3.2178,-3.1597,-3.1511,-3.1511,-3.1511,-3.1511,-3.1511,-3.1511,-3.1511,-3.1511,-3.1511,-3.1511,-3.1511,-3.1511,-3.1511,-3.1511,-3.1511,-3.1511,-3.1511,-3.1511,-3.1511,-3.1511,-3.1511,-3.1511,-3.1511,-3.1511,-3.1511,-3.1511,-3.1511,-3.1511,-3.1511,-3.1511,-3.898,-3.898,-3.8772,-3.7871,-3.713,-3.6349,-3.5477,-3.467,-3.4262,-3.4855,-3.5098,-3.5552,-3.6659,-3.7582,-3.8586,-3.9833,-4.1371,-4.2829,-4.4156,-4.5176,-4.6018,-4.6585,-4.6649,0.0,-4.6649,-4.652,-4.5921,-4.4658,-4.4415,-4.414,-4.3735,-4.5046,-4.5807,-4.5807,-4.6316,-4.6512,-4.6372,-4.6028,-4.5646,-4.5247,-4.5061,-4.414,-4.2602,-4.2602,-4.1848,-4.0489,-4.0489,-4.0489,-4.0489,-4.0489,-4.0489,-4.0489,-4.0489,-4.0489,-4.0489,-4.0489,-4.0489,-4.0489,-4.0489,-4.0489,-4.0489,-4.0489,-4.0397,-4.0074,-3.9013,-3.8523,-3.8077,-3.7015,-3.6599,-3.6492,-3.6492,-3.6492,-3.6492,-3.6492,-3.6492,-3.6199,-3.5171,-3.444,-3.3727,-3.2719,-3.1957,-3.1511,-3.1511,-3.1511,-3.1511,-3.1511,-3.1511,-3.1511,-3.1511,-3.1511,-3.1511,-3.1511,-3.1511,-3.1511,-3.1511,-3.1511,-3.1511,-3.1511,-3.1511,-3.1511,-3.1511,-3.1511,-3.1511,-3.1511,-3.1511,-3.1511,-3.1511,-3.1511,-3.1511,-3.1511,-3.1511,-3.1511,-3.9532,-3.9532,-3.9323,-3.8434,-3.7557,-3.6642,-3.5742,-3.4796,-3.4117,-3.4182,-3.4716,-3.5244,-3.5373,-3.6497,-3.7679,-3.8456,-4.0318,-4.1938,-4.2683,-4.4544,-4.584,-4.5888,0.0,0.0,-4.5905,-4.5338,-4.4658,-4.3864,-4.3169,-4.3055,-4.3686,-4.5046,-4.5807,-4.5807,-4.6316,-4.6582,-4.6582,-4.6259,-4.5864,-4.5468,-4.5278,-4.4282,-4.2602,-4.2602,-4.1848,-4.0489,-4.0489,-4.0489,-4.0489,-4.0489,-4.0489,-4.0489,-4.0489,-4.0489,-4.0489,-4.0489,-4.0489,-4.0489,-4.0489,-4.0489,-4.0489,-4.0489,-4.0074,-3.9551,-3.9428,-3.8569,-3.7569,-3.7446,-3.6969,-3.6492,-3.6492,-3.6492,-3.6492,-3.6492,-3.6492,-3.6076,-3.447,-3.406,-3.3516,-3.1927,-3.154,-3.1511,-3.1511,-3.1511,-3.1511,-3.1511,-3.1511,-3.1511,-3.1511,-3.1511,-3.1511,-3.1511,-3.1511,-3.1511,-3.1511,-3.1511,-3.1511,-3.1511,-3.1511,-3.1511,-3.1511,-3.1511,-3.1511,-3.1511,-3.1511,-3.1511,-3.1511,-3.1511,-3.1511,-3.1511,-3.1511,-3.1511,-3.9767,-3.9901,-3.959,-3.8279,-3.7536,-3.6804,-3.5473,-3.4734,-3.4325,-3.425,-3.4453,-3.4899,-3.5714,-3.6319,-3.7226,-3.8796,-4.0108,-4.1322,-4.2441,-4.3703,-4.4706,-4.5144,-4.5192,-4.5192,-4.5192,-4.4949,-4.4496,-4.3767,-4.3007,-4.2732,-4.3007,-4.4415,-4.5192,-4.5192,-4.6225,-4.6772,-4.6772,-4.642,-4.5806,-4.504,-4.5149,-4.4064,-4.2017,-4.2417,-4.1848,-4.0489,-4.0489,-4.0489,-4.0489,-4.0489,-4.0489,-4.0489,-4.0489,-4.0489,-4.0489,-4.0489,-4.0489,-4.0489,-4.0489,-4.0489,-4.0489,-4.0489,-4.0043,-3.9413,-3.9031,-3.8539,-3.7938,-3.7123,-3.6707,-3.6492,-3.6492,-3.6492,-3.6492,-3.6492,-3.6492,-3.603,-3.4364,-3.4015,-3.3501,-3.1823,-3.1511,-3.1511,-3.1511,-3.1511,-3.1511,-3.1511,-3.1511,-3.1511,-3.1511,-3.1511,-3.1511,-3.1511,-3.1511,-3.1511,-3.1511,-3.1511,-3.1511,-3.1511,-3.1511,-3.1511,-3.1511,-3.1511,-3.1511,-3.1511,-3.1511,-3.1511,-3.1511,-3.1511,-3.1511,-3.1511,-3.1511,-3.1511,-3.9827,-4.015,-3.9955,-3.8299,-3.7711,-3.7107,-3.5475,-3.4906,-3.4675,-3.457,-3.4472,-3.4766,-3.5893,-3.621,-3.6869,-3.857,-3.9606,-4.061,-4.1793,-4.2764,-4.367,-4.4383,-4.4464,-4.4464,-4.4464,-4.4285,-4.3945,-4.3395,-4.2894,-4.2602,-4.2602,-4.38,-4.4561,-4.4787,-4.6114,-4.6807,-4.6807,-4.6439,-4.5698,-4.463,-4.5008,-4.4033,-4.1909,-4.2386,-4.1955,-4.0797,-4.0582,-4.0489,-4.0489,-4.0489,-4.0489,-4.0489,-4.0489,-4.0489,-4.0489,-4.0489,-4.0489,-4.0489,-4.0489,-4.0489,-4.0489,-4.0489,-4.0166,-3.9613,-3.8769,-3.8369,-3.8015,-3.7061,-3.6645,-3.6492,-3.6492,-3.6492,-3.6492,-3.6492,-3.6492,-3.603,-3.4364,-3.4015,-3.3501,-3.1823,-3.1511,-3.1511,-3.1511,-3.1511,-3.1511,-3.1511,-3.1511,-3.1511,-3.1511,-3.1511,-3.1511,-3.1511,-3.1511,-3.1511,-3.1511,-3.1511,-3.1511,-3.1511,-3.1511,-3.1511,-3.1511,-3.1511,-3.1511,-3.1511,-3.1511,-3.1511,-3.1511,-3.1511,-3.1511,-3.1511,-3.1511,-3.1511,-3.9698,-4.0284,-4.0485,-3.882,-3.823,-3.7647,-3.596,-3.5402,-3.5155,-3.5111,-3.4875,-3.4873,-3.5488,-3.5984,-3.6529,-3.7198,-3.8553,-3.9765,-4.0415,-4.1743,-4.2877,-4.3638,-4.3719,-4.3719,-4.3719,-4.3039,-4.2619,-4.2619,-4.2602,-4.2602,-4.2602,-4.3298,-4.4059,-4.4771,-4.5961,-4.6582,-4.6582,-4.6259,-4.5568,-4.4495,-4.4966,-4.4282,-4.2602,-4.2602,-4.2232,-4.1555,-4.0797,-4.0489,-4.0489,-4.0489,-4.0489,-4.0489,-4.0489,-4.0489,-4.0489,-4.0489,-4.0489,-4.0489,-4.0489,-4.0489,-4.0489,-4.0489,-4.0489,-4.0228,-3.8908,-3.8046,-3.7507,-3.7492,-3.7015,-3.6492,-3.6492,-3.6492,-3.6492,-3.6492,-3.6492,-3.603,-3.4364,-3.4015,-3.3501,-3.1823,-3.1511,-3.1511,-3.1511,-3.1511,-3.1511,-3.1511,-3.1511,-3.1511,-3.1511,-3.1511,-3.1511,-3.1511,-3.1511,-3.1511,-3.1511,-3.1511,-3.1511,-3.1511,-3.1511,-3.1511,-3.1511,-3.1511,-3.1511,-3.1511,-3.1511,-3.1511,-3.1511,-3.1511,-3.1511,-3.1511,-3.1511,-3.1511,-3.8801,-3.9112,-3.9077,-3.8055,-3.7597,-3.7143,-3.611,-3.5667,-3.5424,-3.5327,-3.5118,-3.5263,-3.6247,-3.6408,-3.674,-3.7857,-3.8861,-3.9748,-4.0399,-4.1306,-4.2164,-4.2861,-4.2942,-4.3136,-4.367,-4.3476,-4.3573,-4.4075,-4.4107,-4.3897,-4.3363,-4.4496,-4.4804,-4.4075,-4.4783,-4.5132,-4.503,-4.4668,-4.3936,-4.2876,-4.3381,-4.2762,-4.1166,-4.1694,-4.154,-4.0863,-4.0597,-4.0489,-4.0489,-4.0489,-4.0489,-4.0489,-4.0489,-4.0489,-4.0489,-4.0489,-4.0489,-4.0489,-4.0489,-4.0489,-4.0489,-4.0489,-4.0182,-3.9721,-3.929,-3.8723,-3.8,-3.7076,-3.6661,-3.6492,-3.6492,-3.6492,-3.6492,-3.6492,-3.603,-3.5324,-3.4227,-3.3576,-3.2854,-3.1704,-3.1511,-3.1511,-3.1511,-3.1511,-3.1511,-3.1511,-3.1511,-3.1511,-3.1511,-3.1511,-3.1511,-3.1511,-3.1511,-3.1511,-3.1511,-3.1511,-3.1511,-3.1511,-3.1511,-3.1511,-3.1511,-3.1511,-3.1511,-3.1511,-3.1511,-3.1511,-3.1511,-3.1511,-3.1511,-3.1511,-3.1511,-3.1511,-3.7996,-3.8392,-3.8427,-3.7685,-3.7369,-3.7053,-3.6298,-3.598,-3.5827,-3.5717,-3.5532,-3.5649,-3.653,-3.66,-3.6904,-3.7958,-3.8687,-3.9412,-4.0367,-4.0915,-4.1533,-4.2489,-4.2845,-4.3185,-4.367,-4.3962,-4.4318,-4.4755,-4.4787,-4.448,-4.3751,-4.4804,-4.4771,-4.3314,-4.4282,-4.4611,-4.4203,-4.3778,-4.305,-4.1996,-4.2621,-4.2195,-4.094,-4.1401,-4.1355,-4.0924,-4.0612,-4.0489,0.0,-4.0489,-4.0489,-4.0489,-4.0489,-4.0489,-4.0489,-4.0489,-4.0489,-4.0489,-4.0489,-4.0489,-4.0489,-4.0489,-3.9859,-3.9093,-3.8831,-3.8462,-3.7908,-3.6799,-3.6492,-3.6492,-3.6492,-3.6492,-3.643,-3.6091,-3.56,-3.4897,-3.3788,-3.3154,-3.2554,-3.1674,-3.1511,-3.1511,-3.1511,-3.1511,-3.1511,-3.1511,-3.1511,-3.1511,-3.1511,-3.1511,-3.1511,-3.1511,-3.1511,-3.1511,-3.1511,-3.1511,-3.1511,-3.1511,-3.1511,-3.1511,-3.1511,-3.1511,-3.1511,-3.1511,-3.1511,-3.1511,-3.1511,-3.1511,-3.1511,-3.1511,-3.1511,-3.1511,0.0,-3.7927,-3.8272,-3.7599,-3.7426,-3.7236,-3.6473,-3.6301,0.0,-3.6208,-3.5997,-3.5977,-3.6424,-3.6663,-3.7028,-3.7599,-3.8089,-3.8893,-4.0286,-4.0626,-4.1179,-4.249,-4.3282,-4.3767,-4.3832,-4.4431,-4.4885,-4.4933,-4.4949,-4.4625,-4.3864,-4.4528,-4.422,-4.27,-4.4325,-4.4742,-4.3856,-4.3412,-4.2716,-4.1724,-4.239,-4.2303,-4.1524,-4.1524,-4.1524,-4.1478,-4.0782,-4.0489,-4.0489,-4.0489,-4.0489,-4.0489,-4.0489,-4.0489,-4.0489,-4.0489,-4.0489,-4.0489,-4.0489,-4.0489,-4.0474,-4.0382,-3.9474,-3.8308,-3.7631,-3.743,-3.7292,-3.6676,-3.6492,-3.6492,-3.6492,-3.6492,-3.6245,-3.5386,-3.5171,-3.4699,-3.3139,-3.2749,-3.2464,-3.1659,-3.1511,-3.1511,-3.1511,-3.1511,-3.1511,-3.1511,-3.1511,-3.1511,-3.1511,-3.1511,-3.1511,-3.1511,-3.1511,-3.1511,-3.1511,-3.1511,-3.1511,-3.1511,-3.1511,-3.1511,-3.1511,-3.1511,-3.1511,-3.1511,-3.1511,-3.1511,-3.1511,-3.1511,-3.1511,-3.1511,-3.1511,-3.1525,-3.6525,0.0,-3.6801,-3.6628,-3.6577,-3.6525,0.0,-3.6301,-3.6301,-3.628,-3.6088,-3.6105,-3.6557,-3.6827,-3.7131,-3.7599,-3.8089,-3.8893,-4.0286,-4.1781,-4.2848,-4.317,-4.3715,-4.4357,-4.5088,-4.5298,-4.5688,-4.6358,-4.6272,-4.5878,-4.5185,-4.5642,-4.506,-4.312,-4.3882,-4.3616,-4.2194,-4.1807,-4.1355,-4.0805,-4.0974,-4.0974,-4.0751,-4.0751,-4.0751,-4.0735,-4.0566,-4.0489,-4.0489,-4.0489,-4.0489,-4.0489,-4.0489,-4.0489,-4.0489,-4.0489,-4.0489,-4.0489,-4.0489,-4.0489,-4.032,-3.929,-3.8415,-3.7583,-3.6749,-3.6613,-3.6692,-3.6538,-3.6492,-3.6492,-3.6492,-3.6383,-3.6105,-3.537,-3.4638,-3.388,-3.2989,-3.2284,-3.1748,-3.154,-3.1511,-3.1511,-3.1511,-3.1511,-3.1511,-3.1511,-3.1511,-3.1511,-3.1511,-3.1511,-3.1511,-3.1511,-3.1511,-3.1511,-3.1511,-3.1511,-3.1511,-3.1511,-3.1511,-3.1511,-3.1511,-3.1511,-3.1511,-3.1511,-3.1511,-3.1511,-3.1511,-3.1511,-3.1511,-3.1511,-3.1511,-3.1765,-3.6301,-3.6301,-3.6301,-3.6301,-3.6301,-3.6301,-3.6301,-3.6301,-3.6301,-3.6301,-3.6216,-3.6182,-3.6349,-3.681,-3.7235,-3.735,-3.8236,-3.9395,-4.0818,-4.2396,-4.3378,-4.3264,-4.4127,-4.4896,-4.5399,-4.5824,-4.63,-4.686,-4.6703,-4.6258,-4.5498,-4.593,-4.5199,-4.2995,-4.3463,-4.3011,-4.1472,-4.1221,-4.0898,-4.0489,-4.0489,-4.0489,-4.0489,-4.0489,-4.0489,-4.0489,-4.0489,-4.0489,-4.0489,-4.0489,-4.0489,-4.0489,-4.0489,-4.0489,-4.0489,-4.0489,-4.0489,-4.0489,-4.0489,-4.029,-3.9859,-3.8846,-3.7981,-3.7226,-3.6441,-3.6211,-3.6273,-3.6273,-3.6273,-3.6273,-3.6273,-3.6195,-3.5841,-3.4805,-3.4167,-3.3502,-3.2435,-3.1823,-3.1511,-3.1511,-3.1511,-3.1511,-3.1511,-3.1511,-3.1511,-3.1511,-3.1511,-3.1511,-3.1511,-3.1511,-3.1511,-3.1511,-3.1511,-3.1511,-3.1511,-3.1511,-3.1511,-3.1511,-3.1511,-3.1511,-3.1511,-3.1511,-3.1511,-3.1511,-3.1511,-3.1511,-3.1511,-3.1511,-3.1511,-3.1511,-3.1511,-3.1854,-3.6094,-3.6215,-3.6335,-3.6456,-3.6473,-3.6473,-3.6473,-3.6366,-3.628,-3.628,-3.6259,-3.6208,-3.6107,-3.6791,-3.7344,-3.7232,-3.8639,-4.0162,-4.1358,-4.2671,-4.3407,-4.3226,-4.4487,-4.5384,-4.5384,-4.6086,-4.6598,-4.6772,-4.6633,-4.6201,-4.5416,-4.567,-4.489,-4.2735,-4.3022,-4.2542,-4.1239,-4.112,-4.0864,-4.0489,-4.0489,-4.0489,-4.0489,-4.0489,-4.0489,-4.0489,-4.0489,-4.0489,-4.0489,-4.0489,-4.0489,-4.0489,-4.0489,-4.0489,-4.0489,-4.0489,-4.0489,-4.0489,-4.0382,-3.9905,-3.9213,-3.8536,-3.7715,-3.6945,-3.6316,-3.6053,-3.5941,-3.5925,-3.5941,-3.6005,-3.6005,-3.5973,-3.5591,-3.4257,-3.3834,-3.3367,-3.1958,-3.157,-3.1511,-3.1511,-3.1511,-3.1511,-3.1511,-3.1511,-3.1511,-3.1511,-3.1511,-3.1511,-3.1511,-3.1511,-3.1511,-3.1511,-3.1511,-3.1511,-3.1511,-3.1511,-3.1511,-3.1511,-3.1511,-3.1511,-3.1511,-3.1511,-3.1511,-3.1511,-3.1511,-3.1511,-3.1511,-3.1511,-3.1511,-3.1511,-3.1511,-3.1914,-3.5197,-3.5818,-3.6456,-3.715,-3.7323,-3.7323,-3.7323,-3.6737,-3.6208,-3.6208,-3.6144,-3.612,-3.6382,-3.6882,-3.745,-3.8166,-3.9715,-4.0924,-4.1148,-4.2747,-4.3838,-4.3617,-4.4867,-4.5706,-4.5706,-4.5997,-4.6223,-4.6369,-4.6259,-4.6048,-4.5758,-4.5119,-4.4212,-4.3044,-4.256,-4.1831,-4.0867,-4.0867,-4.073,-4.0489,-4.0489,-4.0489,-4.0489,-4.0489,-4.0489,-4.0489,-4.0489,-4.0489,-4.0489,-4.0489,-4.0489,-4.0489,-4.0489,-4.0489,-4.0489,-4.0489,-4.0489,-4.0413,-3.9844,-3.9198,-3.8506,-3.7652,-3.6946,-3.627,-3.5878,-3.5752,-3.5735,-3.5619,-3.5765,-3.6005,-3.6005,-3.5863,-3.5539,-3.4738,-3.4043,-3.332,-3.2527,-3.1899,-3.1511,-3.1511,-3.1511,-3.1511,-3.1511,-3.1511,-3.1511,-3.1511,-3.1511,-3.1511,-3.1511,-3.1511,-3.1511,-3.1511,-3.1511,-3.1511,-3.1511,-3.1511,-3.1511,-3.1511,-3.1511,-3.1511,-3.1511,-3.1511,-3.1511,-3.1511,-3.1511,-3.1511,-3.1511,-3.1511,-3.1511,-3.1511,-3.1511,-3.2153,-3.499,-3.5732,-3.649,-3.7305,-3.7806,-3.8077,-3.7988,-3.7574,-3.716,-3.7075,-3.6892,-3.6784,-3.6857,-3.7568,-3.8504,-3.9712,-4.0507,-4.1055,-4.1342,-4.2717,-4.3586,-4.3411,-4.4631,-4.5478,-4.5499,-4.5682,-4.569,-4.544,-4.533,-4.4973,-4.4349,-4.3872,-4.3209,-4.2297,-4.1972,-4.1442,-4.0643,-4.0627,-4.0593,-4.0489,-4.0489,-4.0489,-4.0489,-4.0489,-4.0489,-4.0489,-4.0489,-4.0489,-4.0489,-4.0489,-4.0489,-4.0489,-4.0489,-4.0489,-4.0489,-4.0489,-4.0259,-3.9905,-3.9598,-3.8831,-3.7875,-3.7376,-3.6697,-3.6053,-3.5784,-3.5638,-3.5572,-3.5537,-3.5619,-3.5748,-3.5748,-3.5668,-3.5424,-3.4748,-3.4295,-3.3754,-3.2736,-3.2243,-3.1929,-3.157,-3.1511,-3.1511,-3.1511,-3.1511,-3.1511,-3.1511,-3.1511,-3.1511,-3.1511,-3.1511,-3.1511,-3.1511,-3.1511,-3.1511,-3.1511,-3.1511,-3.1511,-3.1511,-3.1511,-3.1511,-3.1511,-3.1511,-3.1511,-3.1511,-3.1511,-3.1511,-3.1511,-3.1511,-3.1511,-3.1511,-3.1869,-3.2572,-3.4456,-3.5335,-3.6232,-3.7004,-3.7745,-3.8303,-3.8311,-3.7978,-3.7658,-3.766,-3.7475,-3.7303,-3.7335,-3.8323,-3.956,-4.0829,-4.096,-4.1037,-4.1426,-4.2551,-4.3255,-4.3043,-4.4325,-4.5167,-4.5136,-4.518,-4.5049,-4.4626,-4.4342,-4.385,-4.3074,-4.2776,-4.2339,-4.1617,-4.1432,-4.1078,-4.0505,-4.0489,-4.0489,-4.0489,-4.0489,-4.0489,-4.0489,-4.0489,-4.0489,-4.0489,-4.0489,-4.0489,-4.0489,-4.0489,-4.0489,-4.0489,-4.0489,-4.0489,-4.0474,-4.032,-3.992,-3.9477,-3.9154,-3.8369,-3.7445,-3.7036,-3.6511,-3.5973,-3.5735,-3.5572,-3.5504,-3.5504,-3.5504,-3.5504,-3.5504,-3.5504,-3.537,-3.4846,-3.4623,-3.4234,-3.3185,-3.2736,-3.2333,-3.1824,-3.1615,-3.1511,-3.1511,-3.1511,-3.1511,-3.1511,-3.1467,-3.1438,-3.1438,-3.1424,-3.1395,-3.1395,-3.1395,-3.1424,-3.1438,-3.1467,-3.1511,-3.1511,-3.1511,-3.1511,-3.1511,-3.1511,-3.1511,-3.1511,-3.1511,-3.1511,-3.1511,-3.1511,-3.1585,-3.175,-3.2243,-3.2946,-3.2869,-3.4145,-3.5435,-3.6126,-3.6861,-3.7494,-3.7938,-3.729,-3.6726,-3.7153,-3.7136,-3.7149,-3.7597,-3.8885,-4.0111,-4.0706,-4.1083,-4.1243,-4.1169,-4.2291,-4.3043,-4.2864,-4.4215,-4.5129,-4.4949,-4.4553,-4.4289,-4.4226,-4.3649,-4.3187,-4.2926,-4.2255,-4.1778,-4.1601,-4.0955,-4.0551,-4.0489,-4.0489,-4.0489,-4.0489,-4.0489,-4.0489,-4.0489,-4.0489,-4.0489,-4.0489,-4.0489,-4.0489,-4.0489,-4.0489,-4.0489,-4.0489,-4.0489,-4.0489,-4.0413,-3.9782,-3.9521,-3.9305,-3.8077,-3.7584,-3.732,-3.6406,-3.6051,-3.5941,-3.5619,-3.5504,-3.5504,-3.5504,-3.5504,-3.5504,-3.5504,-3.5504,-3.5489,-3.5444,-3.4936,-3.4474,-3.4384,-3.338,-3.2497,-3.2452,-3.1929,-3.1511,-3.1511,-3.1511,-3.1511,-3.1511,-3.138,-3.1307,-3.1307,-3.122,-3.1132,-3.1132,-3.1132,-3.119,-3.1307,-3.1438,-3.1511,-3.1511,-3.1511,-3.1511,-3.1511,-3.1511,-3.1511,-3.1511,-3.1511,-3.1511,-3.1511,-3.1511,-3.1824,-3.2437,-3.2497,-3.3185,-3.3519,-3.4446,-3.537,-3.6086,-3.6671,-3.7314,-3.8278,-3.8288,-3.8195,-3.878,-3.9045,-3.9243,-3.9406,-4.0126,-4.0657,-4.0626,-4.0917,-4.1052,-4.078,-4.1566,-4.2133,-4.2062,-4.2968,-4.354,-4.3467,-4.3308,-4.302,-4.2602,-4.2339,-4.1963,-4.1445,-4.1152,-4.0994,-4.094,-4.0643,-4.0489,-4.0489,-4.0489,-4.0489,-4.0489,-4.0489,-4.0489,-4.0489,-4.0489,-4.0489,-4.0489,-4.0489,-4.0489,-4.0489,-4.0489,-4.0489,-4.0489,-4.0489,-4.0489,-4.0413,-3.9736,-3.9262,-3.8769,-3.7831,-3.723,-3.6767,-3.6191,-3.6005,-3.5957,-3.5587,-3.5504,-3.5504,-3.5504,-3.5504,-3.5504,-3.5504,-3.5504,-3.5504,-3.5504,-3.531,-3.4996,-3.4593,-3.3769,-3.3006,-3.2587,-3.1959,-3.1511,-3.1511,-3.1511,-3.1511,-3.1511,-3.138,-3.119,-3.0837,-3.1023,-3.1025,-3.0702,-3.1042,-3.1392,-3.1722,-3.1589,-3.1511,-3.1511,-3.1511,-3.1511,-3.1511,-3.1511,-3.1511,-3.1511,-3.1511,-3.1511,-3.1511,-3.1914,-3.2243,-3.2512,-3.335,-3.4039,-3.4107,-3.4733,-3.5318,-3.5776,-3.64,-3.7159,-3.819,-3.8726,-3.9155,-3.967,-4.0128,-4.0518,-4.0728,-4.089,-4.0944,-4.0765,-4.0941,-4.0966,-4.0558,-4.114,-4.1601,-4.1601,-4.2186,-4.2602,-4.2602,-4.2417,-4.2094,-4.1632,-4.1386,-4.1047,-4.052,-4.0489,-4.0489,-4.0489,-4.0489,-4.0489,-4.0489,-4.0489,-4.0489,-4.0489,-4.0489,-4.0489,-4.0489,-4.0489,-4.0489,-4.0489,-4.0489,-4.0489,-4.0489,-4.0489,-4.0489,-4.0474,-4.0259,-4.0166,-4.0074,-3.9182,-3.8585,-3.8092,-3.7415,-3.6876,-3.6429,-3.61,-3.6005,-3.5957,-3.5587,-3.5504,-3.5504,-3.5504,-3.5504,-3.5504,-3.5504,-3.5504,-3.5504,-3.5504,-3.5504,-3.537,-3.4906,-3.4277,-3.3604,-3.2961,-3.2258,-3.175,-3.154,-3.1467,-3.1438,-3.1438,-3.1161,-3.0822,-3.0448,-3.0673,-3.0828,-3.0625,-3.1173,-3.1606,-3.174,-3.1678,-3.1589,-3.138,-3.1366,-3.1424,-3.1511,-3.1511,-3.16,-3.1809,-3.1809,-3.1914,-3.2123,-3.2602,-3.2931,-3.3155,-3.4053,-3.4623,-3.4315,-3.4851,-3.5177,-3.5074,-3.598,-3.7029,-3.7509,-3.8334,-3.9117,-3.9462,-3.9957,-4.0514,-4.119,-4.1023,-4.0911,-4.1247,-4.1187,-4.0966,-4.0558,-4.114,-4.1586,-4.1586,-4.2186,-4.2586,-4.2586,-4.1986,-4.1586,-4.1586,-4.0889,-4.0489,-4.0489,-4.0489,-4.0489,-4.0489,-4.0489,-4.0489,-4.0489,-4.0489,-4.0489,-4.0489,-4.0489,-4.0489,-4.0489,-4.0489,-4.0489,-4.0489,-4.0489,-4.0489,-4.0489,-4.0489,-4.0489,-4.0413,-3.9751,-3.949,-3.9339,-3.8,-3.7507,-3.74,-3.6722,-3.6492,-3.6429,-3.61,-3.6005,-3.5957,-3.5587,-3.5504,-3.5504,-3.5504,-3.5504,-3.5504,-3.5504,-3.5504,-3.5504,-3.5504,-3.5504,-3.5504,-3.5504,-3.4966,-3.4309,-3.3634,-3.2961,-3.2273,-3.163,-3.138,-3.1307,-3.1278,-3.0703,-3.0266,-3.0113,-3.0168,-3.0443,-3.1054,-3.1594,-3.1729,-3.1226,-3.1694,-3.1735,-3.1132,-3.1087,-3.122,-3.1467,-3.1511,-3.1824,-3.2497,-3.2497,-3.2841,-3.3499,-3.3499,-3.3844,-3.4503,-3.4518,-3.4861,-3.5249,-3.569,-3.6094,-3.6642,-3.7288,-3.808,-3.9065,-3.9144,-3.9396,-4.0713,-4.1394,-4.1642,-4.1244,-4.1262,-4.1161,-4.0468,-4.0691,-4.0814,-4.0524,-4.0674,-4.0812,-4.0812,-4.0981,-4.1105,-4.1105,-4.092,-4.0812,-4.0812,-4.0612,-4.0489,-4.0489,-4.0489,-4.0489,-4.0489,-4.0489,-4.0489,-4.0489,-4.0489,-4.0259,-3.9782,-4.0259,-4.0489,-4.0489,-4.0489,-4.0489,-4.0489,-4.0489,-4.0489,-4.0489,-4.0489,-4.0213,-3.9767,-3.9567,-3.9198,-3.8708,-3.7831,-3.7507,-3.74,-3.6722,-3.6492,-3.6429,-3.61,-3.6005,-3.5957,-3.5587,-3.5504,-3.5504,-3.5504,-3.5504,-3.5504,-3.5504,-3.5504,-3.5504,-3.5504,-3.5504,-3.5504,-3.5504,-3.4966,-3.4444,-3.4249,-3.3275,-3.2452,-3.2228,-3.1707,-3.1161,-3.0807,-3.0418,-3.0134,-3.0039,-2.9767,-3.0049,-3.1325,-3.1367,-3.1385,-3.1539,-3.1156,-3.0785,-3.0631,-3.0221,-3.0343,-3.119,-3.1753,-3.2169,-3.2362,-3.2915,-3.3305,-3.3499,-3.3963,-3.4324,-3.4518,-3.4981,-3.531,-3.6103,-3.6554,-3.6887,-3.7392,-3.8379,-3.9559,-4.0646,-4.0561,-4.0557,-4.1754,-4.2138,-4.2093,-4.1422,-4.1385,-4.1215,-4.0442,-4.0588,-4.073,-4.0524,-4.0489,-4.0489,-4.0489,-4.0489,-4.0489,-4.0489,-4.0489,-4.0489,-4.0489,-4.0489,-4.0489,-4.0489,-4.0489,-4.0489,-4.0489,-4.0489,-4.0489,-4.0489,-4.0489,-4.029,-3.989,-4.0305,-4.0489,-4.0489,-4.0489,-4.0489,-4.0489,-4.0213,-4.009,-4.0074,-3.9797,-3.9493,-3.9093,-3.8831,-3.8477,-3.8031,-3.7353,-3.7092,-3.7046,-3.663,-3.6492,-3.6429,-3.61,-3.6005,-3.5957,-3.5587,-3.5504,-3.5504,-3.5504,-3.5504,-3.5504,-3.5504,-3.5504,-3.5504,-3.5504,-3.5439,-3.5359,-3.5359,-3.4999,-3.4594,-3.4422,-3.3673,-3.2943,-3.2497,-3.1797,-3.1142,-3.0719,-3.0145,-2.9743,-2.9803,-2.9509,-2.9849,-3.1325,-3.1441,-3.1311,-3.1178,-3.079,-3.0383,-2.9895,-2.976,-2.9992,-3.0717,-3.1537,-3.2267,-3.2907,-3.3555,-3.4023,-3.4292,-3.4696,-3.4891,-3.4906,-3.531,-3.5504,-3.6856,-3.7373,-3.7534,-3.7603,-3.9359,-4.1312,-4.2224,-4.2372,-4.2327,-4.2469,-4.2285,-4.198,-4.1621,-4.139,-4.1156,-4.0833,-4.0765,-4.0696,-4.0539,-4.0489,-4.0489,-4.0489,-4.0489,-4.0489,-4.0489,-4.0489,-4.0489,-4.0489,-4.0489,-4.0489,-4.0489,-4.0489,-4.0489,-4.0489,-4.0489,-4.0459,-4.0397,-4.0459,-4.0428,-4.032,-4.0428,-4.0428,-4.032,-4.0443,-4.0489,-4.0459,-3.9782,-3.949,-3.9428,-3.8785,-3.8477,-3.8354,-3.7738,-3.7461,-3.7338,-3.6722,-3.6492,-3.6492,-3.6492,-3.6492,-3.6429,-3.61,-3.6005,-3.591,-3.5587,-3.5504,-3.5504,-3.5504,-3.5504,-3.5504,-3.5504,-3.5504,-3.5472,-3.5472,-3.5326,-3.518,-3.5148,-3.5001,-3.4758,-3.43,-3.4088,-3.364,-3.2582,-3.1811,-3.124,-3.0878,-2.9846,-2.924,-2.9522,-2.942,-2.9827,-3.1117,-3.1516,-3.1303,-3.0368,-3.0508,-3.0237,-2.9173,-2.9531,-2.9898,-3.0252,-3.114,-3.2319,-3.3806,-3.4295,-3.4844,-3.5439,-3.5439,-3.5439,-3.5439,-3.5472,-3.5472,-3.7146,-3.7554,-3.7849,-3.8386,-4.0526,-4.2645,-4.3303,-4.3658,-4.3435,-4.2008,-4.1931,-4.1916,-4.1339,-4.1021,-4.0833,-4.0593,-4.0558,-4.0558,-4.0489,-4.0489,-4.0489,-4.0489,-4.0489,-4.0489,-4.0489,-4.0489,-4.0489,-4.0489,-4.0489,-4.0489,-4.0489,-4.0489,-4.0489,-4.0489,-4.0489,-4.0243,-3.9705,-4.0228,-3.9967,-3.8954,-3.9982,-3.9936,-3.8985,-4.0013,-4.0489,-4.0459,-3.9782,-3.949,-3.9428,-3.8785,-3.82,-3.7707,-3.7569,-3.7169,-3.6692,-3.6538,-3.6492,-3.6492,-3.6492,-3.6383,-3.6242,-3.6068,-3.5894,-3.5735,-3.5554,-3.5504,-3.5504,-3.5504,-3.5504,-3.5504,-3.5504,-3.5359,-3.5261,-3.5261,-3.5213,-3.5067,-3.461,-3.4606,-3.4673,-3.432,-3.401,-3.3648,-3.3226,-3.2392,-3.1419,-3.0357,-2.9266,-2.8904,-2.9846,-2.9598,-2.9755,-3.093,-3.0692,-3.0398,-3.0148,-2.9407,-2.9027,-2.9231,-2.8913,-2.9297,-3.0532,-3.1881,-3.2857,-3.3343,-3.4332,-3.4886,-3.5034,-3.5034,-3.5034,-3.5034,-3.518,-3.5261,-3.7435,-3.8017,-3.8876,-4.0499,-4.1974,-4.3296,-4.4239,-4.4579,-4.426,-4.2871,-4.2465,-4.2126,-4.1357,-4.1052,-4.0848,-4.0558,-4.0489,-4.0489,-4.0489,-4.0489,-4.0489,-4.0489,-4.0489,-4.0489,-4.0489,-4.0489,-4.0489,-4.0489,-4.0489,-4.0489,-4.0489,-4.0489,-4.0489,-4.0489,-4.0489,-4.032,-3.9967,-4.032,-4.0136,-3.9493,-4.0151,-4.012,-3.9459,-3.9844,-4.0197,-4.0443,-3.9428,-3.9031,-3.8921,-3.7954,-3.7338,-3.7015,-3.7015,-3.6799,-3.6492,-3.6492,-3.6492,-3.6492,-3.6383,-3.6274,-3.6164,-3.5926,-3.5799,-3.5655,-3.5554,-3.5504,-3.5504,-3.5504,-3.5504,-3.5504,-3.5504,-3.5359,-3.5148,-3.4839,-3.4721,-3.4553,-3.4158,-3.4051,-3.4045,-3.4056,-3.3777,-3.3442,-3.3221,-3.2196,-3.1041,-2.9942,-2.9434,-2.9444,-3.0022,-2.9876,-3.0019,-3.0895,-3.0725,-3.0424,-3.0113,-2.9575,-2.9235,-2.931,-2.9248,-2.9626,-3.0533,-3.173,-3.2549,-3.293,-3.3708,-3.407,-3.407,-3.407,-3.4187,-3.439,-3.4673,-3.4887,-3.7716,-3.8513,-3.9882,-4.2583,-4.3239,-4.3586,-4.493,-4.514,-4.4824,-4.41,-4.3306,-4.2443,-4.1507,-4.1205,-4.1,-4.0574,-4.0489,-4.0489,-4.0489,-4.0489,-4.0489,-4.0489,-4.0489,-4.0489,-4.0489,-4.0489,-4.0443,-4.0336,-4.032,-4.0274,-4.0151,-4.0259,-4.032,-4.032,-4.0428,-4.0443,-4.032,-4.0428,-4.0428,-4.032,-4.0197,-4.0213,-4.029,-3.949,-3.9567,-4.0259,-3.9013,-3.8446,-3.8246,-3.6999,-3.6492,-3.6492,-3.6492,-3.6492,-3.6492,-3.6492,-3.6492,-3.646,-3.6274,-3.6164,-3.6101,-3.5816,-3.5688,-3.5638,-3.5522,-3.5504,-3.5504,-3.5504,-3.5504,-3.5504,-3.5504,-3.5326,-3.5001,-3.4394,-3.4085,-3.3839,-3.3541,-3.3325,-3.322,-3.3471,-3.3276,-3.2996,-3.2746,-3.1713,-3.0641,-2.9891,-2.9961,-3.014,-3.0231,-3.0153,-3.0309,-3.0934,-3.0895,-3.0647,-3.014,-3.0009,-2.9823,-2.9444,-2.9826,-3.0213,-3.0487,-3.1266,-3.1909,-3.2417,-3.2889,-3.3122,-3.3122,-3.3122,-3.3297,-3.3659,-3.4056,-3.4409,-3.8016,-3.8663,-4.0028,-4.2782,-4.3377,-4.3652,-4.5035,-4.5274,-4.5069,-4.4652,-4.3869,-4.2863,-4.1689,-4.1358,-4.1088,-4.0593,-4.0489,-4.0489,-4.0489,-4.0489,-4.0489,-4.0489,-4.0489,-4.0489,-4.0489,-4.0489,-4.0259,-3.9659,-3.9613,-3.94,-3.8816,-3.9339,-3.9613,-3.9613,-4.0197,-4.0213,-3.9628,-4.0197,-4.0197,-3.9613,-3.9029,-3.9059,-3.9582,-3.8354,-3.8462,-3.9582,-3.8846,-3.8185,-3.7569,-3.6799,-3.6492,-3.6492,-3.6492,-3.6492,-3.6492,-3.6492,-3.6492,-3.646,-3.6274,-3.6116,-3.6005,-3.5752,-3.5621,-3.5522,-3.5504,-3.5504,-3.5504,-3.5504,-3.5504,-3.5504,-3.5504,-3.5213,-3.4787,-3.4254,-3.3638,-3.3009,-3.2448,-3.2426,-3.2475,-3.234,-3.2304,-3.2182,-3.1983,-3.1412,-3.0955,-3.0802,-3.0398,-3.0283,-3.0803,-3.0438,-3.0309,-3.0934,-3.0542,-3.0179,-3.0113,-2.968,-2.9575,-2.9957,-3.0061,-3.0359,-3.0893,-3.1046,-3.1123,-3.1235,-3.2237,-3.2761,-3.2761,-3.2761,-3.2868,-3.3129,-3.3624,-3.3982,-3.9078,-3.9929,-4.1034,-4.3133,-4.3916,-4.4414,-4.5217,-4.5371,-4.5247,-4.5042,-4.4597,-4.3823,-4.2474,-4.1981,-4.1555,-4.0935,-4.073,-4.0627,-4.0524,-4.0489,-4.0489,-4.0489,-4.0489,-4.0489,-4.0489,-4.0489,-4.0213,-3.9536,-3.949,-3.9198,-3.8554,-3.8785,-3.9123,-3.9474,-3.9782,-3.9967,-4.0043,-4.0336,-4.0151,-3.9474,-3.8831,-3.8662,-3.8923,-3.7938,-3.8031,-3.8908,-3.8231,-3.7769,-3.7446,-3.6769,-3.6492,-3.6492,-3.6492,-3.6492,-3.6492,-3.6492,-3.6492,-3.646,-3.6195,-3.6068,-3.5941,-3.5701,-3.5554,-3.5504,-3.5504,-3.5504,-3.5504,-3.5504,-3.5504,-3.5504,-3.5504,-3.518,-3.4687,-3.3796,-3.3206,-3.2583,-3.1676,-3.174,-3.1936,-3.185,-3.1873,-3.1823,-3.1556,-3.1235,-3.0986,-3.0986,-3.0764,-3.0699,-3.096,-3.0764,-3.0712,-3.096,-3.0764,-3.0607,-3.0607,-3.0385,-3.0346,-3.0594,-3.0607,-3.0725,-3.0973,-3.0986,-3.0986,-3.0986,-3.1482,-3.174,-3.174,-3.174,-3.1909,-3.2237,-3.2662,-3.3136,-3.9689,-4.0655,-4.152,-4.3244,-4.4056,-4.4638,-4.5432,-4.5407,-4.5269,-4.5354,-4.5203,-4.4725,-4.3453,-4.2787,-4.2142,-4.1341,-4.1055,-4.0833,-4.0524,-4.0489,-4.0489,-4.0489,-4.0489,-4.0489,-4.0489,-4.0489,-4.0136,-3.929,-3.9228,-3.8893,-3.8046,-3.8154,-3.8492,-3.8985,-3.9136,-3.9474,-3.9982,-3.9982,-3.9721,-3.9262,-3.8585,-3.8262,-3.8231,-3.7554,-3.7523,-3.7984,-3.7646,-3.74,-3.7215,-3.6707,-3.6492,-3.6492,-3.6492,-3.6492,-3.6492,-3.6492,-3.646,-3.6383,-3.61,-3.5973,-3.5878,-3.5587,-3.5504,-3.5504,-3.5504,-3.5504,-3.5504,-3.5504,-3.5504,-3.5504,-3.5504,-3.518,-3.4639,-3.361,-3.3066,-3.2453,-3.1272,-3.1261,-3.1447,-3.1447,-3.1545,-3.1519,-3.1272,-3.1099,-3.0986,-3.0986,-3.0986,-3.0986,-3.0986,-3.0986,-3.0986,-3.0986,-3.0986,-3.0986,-3.0986,-3.0986,-3.0986,-3.0986,-3.0986,-3.0986,-3.0986,-3.0986,-3.0986,-3.0986,-3.0986,-3.0986,-3.0986,-3.0986,-3.1161,-3.1519,-3.1859,-3.239,-3.9223,-4.0002,-4.0848,-4.2837,-4.3261,-4.3694,-4.5719,-4.546,-4.4998,-4.5629,-4.5555,-4.5186,-4.453,-4.3752,-4.2863,-4.1689,-4.1358,-4.1088,-4.0558,-4.0489,-4.0489,-4.0489,-4.0489,-4.0489,-4.0489,-4.0489,-3.9951,-3.8662,-3.8554,-3.7984,-3.6661,-3.7215,-3.7569,-3.76,-3.8231,-3.8585,-3.8616,-3.8616,-3.86,-3.8554,-3.7877,-3.7554,-3.7523,-3.6861,-3.6569,-3.663,-3.723,-3.7138,-3.6538,-3.6507,-3.6492,-3.6492,-3.6492,-3.6492,-3.6492,-3.6492,-3.6383,-3.6196,-3.6068,-3.5863,-3.5688,-3.5554,-3.5504,-3.5504,-3.5504,-3.5504,-3.5504,-3.5504,-3.5504,-3.5504,-3.5504,-3.518,-3.4721,-3.3934,-3.3346,-3.2632,-3.1272,-3.1024,-3.1024,-3.1024,-3.1024,-3.1061,-3.1024,-3.1024,-3.0986,-3.0986,-3.0986,-3.0986,-3.0986,-3.0986,-3.0986,-3.0986,-3.0986,-3.0986,-3.0986,-3.0986,-3.0986,-3.0986,-3.0986,-3.0986,-3.0986,-3.0986,-3.0986,-3.0986,-3.0986,-3.0986,-3.0986,-3.0986,-3.1099,-3.131,-3.1666,-3.2055,-3.8724,-3.9838,-4.0925,-4.195,-4.2889,-4.3814,-4.4862,-4.5181,-4.5388,-4.5954,-4.5912,-4.558,-4.4934,-4.4174,-4.329,-4.2364,-4.19,-4.1521,-4.0969,-4.0765,-4.0627,-4.0524,-4.0489,-4.0489,-4.0489,-4.0489,-4.0105,-3.9198,-3.8754,-3.8108,-3.7184,-3.6953,-3.7246,-3.8123,-3.8385,-3.8723,-3.9154,-3.8723,-3.8292,-3.7861,-3.7615,-3.7277,-3.6846,-3.6599,-3.6492,-3.6507,-3.6738,-3.6722,-3.6492,-3.6492,-3.6492,-3.6492,-3.6492,-3.6492,-3.6492,-3.6352,-3.6274,-3.6164,-3.5894,-3.5752,-3.5688,-3.5554,-3.5504,-3.5504,-3.5504,-3.5504,-3.5504,-3.5504,-3.5504,-3.5504,-3.5504,-3.5294,-3.4868,-3.4002,-3.3087,-3.2245,-3.1666,-3.1235,-3.0986,-3.0986,-3.0986,-3.0986,-3.0986,-3.0986,-3.0986,-3.0986,-3.0986,-3.0986,-3.0986,-3.0986,-3.0986,-3.0986,-3.0986,-3.0986,-3.0986,-3.0986,-3.0986,-3.0986,-3.0986,-3.0986,-3.0986,-3.0986,-3.0986,-3.0986,-3.0986,-3.0986,-3.0986,-3.0986,-3.1061,-3.1099,-3.1235,-3.1482,-3.8414,-3.9582,-4.064,-4.1179,-4.203,-4.3089,-4.4465,-4.4632,-4.4863,-4.6165,-4.6048,-4.5616,-4.5258,-4.4652,-4.3927,-4.3047,-4.257,-4.2061,-4.1341,-4.1088,-4.0851,-4.0524,-4.0489,-4.0489,-4.0489,-4.0489,-4.0213,-3.9536,-3.9108,-3.8446,-3.7554,-3.7292,-3.7584,-3.8477,-3.8292,-3.8385,-3.8831,-3.8169,-3.7615,-3.7153,-3.7153,-3.6923,-3.6492,-3.6492,-3.6492,-3.6492,-3.6492,-3.6492,-3.6492,-3.6492,-3.6492,-3.6492,-3.6492,-3.6492,-3.6492,-3.6274,-3.6179,-3.6085,-3.5816,-3.5671,-3.5621,-3.5522,-3.5504,-3.5504,-3.5504,-3.5504,-3.5504,-3.5504,-3.5504,-3.5504,-3.5504,-3.5294,-3.4902,-3.4085,-3.3157,-3.2426,-3.2055,-3.1482,-3.0986,-3.0986,-3.0986,-3.0986,-3.0986,-3.0986,-3.0986,-3.0986,-3.0986,-3.0986,-3.0986,-3.0986,-3.0986,-3.0986,-3.0986,-3.0986,-3.0986,-3.0986,-3.0986,-3.0986,-3.0986,-3.0986,-3.0986,-3.0986,-3.0986,-3.0986,-3.0986,-3.0986,-3.0986,-3.0986,-3.0986,-3.0986,-3.0986,-3.1235,0.0,0.0,0.0,-4.0554,-4.065,-4.1379,-4.4476,-4.3828,-4.3391,-4.6257,-4.6005,-4.5332,-4.5588,-4.5283,-4.4697,-4.3689,-4.3292,-4.2741,-4.1689,-4.1392,-4.1122,-4.0593,-4.0524,-4.0489,-4.0489,-4.0489,-4.0213,-3.9567,-3.949,-3.8921,-3.7631,-3.8169,-3.8508,-3.8508,-3.7861,-3.7507,-3.7507,-3.683,-3.6492,-3.6492,-3.6492,-3.6492,-3.6492,-3.6492,-3.6492,-3.6492,-3.6492,-3.6492,-3.6492,-3.6492,-3.6492,-3.6492,-3.6492,-3.6492,-3.6492,-3.6274,-3.6116,-3.5973,-3.5767,-3.5621,-3.5504,-3.5504,-3.5504,-3.5504,-3.5504,-3.5504,-3.5504,-3.5504,-3.5504,-3.5504,-3.5504,-3.5213,-3.4787,-3.4264,-3.3736,-3.3164,-3.2561,-3.1703,-3.1024,-3.1024,-3.0986,-3.0986,-3.0986,-3.0986,-3.0986,-3.0986,-3.0986,-3.0986,-3.0986,-3.0986,-3.0986,-3.0986,-3.0986,-3.0986,-3.0986,-3.0986,-3.0986,-3.0986,-3.0986,-3.0986,-3.0986,-3.0986,-3.0986,-3.0986,-3.0986,-3.0986,-3.0986,-3.0986,-3.0986,-3.0986,-3.0986,-3.1272,-3.7713,0.0,0.0,0.0,0.0,0.0,-4.1933,-4.316,-4.4321,-4.5436,-4.6227,-4.6522,-4.5933,-4.5692,-4.5319,-4.4558,-4.3802,-4.3082,-4.238,-4.198,-4.1521,-4.1003,-4.0799,-4.0662,-4.0524,-4.0489,-4.0413,-4.0228,-3.9767,-3.9354,-3.8985,-3.8677,-3.8508,-3.8508,-3.7861,-3.7507,-3.7507,-3.683,-3.6492,-3.6492,-3.6492,-3.6492,-3.6492,-3.6492,-3.6492,-3.6492,-3.6492,-3.6492,-3.6492,-3.6492,-3.6492,-3.6492,-3.6492,-3.6492,-3.646,-3.6163,-3.6037,-3.5941,-3.5668,-3.5522,-3.5504,-3.5504,-3.5504,-3.5504,-3.5504,-3.5504,-3.5504,-3.5504,-3.5504,-3.5504,-3.5504,-3.5439,-3.5261,-3.4983,-3.4457,-3.3919,-3.352,-3.2555,-3.1676,-3.131,-3.1099,-3.0986,-3.0986,-3.0986,-3.0986,-3.0986,-3.0986,-3.0986,-3.0986,-3.0986,-3.0986,-3.0986,-3.0986,-3.0986,-3.0986,-3.0986,-3.0986,-3.0986,-3.0986,-3.0986,-3.0986,-3.0986,-3.0986,-3.0986,-3.0986,-3.0986,-3.0986,-3.0986,-3.0986,-3.0986,-3.0986,-3.1099,-3.841,-3.9093,-3.9701,-3.9701,0.0,0.0,-4.135,-4.2092,-4.3012,-4.4539,-4.5154,-4.5373,-4.537,-4.5418,-4.5169,-4.4327,-4.4041,-4.371,-4.3064,-4.2633,-4.2109,-4.1374,-4.1107,-4.0851,-4.0524,-4.0489,-4.0489,-4.0489,-4.0136,-3.9782,-3.949,-3.8877,-3.8508,-3.8508,-3.7861,-3.7507,-3.7507,-3.683,-3.6492,-3.6492,-3.6492,-3.6492,-3.6492,-3.6492,-3.6492,-3.6492,-3.6492,-3.6492,-3.6492,-3.6492,-3.6492,-3.6492,-3.6492,-3.6492,-3.646,-3.6132,-3.6005,-3.5941,-3.5634,-3.5504,-3.5504,-3.5504,-3.5504,-3.5504,-3.5504,-3.5504,-3.5504,-3.5504,-3.5504,-3.5504,-3.5504,-3.5504,-3.5439,-3.5261,-3.4887,-3.4442,-3.4016,-3.3101,-3.2173,-3.1629,-3.1235,-3.0986,-3.0986,-3.0986,-3.0986,-3.0986,-3.0986,-3.0986,-3.0986,-3.0986,-3.0986,-3.0986,-3.0986,-3.0986,-3.0986,-3.0986,-3.0986,-3.0986,-3.0986,-3.0986,-3.0986,-3.0986,-3.0986,-3.0986,-3.0986,-3.0986,-3.0986,-3.0986,-3.0986,-3.0986,-3.0986,-3.0986,-3.9845,-4.0561,-4.1095,-4.1095,-4.0506,0.0,-4.1717,-4.0899,-4.0672,-4.3579,-4.3411,-4.3158,-4.4428,-4.4777,-4.4523,-4.3513,-4.4009,-4.4304,-4.3573,-4.3273,-4.2772,-4.1754,-4.1458,-4.1156,-4.0627,-4.0558,-4.0524,-4.0489,-4.0489,-4.0228,-3.9628,-3.8908,-3.8508,-3.8508,-3.7784,-3.7384,-3.7384,-3.6799,-3.6492,-3.6492,-3.6492,-3.6492,-3.6492,-3.6492,-3.6492,-3.6492,-3.6492,-3.6492,-3.6492,-3.6492,-3.6492,-3.6492,-3.6492,-3.6492,-3.646,-3.6132,-3.6005,-3.5941,-3.5634,-3.5504,-3.5504,-3.5504,-3.5504,-3.5504,-3.5504,-3.5504,-3.5504,-3.5504,-3.5504,-3.5504,-3.5504,-3.5504,-3.5439,-3.5294,-3.5115,-3.4835,-3.4298,-3.3444,-3.2596,-3.2019,-3.1421,-3.0986,-3.0986,-3.0986,-3.0986,-3.0986,-3.0986,-3.0986,-3.0986,-3.0986,-3.0986,-3.0986,-3.0986,-3.0986,-3.0986,-3.0986,-3.0986,-3.0986,-3.0986,-3.0986,-3.0986,-3.0986,-3.0986,-3.0986,-3.0986,-3.0986,-3.0986,-3.0986,-3.0986,-3.0986,-3.0986,-3.0986,-4.082,-4.0967,-4.1095,-4.1095,-4.0506,0.0,-4.0286,-4.0618,-4.1172,-4.2455,-4.2975,-4.3578,-4.4865,-4.4471,-4.3867,-4.3593,-4.36,-4.3546,-4.3289,-4.3289,-4.3113,-4.2443,-4.2013,-4.1554,-4.1037,-4.0833,-4.0662,-4.0524,-4.0489,-4.0428,-4.0305,-3.9136,-3.8508,-3.8508,-3.7323,-3.6692,-3.6692,-3.6553,-3.6492,-3.6492,-3.6492,-3.6492,-3.6492,-3.6492,-3.6492,-3.6492,-3.6492,-3.6492,-3.6492,-3.6492,-3.6492,-3.6492,-3.6492,-3.6492,-3.646,-3.6132,-3.6005,-3.5941,-3.5634,-3.5504,-3.5504,-3.5504,-3.5504,-3.5504,-3.5504,-3.5504,-3.5504,-3.5504,-3.5504,-3.5504,-3.5504,-3.5504,-3.5504,-3.5439,-3.5407,-3.5261,-3.4835,-3.3865,-3.2995,-3.2583,-3.1703,-3.0986,-3.0986,-3.0986,-3.0986,-3.0986,-3.0986,-3.0986,-3.0986,-3.0986,-3.0986,-3.0986,-3.0986,-3.0986,-3.0986,-3.0986,-3.0986,-3.0986,-3.0986,-3.0986,-3.0986,-3.0986,-3.0986,-3.0986,-3.0986,-3.0986,-3.0986,-3.0986,-3.0986,-3.0986,-3.0986,-3.0986,-4.1589,-4.1992,-4.2194,-4.1809,-4.1093,0.0,0.0,-3.99,-4.0139,-4.0946,-4.1322,-4.1808,-4.2814,-4.2787,-4.2434,-4.1856,-4.2472,-4.2801,-4.2185,-4.284,-4.3311,-4.3075,-4.271,-4.2174,-4.1358,-4.1453,-4.1414,-4.1063,-4.0689,-4.0336,-4.0013,-3.9062,-3.8354,-3.8015,-3.7015,-3.6492,-3.6492,-3.6492,-3.6492,-3.6492,-3.6492,-3.6492,-3.6492,-3.6492,-3.6492,-3.6492,-3.6492,-3.6492,-3.6492,-3.6492,-3.6492,-3.6492,-3.6492,-3.6445,-3.632,-3.61,-3.5941,-3.5799,-3.5587,-3.5504,-3.5504,-3.5504,-3.5504,-3.5504,-3.5504,-3.5504,-3.5504,-3.5504,-3.5504,-3.5504,-3.5504,-3.5504,-3.5504,-3.5504,-3.5504,-3.5392,-3.5001,-3.4002,-3.3087,-3.2761,-3.1776,-3.0986,-3.0986,-3.0986,-3.0986,-3.0986,-3.0986,-3.0986,-3.0986,-3.0986,-3.0986,-3.0986,-3.0986,-3.0986,-3.0986,-3.0986,-3.0986,-3.0986,-3.0986,-3.0986,-3.0986,-3.0986,-3.0986,-3.0986,-3.0986,-3.0986,-3.0986,-3.0986,-3.0986,-3.0986,-3.0986,-3.0986,-4.2359,-4.3002,-4.3296,-4.2506,-4.1699,-4.0875,0.0,0.0,0.0,-3.9717,-3.969,-3.9774,-4.0694,-4.1016,-4.0906,-4.0121,-4.12,-4.1898,-4.1146,-4.2166,-4.301,-4.3202,-4.3039,-4.2595,-4.1771,-4.1929,-4.1788,-4.1102,-4.0586,-4.0059,-3.9521,-3.9,-3.8446,-3.7908,-3.7107,-3.6676,-3.6676,-3.6553,-3.6492,-3.6492,-3.6492,-3.6492,-3.6492,-3.6492,-3.6492,-3.6492,-3.6492,-3.6492,-3.6492,-3.6492,-3.6492,-3.6445,-3.6445,-3.6352,-3.6179,-3.6005,-3.5831,-3.5688,-3.5554,-3.5504,-3.5504,-3.5504,-3.5504,-3.5504,-3.5504,-3.5504,-3.5504,-3.5504,-3.5504,-3.5504,-3.5504,-3.5504,-3.5504,-3.5504,-3.5504,-3.5392,-3.5001,-3.4002,-3.3087,-3.2761,-3.1776,-3.0986,-3.0986,-3.0986,-3.0986,-3.0986,-3.0986,-3.0986,-3.0986,-3.0986,-3.0986,-3.0986,-3.0986,-3.0986,-3.0986,-3.0986,-3.0986,-3.0986,-3.0986,-3.0986,-3.0986,-3.0986,-3.0986,-3.0986,-3.0986,-3.0986,-3.0986,-3.0986,-3.0986,-3.0986,-3.0986,-3.0986,-4.3332,-4.3441,-4.3296,-4.2506,-4.1699,-4.0875,-4.0084,0.0,-3.8927,-3.9717,0.0,-3.9263,-4.0804,0.0,0.0,-4.0311,-4.0417,-4.0637,-4.1106,-4.1285,-4.1562,-4.2105,-4.2261,-4.2316,-4.2379,-4.1702,-4.0663,-3.9216,-3.9421,-3.9567,-3.949,-3.9447,-3.9336,-3.9293,-3.8061,-3.7384,-3.7384,-3.6799,-3.6492,-3.6492,-3.6492,-3.6492,-3.6492,-3.6492,-3.6492,-3.6492,-3.6492,-3.6492,-3.6492,-3.6492,-3.6383,-3.6242,-3.6242,-3.6211,-3.6164,-3.5847,-3.572,-3.5688,-3.5554,-3.5504,-3.5504,-3.5504,-3.5504,-3.5504,-3.5504,-3.5504,-3.5504,-3.5504,-3.5504,-3.5504,-3.5504,-3.5504,-3.5504,-3.5504,-3.5504,-3.5392,-3.5001,-3.4002,-3.3087,-3.2761,-3.1776,-3.0986,-3.0986,-3.0986,-3.0986,-3.0986,-3.0986,-3.0986,-3.0986,-3.0986,-3.0986,-3.0986,-3.0986,-3.0986,-3.0986,-3.0986,-3.0986,-3.0986,-3.0986,-3.0986,-3.0986,-3.0986,-3.0986,-3.0986,-3.0986,-3.0986,-3.0986,-3.0986,-3.0986,-3.0986,-3.0986,-3.0986,-4.3369,-4.3515,-4.3185,-4.1919,-4.1352,-4.0765,-3.9496,-3.8946,-3.8927,-3.9717,0.0,0.0,0.0,0.0,0.0,0.0,-3.9769,-3.9657,-3.9737,-3.988,-4.0574,-4.2104,-4.2259,-4.2223,-4.2148,-4.0944,-4.0176,-4.0181,-3.9415,-3.9244,-4.0028,-3.9705,-3.949,-3.949,-3.82,-3.7507,-3.7507,-3.683,-3.6492,-3.6492,-3.6492,-3.6492,-3.6492,-3.6492,-3.6492,-3.6492,-3.6492,-3.6492,-3.6492,-3.6383,-3.6274,-3.6164,-3.5975,-3.5911,-3.5879,-3.5752,-3.5638,-3.5572,-3.5537,-3.5504,-3.5504,-3.5504,-3.5504,-3.5504,-3.5504,-3.5504,-3.5504,-3.5504,-3.5504,-3.5504,-3.5504,-3.5504,-3.5472,-3.5359,-3.5326,-3.5148,-3.4568,-3.3707,-3.2938,-3.2453,-3.1629,-3.0986,-3.0986,-3.0986,-3.0986,-3.0986,-3.0986,-3.0986,-3.0986,-3.0986,-3.0986,-3.0986,-3.0986,-3.0986,-3.0986,-3.0986,-3.0986,-3.0986,-3.0986,-3.0986,-3.0986,-3.0986,-3.0986,-3.0986,-3.0986,-3.0986,-3.0986,-3.0986,-3.0986,-3.0986,-3.0986,-3.0986,-4.3332,-4.3515,-4.3112,-4.1515,-4.1095,-4.0673,-3.9074,-3.8872,-3.9258,-4.0065,-4.0396,0.0,0.0,0.0,-4.0319,-3.976,0.0,-3.9246,-3.8886,-3.897,-3.9664,-4.1228,-4.1696,-4.191,-4.2006,-4.0757,-4.0151,-4.0697,-3.9515,-3.9216,-4.0166,-3.992,-3.9767,-3.9767,-3.8662,-3.8061,-3.8061,-3.72,-3.6769,-3.6769,-3.6584,-3.6492,-3.6492,-3.6492,-3.6492,-3.6492,-3.6492,-3.6492,-3.6492,-3.6274,-3.6179,-3.6116,-3.5816,-3.5688,-3.5638,-3.5638,-3.5572,-3.5504,-3.5504,-3.5504,-3.5504,-3.5504,-3.5504,-3.5504,-3.5504,-3.5504,-3.5504,-3.5504,-3.5504,-3.5504,-3.5504,-3.5504,-3.5439,-3.5261,-3.5067,-3.4787,-3.4133,-3.336,-3.2618,-3.2128,-3.1482,-3.0986,-3.0986,-3.0986,-3.0986,-3.0986,-3.0986,-3.0986,-3.0986,-3.0986,-3.0986,-3.0986,-3.0986,-3.0986,-3.0986,-3.0986,-3.0986,-3.0986,-3.0986,-3.0986,-3.0986,-3.0986,-3.0986,-3.0986,-3.0986,-3.0986,-3.0986,-3.0986,-3.0986,-3.0986,-3.0986,-3.0986,-4.3496,-4.3515,-4.3112,-4.1515,-4.1095,-4.0673,-3.9074,-3.9294,-4.0084,-4.0893,-4.168,-4.2231,-4.2268,-4.2249,-4.1717,-4.0139,-3.9839,0.0,0.0,-3.8977,-3.8787,-3.873,-3.9926,-4.115,-4.2195,-4.1484,-4.0561,-3.9613,-3.952,-3.9474,-3.9521,-4.012,-4.0459,-4.0459,-3.9782,-3.9428,-3.9428,-3.8138,-3.7461,-3.7461,-3.6799,-3.6492,-3.6492,-3.6492,-3.6492,-3.6492,-3.6492,-3.6492,-3.6492,-3.6274,-3.6116,-3.6005,-3.5784,-3.5621,-3.5504,-3.5504,-3.5504,-3.5504,-3.5504,-3.5504,-3.5504,-3.5504,-3.5504,-3.5504,-3.5504,-3.5504,-3.5504,-3.5504,-3.5504,-3.5504,-3.5504,-3.5504,-3.5439,-3.5261,-3.4758,-3.4245,-3.3885,-3.2932,-3.2064,-3.1836,-3.1384,-3.0986,-3.0986,-3.0986,-3.0986,-3.0986,-3.0986,-3.0986,-3.0986,-3.0986,-3.0986,-3.0986,-3.0986,-3.0986,-3.0986,-3.0986,-3.0986,-3.0986,-3.0986,-3.0986,-3.0986,-3.0986,-3.0986,-3.0986,-3.0986,-3.0986,-3.0986,-3.0986,-3.0986,-3.0986,-3.0986,-3.0986,-4.3286,-4.3286,-4.303,-4.1952,-4.1696,-4.1422,-4.0392,-4.037,-4.0826,-4.1701,-4.2121,-4.2451,-4.3002,-4.2653,-4.2121,-4.157,-4.0535,-3.9707,0.0,-3.8366,-3.7817,-3.8572,-3.9197,-3.984,-4.05,-3.974,-3.9569,-4.045,-3.9479,-3.9247,-4.0105,-4.0366,-4.0489,-4.0489,-3.9844,-3.949,-3.949,-3.8185,-3.7507,-3.7492,-3.6815,-3.6492,-3.6492,-3.6492,-3.6492,-3.6492,-3.6492,-3.6492,-3.6492,-3.6195,-3.6037,-3.5973,-3.5668,-3.5554,-3.5504,-3.5504,-3.5504,-3.5504,-3.5504,-3.5504,-3.5504,-3.5504,-3.5504,-3.5504,-3.5504,-3.5504,-3.5504,-3.5504,-3.5504,-3.5504,-3.5504,-3.5504,-3.5439,-3.5082,-3.4769,-3.4351,-3.3638,-3.2854,-3.2151,-3.1767,-3.1323,-3.0986,-3.0986,-3.0986,-3.0986,-3.0986,-3.0986,-3.0986,-3.0986,-3.0986,-3.0986,-3.0986,-3.0986,-3.0986,-3.0986,-3.0986,-3.0986,-3.0986,-3.0986,-3.0986,-3.0986,-3.0986,-3.0986,-3.0986,-3.0986,-3.0986,-3.0986,-3.0986,-3.0986,-3.0986,-3.0986,-3.0986,-4.2845,-4.2845,-4.2646,-4.185,-4.1705,-4.1651,-4.1248,-4.1225,-4.1639,-4.2894,-4.3149,-4.3314,-4.3828,-4.3736,-4.3387,0.0,0.0,0.0,0.0,-3.8863,-3.7927,-3.8317,-3.8288,-3.8619,0.0,-3.8936,-3.9059,-4.0587,-3.9673,-3.9473,-4.0531,-4.0524,-4.0489,-4.0489,-4.0074,-3.9844,-3.9844,-3.8539,-3.7861,-3.7846,-3.6923,-3.6492,-3.6492,-3.6492,-3.6492,-3.6492,-3.6492,-3.646,-3.6383,-3.61,-3.5973,-3.5878,-3.5619,-3.5504,-3.5504,-3.5504,-3.5504,-3.5504,-3.5504,-3.5504,-3.5504,-3.5504,-3.5504,-3.5504,-3.5504,-3.5504,-3.5504,-3.5504,-3.5504,-3.5504,-3.5504,-3.5504,-3.5439,-3.5082,-3.4769,-3.4351,-3.3638,-3.2854,-3.2151,-3.1767,-3.1323,-3.0986,-3.0986,-3.0986,-3.0986,-3.0986,-3.0986,-3.0986,-3.0986,-3.0986,-3.0986,-3.0986,-3.0986,-3.0986,-3.0986,-3.0986,-3.0986,-3.0986,-3.0986,-3.0986,-3.0986,-3.0986,-3.0986,-3.0986,-3.0986,-3.0986,-3.0986,-3.0986,-3.0986,-3.0986,-3.0986,-3.0986]},{"header":{"parameterUnit":"m.s-1","parameterCategory":1,"la1":30.6,"la2":29.2853,"lo1":-89.7004,"lo2":-87.6739,"dy":0.0162,"dx":0.0183,"nx":112,"ny":82,"refTime":"2026-05-18T12:00:00:Z","depth":0,"parameterNumber":3,"parameterNumberName":"V-component_of_WINDS"},"data":[0.0,0.0,0.0,0.0,0.0,0.0,0.0,0.0,0.0,0.0,0.0,0.0,0.0,0.0,0.0,0.0,0.0,0.0,0.0,0.0,0.0,0.0,0.0,0.0,0.0,0.0,0.0,0.0,0.0,0.0,0.0,0.0,0.0,0.0,0.0,0.0,0.0,0.0,0.0,0.0,0.0,0.0,0.0,0.0,0.0,0.0,0.0,0.0,0.0,0.0,0.0,0.0,0.0,0.0,0.0,0.0,0.0,0.0,0.0,0.0,0.0,0.0,0.0,0.0,0.0,0.0,0.0,0.0,0.0,0.0,0.0,0.0,0.0,0.0,0.0,0.0,0.0,0.0,0.0,0.0,0.0,0.0,0.0,0.0,0.0,0.0,0.0,0.0,0.0,0.0,0.8517,0.8117,0.7046,0.6048,0.5335,0.4643,0.4025,0.3522,0.0,0.0,0.0,0.0,0.0,0.0,0.0,0.0,0.0,0.0,0.0,0.0,0.0,0.0,0.0,0.0,0.0,0.0,0.0,0.0,0.0,0.0,0.0,0.0,0.0,0.0,0.0,0.0,0.0,0.0,0.0,0.0,0.0,0.0,0.0,0.0,0.0,0.0,0.0,0.0,0.0,0.0,0.0,0.0,0.0,0.0,0.0,0.0,0.0,0.0,0.0,0.0,0.0,0.0,0.0,0.0,0.0,0.0,0.0,0.0,0.0,0.0,0.0,0.0,0.0,0.0,0.0,0.0,0.0,0.0,0.0,0.0,0.0,0.0,0.0,0.0,0.0,0.0,0.0,0.0,0.0,0.0,0.0,0.0,0.0,0.0,0.0,0.0,0.0,0.0,0.0,0.0,0.0,0.0,0.0,0.0,0.0,0.0,0.0,0.0,0.0,0.0,0.0,0.0,0.92,0.9041,0.8199,0.7612,0.7459,0.6347,0.5527,0.515,0.0,0.0,0.0,0.0,0.0,0.0,0.0,0.0,0.0,0.0,0.0,0.0,0.0,0.0,0.0,0.0,0.0,0.0,0.0,0.0,0.0,0.0,0.0,0.0,0.0,0.0,0.0,0.0,0.0,0.0,0.0,0.0,0.0,0.0,0.0,0.0,0.0,0.0,0.0,0.0,0.0,0.0,0.0,0.0,0.0,0.0,0.0,0.0,0.0,0.0,0.0,0.0,0.0,0.0,0.0,0.0,0.0,0.0,0.0,0.0,0.0,0.0,0.0,0.0,0.0,0.0,0.0,0.0,0.0,0.0,0.0,0.0,0.0,0.0,0.0,0.0,0.0,0.0,0.0,0.0,0.0,0.0,0.0,0.0,0.0,0.0,0.0,0.0,0.0,0.0,0.0,0.0,0.0,0.0,0.0,0.0,0.0,0.0,0.0,0.0,0.0,0.0,0.0,0.9453,0.9473,0.9349,0.8827,0.8389,0.8343,0.7381,0.6669,0.63,0.461,0.0,0.0,0.0,0.0,0.0,0.0,0.0,0.0,0.0,0.0,0.0,0.0,0.0,0.0,0.0,0.0,0.0,0.0,0.0,0.0,0.0,0.0,0.0,0.0,0.0,0.0,0.0,0.0,0.0,0.0,0.0,0.0,0.0,0.0,0.0,0.0,0.0,0.0,0.0,0.0,0.0,0.0,0.0,0.0,0.0,0.0,0.0,0.0,0.0,0.0,0.0,0.0,0.0,0.0,0.0,0.0,0.0,0.0,0.0,0.0,0.0,0.0,0.0,0.0,0.0,0.0,0.0,0.0,0.0,0.0,0.0,0.0,0.0,0.0,0.0,0.0,0.0,0.0,0.0,0.0,0.0,0.0,0.0,0.0,0.0,0.0,0.0,0.0,0.0,0.0,0.0,0.0,0.0,0.0,0.0,0.0,0.0,0.0,0.0,0.0,0.0,0.0,0.9754,0.9702,0.9682,0.9249,0.898,0.8914,0.8304,0.7754,0.7328,0.6125,0.0,0.0,0.0,0.0,0.0,0.0,0.0,0.0,0.0,0.0,0.0,0.0,0.0,0.0,0.0,0.0,0.0,0.0,0.0,0.0,0.0,0.0,0.0,0.0,0.0,0.0,0.0,0.0,0.0,0.0,0.0,0.0,0.0,0.0,0.0,0.0,0.0,0.0,0.0,0.0,0.0,0.0,0.0,0.0,0.0,0.0,0.0,0.0,0.0,0.0,0.0,0.0,0.0,0.0,0.0,0.0,0.0,0.0,0.0,0.0,0.0,0.0,0.0,0.0,0.0,0.0,0.0,0.0,0.0,0.0,0.0,0.0,0.0,0.0,0.0,0.0,0.0,0.0,0.0,0.0,0.0,0.0,0.0,0.0,0.0,0.0,0.0,0.0,0.0,0.0,0.0,0.0,0.0,0.0,0.0,0.0,0.0,0.0,0.0,0.0,0.0,0.0,1.0175,1.0184,1.014,0.9781,0.9533,0.9545,0.9368,0.9024,0.8508,0.7476,0.0,0.0,0.0,0.0,0.0,0.0,0.0,0.0,0.0,0.0,0.0,0.0,0.0,0.0,0.0,0.0,0.0,0.0,0.0,0.0,0.0,0.0,0.0,0.0,0.0,0.0,0.0,0.0,0.0,0.0,0.0,0.0,0.0,0.0,0.0,0.0,0.0,0.0,0.0,0.0,0.0,0.0,0.0,0.0,0.0,0.0,0.0,0.0,0.0,0.0,0.0,0.0,0.0,0.0,0.0,0.0,0.0,0.0,0.0,0.0,0.0,0.0,0.0,0.0,0.0,0.0,0.0,0.0,0.0,0.0,0.0,0.0,0.0,0.0,0.0,0.0,0.0,0.0,0.0,0.0,0.0,0.0,0.0,0.0,0.0,0.0,0.0,0.0,0.0,0.0,0.0,0.0,0.0,0.0,0.0,0.0,0.0,0.0,0.0,0.0,0.0,0.0,1.0712,1.0586,1.0266,0.9879,0.9579,0.9579,0.9563,0.9284,0.8682,0.0,0.0,0.0,0.0,0.0,0.0,0.0,0.0,0.0,0.0,0.0,0.0,0.0,0.0,0.0,0.0,0.0,0.0,0.0,0.0,0.0,0.0,0.0,0.0,0.0,0.0,0.0,0.0,0.0,0.0,0.0,0.0,0.0,0.0,0.0,0.0,0.0,0.0,0.0,0.0,0.0,0.0,0.0,0.0,0.0,0.0,0.0,0.0,0.0,0.0,0.0,0.0,0.0,0.0,0.0,0.0,0.0,0.0,0.0,0.0,0.0,0.0,0.0,0.0,0.0,0.0,0.0,0.0,0.0,0.0,0.0,0.0,0.0,0.0,0.0,0.0,0.0,0.0,0.0,0.0,0.0,0.0,0.0,0.0,0.0,0.0,0.0,0.0,0.0,0.0,0.0,0.0,0.0,0.0,0.0,0.0,0.0,0.0,0.0,0.0,0.0,0.0,1.1472,1.1327,1.1068,1.048,0.9938,0.9604,0.9547,0.949,0.9232,0.8741,0.0,0.0,0.0,0.0,0.0,0.0,0.0,0.0,0.0,0.0,0.0,0.0,0.0,0.0,0.0,0.0,0.0,0.0,0.0,0.0,0.0,0.0,0.0,0.0,0.0,0.0,0.0,0.0,0.0,0.0,0.0,0.0,0.0,0.0,0.0,0.0,0.0,0.0,0.0,0.0,0.0,0.0,0.0,0.0,0.0,0.0,0.0,0.0,0.0,0.0,0.0,0.0,0.0,0.0,0.0,0.0,0.0,0.0,0.0,0.0,0.0,0.0,0.0,0.0,0.0,0.0,0.0,0.0,0.0,0.0,0.0,0.0,0.0,0.0,0.0,0.0,0.0,0.0,0.0,0.0,0.0,0.0,0.0,0.0,0.0,0.0,0.0,0.0,0.0,0.0,0.0,0.0,0.0,0.0,0.0,0.0,0.0,0.0,0.0,0.0,0.0,0.0,1.2233,1.2023,1.162,1.078,1.0083,0.9551,0.9416,0.9245,0.9019,0.0,0.0,0.0,0.0,0.0,0.0,0.0,0.0,0.0,0.0,0.0,0.0,0.0,0.0,0.0,0.0,0.0,0.0,0.0,0.0,0.0,0.0,0.0,0.0,0.0,0.0,0.0,0.0,0.0,0.0,0.0,0.0,0.0,0.0,0.0,0.0,0.0,0.0,0.0,0.0,0.0,0.0,0.0,0.0,0.0,0.0,0.0,0.0,0.0,0.0,0.0,0.0,0.0,0.0,0.0,0.0,0.0,0.0,0.0,0.0,0.0,0.0,0.0,0.0,0.0,0.0,0.0,0.0,0.0,0.0,0.0,0.0,0.0,0.0,0.0,0.0,0.0,0.0,0.0,0.0,0.0,0.0,0.0,0.0,0.0,0.0,0.0,0.0,0.0,0.0,0.0,0.0,0.0,0.0,0.0,0.0,0.0,0.0,0.0,0.0,0.0,0.0,0.0,1.312,1.2901,1.2464,1.1707,1.1084,1.0671,1.0462,1.0351,1.0132,0.9696,0.0,0.0,0.0,0.0,0.0,0.0,0.0,0.0,0.0,0.0,0.0,0.0,0.0,0.0,0.0,0.0,0.0,0.0,0.0,0.0,0.0,0.0,0.0,0.0,0.0,0.0,0.0,0.0,0.0,0.0,0.0,0.0,0.0,0.0,0.0,0.0,0.0,0.0,0.0,0.0,0.0,0.0,0.0,0.0,0.0,0.0,0.0,0.0,0.0,0.0,0.0,0.0,0.0,0.0,0.0,0.0,0.0,0.0,0.0,0.0,0.0,0.0,0.0,0.0,0.0,0.0,0.0,0.0,0.0,0.0,0.0,0.0,0.0,0.0,0.0,0.0,0.0,0.0,0.0,0.0,0.0,0.0,0.0,0.0,0.0,0.0,0.0,0.0,0.0,0.0,0.0,0.0,0.0,0.0,0.0,0.0,0.0,0.0,0.0,0.0,0.0,0.0,1.4118,1.3892,1.3451,1.2678,1.2111,1.1764,1.1624,1.1412,1.1025,1.0452,0.0,0.0,0.0,0.0,0.0,0.0,0.0,0.0,0.0,0.0,0.0,0.0,0.0,0.0,0.0,0.0,0.0,0.0,0.0,0.0,0.0,0.0,0.0,0.0,0.0,0.0,0.0,0.0,0.0,0.0,0.0,0.0,0.0,0.0,0.0,0.0,0.0,0.0,0.0,0.0,0.0,0.0,0.0,0.0,0.0,0.0,0.0,0.0,0.0,0.0,0.0,0.0,0.0,0.0,0.0,0.0,0.0,0.0,0.0,0.0,0.0,0.0,0.0,0.0,0.0,0.0,0.0,0.0,0.0,0.0,0.0,0.0,0.0,0.0,0.0,0.0,0.0,0.0,0.0,0.0,0.0,0.0,0.0,0.0,0.0,0.0,0.0,0.0,0.0,0.0,0.0,0.0,0.0,0.0,0.0,0.0,0.0,0.0,0.0,0.0,0.0,0.0,1.507,1.4905,1.446,1.3684,1.3167,1.2829,1.2829,1.2431,1.1874,1.1153,0.0,0.0,0.0,0.0,0.0,0.0,0.0,0.0,0.0,0.0,0.0,0.0,0.0,0.0,0.0,0.0,0.0,0.0,0.0,0.0,0.0,0.0,0.0,0.0,0.0,0.0,0.0,0.0,0.0,0.0,0.0,0.0,0.0,0.0,0.0,0.0,0.0,0.0,0.0,0.0,0.0,0.0,0.0,0.0,0.0,0.0,0.0,0.0,0.0,0.0,0.0,0.0,0.0,0.0,0.0,0.0,0.0,0.0,0.0,0.0,1.5026,1.513,0.0,0.0,0.0,0.0,0.0,0.0,0.0,0.0,0.0,0.0,0.0,0.0,0.0,0.0,0.0,0.0,0.0,0.0,0.0,0.0,0.0,0.0,0.0,0.0,0.0,0.0,0.0,0.0,0.0,0.0,0.0,0.0,0.0,0.0,0.0,0.0,0.0,0.0,0.0,0.0,1.5341,1.5175,1.4852,1.4496,1.4148,1.3956,1.3956,1.3484,1.2891,1.2132,1.1235,0.0,0.0,0.0,0.0,0.0,0.0,0.0,0.0,0.0,0.0,0.0,0.0,0.0,0.0,0.0,0.0,0.0,0.0,0.0,0.0,0.0,0.0,0.0,0.0,0.0,0.0,0.0,0.0,0.0,0.0,0.0,0.0,0.0,0.0,0.0,0.0,0.0,0.0,0.0,0.0,0.0,0.0,0.0,0.0,0.0,0.0,0.0,0.0,0.0,0.0,0.0,0.0,0.0,0.0,0.0,0.0,0.0,0.0,0.0,1.6025,1.5872,0.0,0.0,0.0,0.0,0.0,0.0,0.0,0.0,0.0,0.0,0.0,0.0,0.0,0.0,0.0,0.0,0.0,0.0,0.0,0.0,0.0,0.0,0.0,0.0,0.0,0.0,0.0,0.0,0.0,0.0,0.0,0.0,0.0,0.0,0.0,0.0,0.0,0.0,0.0,0.0,1.5705,1.5838,1.5784,1.5635,1.5493,1.5397,1.5397,1.4779,1.4053,1.3373,1.2189,0.0,0.0,0.0,0.0,0.0,0.0,0.0,0.0,0.0,0.0,0.0,0.0,0.0,0.0,0.0,0.0,0.0,0.0,0.0,0.0,0.0,0.0,0.0,0.0,0.0,0.0,0.0,0.0,0.0,0.0,0.0,0.0,0.0,0.0,0.0,0.0,0.0,0.0,0.0,0.0,0.0,0.0,0.0,0.0,0.0,0.0,0.0,0.0,0.0,0.0,0.0,0.0,0.0,1.8276,1.787,1.7456,1.6862,1.6763,1.7086,1.7032,1.6491,1.5671,1.6299,0.0,0.0,0.0,0.0,0.0,0.0,0.0,0.0,0.0,0.0,0.0,0.0,0.0,0.0,0.0,0.0,0.0,0.0,0.0,0.0,0.0,0.0,1.6716,1.6402,1.6154,1.5791,1.5156,0.0,0.0,0.0,0.0,0.0,0.0,0.0,0.0,0.0,0.0,0.0,1.6121,1.6447,1.6588,1.6588,1.6588,1.6588,1.6588,1.5835,1.5092,1.4435,1.3125,1.2183,0.0,0.0,0.0,0.0,0.0,0.0,0.0,0.0,0.0,0.0,0.0,0.0,0.0,0.0,0.0,0.0,0.0,0.0,0.0,0.0,0.0,0.0,0.0,0.0,0.0,0.0,0.0,0.0,0.0,0.0,0.0,0.0,1.8754,1.8524,0.0,0.0,0.0,0.0,0.0,0.0,0.0,0.0,0.0,0.0,0.0,0.0,0.0,1.8792,1.9539,2.013,2.0286,2.0055,1.9328,1.8973,1.8901,1.8152,1.8112,1.8702,1.8377,0.0,1.65,1.6106,0.0,0.0,0.0,0.0,0.0,0.0,0.0,0.0,0.0,0.0,0.0,0.0,0.0,0.0,0.0,0.0,0.0,0.0,0.0,0.0,0.0,0.0,1.7501,1.695,1.6941,1.6934,1.6293,1.6061,1.5861,1.5639,1.5555,1.5442,0.0,0.0,0.0,0.0,0.0,0.0,1.6451,1.6588,1.6588,1.6588,1.6588,1.6588,1.6588,1.6088,1.5465,1.484,1.4233,1.3511,1.2656,1.2301,0.0,0.0,0.0,0.0,0.0,0.0,0.0,0.0,0.0,0.0,0.0,0.0,0.0,0.0,0.0,0.0,0.0,0.0,0.0,0.0,0.0,0.0,0.0,0.0,0.0,0.0,0.0,0.0,0.0,1.9964,2.0509,2.0377,2.0465,2.0289,0.0,0.0,0.0,0.0,0.0,0.0,0.0,0.0,0.0,1.978,1.9945,2.0514,2.1627,2.2345,2.2699,2.2731,2.1845,2.1369,2.1242,2.0364,2.0241,2.0734,2.034,1.9918,1.9279,1.7703,1.7124,1.7172,0.0,0.0,0.0,0.0,1.7096,1.7193,1.7062,1.7112,1.7232,1.7093,0.0,0.0,0.0,0.0,0.0,0.0,0.0,1.759,1.7538,1.8079,1.8508,1.7926,1.7787,1.7678,1.7432,1.7301,1.7071,1.6478,1.6375,1.6332,1.6188,1.5583,0.0,0.0,0.0,1.6031,1.6753,1.6918,1.7005,1.7005,1.7005,1.7005,1.7005,1.6494,1.6067,1.5831,1.5108,1.4496,1.4126,1.3275,1.3044,0.0,0.0,0.0,0.0,0.0,0.0,0.0,0.0,0.0,0.0,0.0,0.0,0.0,0.0,0.0,0.0,0.0,0.0,0.0,0.0,0.0,0.0,0.0,0.0,0.0,0.0,0.0,0.0,2.1418,2.1932,2.1842,2.1842,2.1598,0.0,0.0,0.0,0.0,0.0,0.0,2.0165,2.0264,2.0523,2.0998,2.1346,2.2105,2.3279,2.4104,2.4563,2.4675,2.3791,2.3312,2.319,2.2376,2.2183,2.2505,2.2046,2.1852,2.1683,1.9522,1.8528,1.8425,1.8258,1.8294,1.8433,1.8345,1.8374,1.844,1.844,1.859,1.8733,1.8825,1.8728,1.8569,1.8652,0.0,0.0,0.0,0.0,1.8993,1.8961,1.9244,1.9418,1.8875,1.8488,1.8265,1.8272,1.8265,1.8095,1.7438,1.7348,1.7363,1.7274,1.6684,0.0,1.6882,1.675,1.6801,1.7375,1.7574,1.766,1.766,1.766,1.766,1.766,1.7252,1.6991,1.6956,1.6271,1.5757,1.5548,1.4572,1.4168,1.4442,0.0,0.0,0.0,0.0,0.0,0.0,0.0,0.0,0.0,0.0,0.0,0.0,0.0,0.0,0.0,0.0,0.0,0.0,0.0,0.0,0.0,0.0,0.0,0.0,0.0,0.0,0.0,0.0,0.0,2.23,2.2245,0.0,0.0,0.0,0.0,2.1412,2.1254,2.1375,2.2014,2.1842,2.1812,2.2093,2.2712,2.3226,2.3755,2.4811,2.5222,2.4945,2.4333,2.4094,2.4096,2.3566,2.3475,2.3789,2.3025,2.272,2.2638,2.0942,2.0443,2.0664,2.0098,2.0249,2.0688,2.0356,2.0443,2.0727,2.0727,2.0727,2.0778,2.1033,2.0769,2.0444,2.0875,2.044,0.0,0.0,2.08,2.0363,2.0706,2.046,2.0039,1.9575,1.9117,1.875,1.8773,1.8765,1.8703,1.8465,1.8565,1.8601,1.8269,0.0,1.7934,1.8161,1.8055,1.8082,1.8642,1.8735,1.8735,1.8735,1.8735,1.8735,1.8735,1.8473,1.8271,1.8229,1.7979,1.7501,1.6754,1.6454,1.5976,1.516,1.5284,0.0,0.0,0.0,0.0,0.0,0.0,0.0,0.0,0.0,0.0,0.0,0.0,0.0,0.0,0.0,0.0,0.0,0.0,0.0,0.0,0.0,0.0,0.0,0.0,0.0,0.0,0.0,0.0,2.2803,2.2926,0.0,2.2618,2.2151,2.2004,2.2386,2.2357,2.2519,2.3012,2.2943,2.3178,2.3859,2.4099,2.4539,2.5203,2.561,2.5885,2.6044,2.5548,2.5478,2.5738,2.5005,2.4872,2.519,2.4429,2.4093,2.404,2.3341,2.2389,2.1387,2.1185,2.1234,2.1395,2.1265,2.1298,2.1412,2.1412,2.1658,2.2013,2.2459,2.2418,2.2288,2.243,2.2194,2.1933,2.2058,2.1905,2.1662,2.1454,2.1275,2.1033,2.0583,2.0093,1.9774,1.9783,1.9783,1.982,2.0039,1.9894,1.9662,1.9529,1.9459,1.9459,1.9504,1.9459,1.9463,1.9687,1.9704,1.9704,1.9704,1.9704,1.9704,1.9704,1.9397,1.9261,1.9504,1.9018,1.8686,1.8751,1.7979,1.7527,1.7399,1.6321,1.5719,0.0,0.0,0.0,0.0,0.0,0.0,0.0,0.0,0.0,0.0,0.0,0.0,0.0,0.0,0.0,0.0,0.0,0.0,0.0,0.0,0.0,0.0,0.0,0.0,0.0,2.368,2.4079,2.376,2.373,2.3686,2.3418,2.326,2.3242,2.3333,2.3352,2.3518,2.3818,2.3966,2.4248,2.4766,2.5041,2.5479,2.6002,2.6149,2.637,2.6582,2.6307,2.6296,2.6362,2.5874,2.569,2.5773,2.5069,2.4826,2.4882,2.4607,2.3827,2.2778,2.2778,2.2778,2.2778,2.2778,2.2778,2.2778,2.2778,2.3079,2.3479,2.3877,2.3898,2.3884,2.3985,2.3784,2.3467,2.3335,2.3101,2.2783,2.2501,2.2279,2.2043,2.1579,2.1132,2.0781,2.0789,2.0781,2.0907,2.1401,2.1069,2.0709,2.0709,2.0709,2.0709,2.0709,2.0709,2.0709,2.0709,2.0709,2.0709,2.0709,2.0709,2.0648,2.0517,2.0272,2.014,2.0254,1.9825,1.9615,1.9832,1.9135,1.8721,1.8632,1.7225,1.6696,1.7179,0.0,0.0,0.0,0.0,0.0,0.0,0.0,0.0,0.0,0.0,0.0,0.0,0.0,0.0,0.0,0.0,0.0,0.0,0.0,0.0,0.0,0.0,0.0,2.4581,2.4686,2.4858,2.5114,2.4708,2.4392,2.4392,2.4013,2.3937,2.4355,2.4392,2.4418,2.4578,2.492,2.5061,2.4872,2.5617,2.6021,2.603,2.6389,2.6591,2.6591,2.6573,2.6407,2.6012,2.5984,2.5764,2.5378,2.4983,2.4891,2.5079,2.4687,2.4686,2.4932,2.4883,2.4883,2.4883,2.4883,2.4883,2.4883,2.4883,2.5088,2.5284,2.5294,2.5247,2.5166,2.5605,2.5079,2.4521,2.4932,2.4443,2.3789,2.3769,2.3457,2.296,2.252,2.2069,2.1704,2.1731,2.1713,2.1882,2.2299,2.2043,2.1741,2.1741,2.1741,2.1741,2.1741,2.1741,0.0,2.1741,2.1741,2.1741,2.1741,2.1722,2.1557,2.1188,2.1133,2.0906,2.0479,2.0442,2.0278,1.9962,1.9934,1.9549,1.8762,1.8036,1.8018,1.8735,0.0,0.0,0.0,0.0,0.0,0.0,0.0,0.0,0.0,0.0,0.0,0.0,0.0,0.0,0.0,0.0,0.0,0.0,0.0,0.0,0.0,2.5274,2.558,2.5313,2.5875,2.6275,2.6176,2.5999,2.5902,2.5902,2.5783,2.5763,2.5892,2.5902,2.5945,2.6152,2.5841,2.5873,2.6219,2.6104,2.6159,2.6408,2.6527,2.6591,2.6582,2.6495,2.6398,2.6259,2.5863,2.5577,2.5445,2.5042,2.4914,2.4935,2.5028,2.5137,2.5186,2.4981,2.4883,2.4883,2.4883,2.4883,2.4932,2.5137,2.5235,2.5333,2.5538,2.5557,2.5576,2.5654,2.5342,2.4844,2.4648,2.4209,2.3721,2.3398,2.3188,2.3047,2.275,2.2432,2.2211,2.222,2.2211,2.2299,2.2618,2.2706,2.2706,2.2706,2.2706,2.2706,2.2706,2.2706,2.2706,2.2706,2.2706,2.2706,2.2706,2.2428,2.2251,2.2126,2.156,2.125,2.1483,2.1163,2.1077,2.1329,2.1032,2.0426,1.9592,1.938,1.9226,0.0,0.0,0.0,0.0,0.0,0.0,0.0,0.0,0.0,0.0,0.0,0.0,0.0,0.0,0.0,0.0,0.0,0.0,0.0,0.0,0.0,0.0,2.6378,2.6764,2.6631,2.6875,2.7104,2.7201,2.6971,2.6873,2.7115,2.7135,2.7217,2.739,2.74,2.7435,2.7412,2.704,2.6914,2.7189,2.6808,2.6702,2.6954,2.7062,2.7171,2.7161,2.6952,2.6817,2.6636,2.5961,2.5603,2.5372,2.5036,2.503,2.5265,2.5421,2.5616,2.5771,0.0,0.0,0.0,0.0,2.5235,2.5235,2.543,2.5489,2.5489,2.5645,2.5693,2.5693,2.5693,2.5293,2.4746,2.4492,2.3984,2.3457,2.3159,2.3091,2.3057,2.2969,2.2794,2.2696,2.2696,2.2696,2.275,2.2882,2.2868,0.0,2.3062,2.3091,2.3091,2.3091,2.3091,2.3091,2.3091,2.2945,2.2838,2.2838,2.25,2.222,2.2075,2.1635,0.0,0.0,0.0,2.1154,2.1368,2.1084,0.0,0.0,0.0,0.0,0.0,0.0,0.0,0.0,1.9205,1.9414,0.0,0.0,0.0,0.0,0.0,0.0,0.0,0.0,0.0,0.0,0.0,0.0,0.0,0.0,0.0,0.0,2.7445,2.8012,2.8067,2.7723,2.7597,2.8038,2.771,2.7671,2.8098,2.8241,2.8429,2.8815,2.8846,2.8778,2.854,2.8359,0.0,0.0,0.0,2.7584,2.7638,2.795,2.8165,2.8155,2.794,2.7621,2.7196,2.6394,2.5827,2.543,2.5137,2.5265,2.5742,2.5829,2.6139,2.6534,2.5975,2.5732,2.5693,2.5693,2.5693,2.5693,2.5693,0.0,0.0,2.5693,2.5693,2.5674,2.5625,2.5078,2.4404,2.4365,2.376,2.3091,2.3091,2.3091,2.3091,2.3091,2.3091,2.3091,2.3091,2.3091,2.3091,2.3091,2.2803,2.2627,2.2955,2.3023,2.3042,2.3091,2.3091,2.3081,2.3033,2.2744,2.249,2.2441,2.207,0.0,2.154,2.1541,2.146,2.1264,2.1061,2.0858,2.0644,2.0644,2.0644,2.0683,2.0683,2.0683,2.0683,2.0858,2.0945,2.0964,2.0205,2.0054,0.0,0.0,0.0,0.0,0.0,0.0,0.0,0.0,0.0,0.0,0.0,0.0,0.0,0.0,0.0,2.7511,2.7871,2.8132,2.856,2.8569,2.8555,2.8642,2.8907,2.9094,2.9191,2.9548,2.9808,2.9905,2.9905,2.9979,3.0045,2.9646,2.9446,2.9547,2.9051,2.889,2.9102,2.9355,2.9608,2.9849,2.9467,0.0,2.8585,2.7465,2.6681,2.6255,2.5781,2.5723,2.6091,2.6675,2.6962,2.702,2.6284,2.5868,2.5693,2.5693,2.5693,2.5693,2.5693,2.5693,2.5693,2.5693,2.5693,2.5625,2.5303,2.4834,0.0,2.4004,2.3535,2.3091,2.3091,2.3091,2.3091,2.3091,2.3091,2.3091,2.3091,2.3091,2.3091,2.3091,2.2803,2.2539,2.2617,2.2637,2.2744,2.3042,2.3091,2.2974,2.2676,2.2568,2.2383,2.2041,2.1621,2.1359,2.1471,2.1663,2.165,2.1436,2.1244,2.1051,2.0858,2.0829,2.0935,2.1089,2.1089,2.1089,2.1089,2.1128,2.1244,2.1387,2.1394,2.1501,0.0,0.0,0.0,0.0,0.0,0.0,0.0,0.0,0.0,0.0,0.0,2.4825,2.6048,0.0,2.6922,2.7838,2.8244,2.8484,2.8771,2.8803,2.8803,2.8803,2.923,2.9576,2.9827,3.0275,3.0657,3.0898,3.0919,3.0917,3.1055,3.0547,3.0294,3.0411,2.9848,2.9701,2.9963,3.0203,3.0505,3.0742,3.0216,2.9823,2.9546,2.8067,2.7278,2.7013,2.6362,2.64,2.6907,2.7636,2.7814,2.7542,2.7051,2.64,2.5693,2.5693,2.5693,2.5693,2.5693,2.5693,2.5693,2.5693,2.5538,2.5361,2.5184,2.4619,2.4062,2.3848,2.3477,2.3091,2.3091,2.3091,2.3091,2.3091,2.3091,2.3091,2.3091,2.3091,2.3091,2.3091,2.2627,2.2266,2.248,2.2158,2.209,2.2682,2.2955,2.2988,2.2686,2.2451,2.2239,2.1887,2.1441,2.138,2.1761,2.2178,2.2306,2.2101,2.1921,2.1693,2.1502,2.1502,2.1589,2.1807,2.1807,2.1807,2.1807,2.1921,2.1997,2.2101,2.2515,2.2665,0.0,0.0,0.0,0.0,0.0,0.0,0.0,2.3449,2.3891,2.4618,2.5054,2.5633,2.666,2.7162,2.761,2.8056,2.8506,2.8803,2.8803,2.8803,2.8803,2.8803,2.923,2.9642,3.0035,3.0493,3.0963,3.1444,3.1487,3.152,3.1618,3.1208,3.094,3.094,3.0547,3.0453,3.0703,3.1002,3.1249,3.1483,3.0806,3.0453,3.0372,2.872,2.7951,2.7857,2.7241,2.7431,2.8128,2.8678,2.8724,2.8398,2.7951,2.7051,2.5965,2.5878,2.583,2.5781,2.583,2.583,2.5781,2.5781,2.5536,2.5166,2.5047,2.4463,2.3877,2.3711,2.3408,2.3091,2.3091,2.3091,2.3091,2.3091,2.3091,2.3091,2.3091,2.3091,2.3091,2.3091,2.2519,2.209,2.2386,2.1858,2.1633,2.2285,2.2676,2.2787,2.2557,2.2367,2.214,2.1887,2.1678,2.1835,2.2505,2.2953,2.3176,2.3102,2.2868,2.2654,2.2429,2.2429,2.2531,2.2729,2.2729,2.2729,2.2729,2.2868,2.299,2.299,2.3545,2.3593,2.2299,2.2357,2.2488,2.2903,2.3001,2.311,0.0,2.3651,2.4076,2.5469,2.5786,2.6245,2.7576,2.7882,2.8067,2.8639,2.8771,2.8803,2.8803,2.8803,2.8803,2.8803,2.923,2.95,2.9565,3.0002,3.0482,3.0941,3.0974,3.1171,3.1607,3.1516,3.1516,3.1516,3.1465,3.1567,3.1823,3.2117,3.237,3.2633,3.1874,3.1445,3.1219,2.9887,2.9152,2.8945,2.8852,2.9211,2.9897,2.9715,2.9806,2.9852,2.8945,2.7966,2.6962,2.6572,2.6255,2.61,2.6352,2.6245,2.6052,2.6052,2.5877,2.5469,2.4727,2.4424,2.4189,2.3383,2.313,2.3091,2.3091,2.3091,2.3091,2.3091,2.3091,2.3091,2.3091,2.3091,2.3091,2.3091,2.2721,2.2376,2.2251,2.2154,2.2042,2.1985,2.1992,2.1948,2.1668,2.2069,2.2298,2.2074,2.2526,2.318,2.4084,2.4107,2.4179,2.4456,2.412,2.3829,2.3599,2.3599,2.3708,2.3902,2.3902,2.3902,2.3902,2.3938,2.3938,2.3938,2.4384,2.4371,2.2237,2.2313,2.2422,2.2881,2.322,2.3482,2.3651,2.4159,2.4902,2.6059,2.6518,2.7075,2.8244,2.8462,2.8517,2.8771,2.8803,2.8803,2.8803,2.8803,2.8803,2.8803,2.8978,2.9219,2.9456,2.9925,3.0406,3.0854,3.0898,3.1105,3.1545,3.1618,3.1618,3.1618,3.1618,3.1721,3.2015,3.2117,3.2381,3.2857,3.1885,3.1552,3.1565,3.0328,2.9588,2.9336,2.9612,3.0011,3.0419,3.0487,3.0476,3.0374,2.9669,2.8689,2.76,2.6955,2.6754,2.6733,2.6716,2.6754,2.6686,2.6438,2.5894,2.5273,2.4912,2.4443,2.3975,2.3613,2.3286,2.3091,2.3091,2.3091,2.3091,2.3091,2.3091,2.3091,2.3091,2.3091,2.3091,2.3091,2.2803,2.2503,2.2579,2.2442,2.2321,2.2401,2.2433,2.2402,2.2374,2.2694,2.2952,2.2981,2.3486,2.4011,2.4528,2.4755,2.4909,2.504,2.4791,2.46,2.448,2.448,2.46,2.4791,2.4791,2.4791,2.4791,2.4791,2.4791,2.4826,2.5087,2.5206,2.2018,2.2215,2.2419,2.3056,2.3471,2.376,2.4061,2.4672,2.5478,2.6398,2.6977,2.7566,2.8407,2.8716,2.8803,2.8803,2.8803,2.8803,2.8803,2.8803,2.8803,2.8803,2.8803,2.8935,2.9296,2.9598,3.0057,3.0657,3.0701,3.0974,3.1586,3.1618,3.1618,3.1618,3.1618,3.1669,3.1863,3.1863,3.2139,3.2656,3.1641,3.1408,3.172,3.0756,3.0227,3.0125,3.0487,3.0713,3.0937,3.1095,3.1095,3.0847,3.0375,2.9531,2.8538,2.7919,2.7589,2.7437,2.741,2.74,2.7352,2.6955,2.6227,2.5462,2.5344,2.4782,2.4171,2.4053,2.3609,2.3232,2.3232,2.3144,2.3135,2.3188,2.3232,2.3232,2.3276,2.3266,2.3266,2.3266,2.3063,2.2916,2.3004,2.2869,2.2809,2.3001,2.3101,2.3157,2.3154,2.352,2.3888,2.4212,2.4587,2.4898,2.5087,2.5382,2.5571,2.5641,2.5476,2.5406,2.5406,2.5406,2.5476,2.5629,2.5629,2.5556,2.5363,2.5556,2.5556,2.5409,2.5707,2.5933,2.1614,2.1964,2.2506,2.3433,2.3684,2.3973,2.4912,2.5193,2.5448,2.6431,2.6988,2.7468,2.7925,2.844,2.8803,2.8803,2.8803,2.8803,2.8803,2.8803,2.8803,2.8803,2.8803,2.8814,2.8825,2.8836,2.9252,3.0155,3.0231,3.0635,3.1524,3.1618,3.1618,3.1618,3.1618,3.1618,3.1618,3.1618,3.1772,3.2015,3.125,3.1216,3.1697,3.1373,3.1395,3.1617,3.1661,3.1661,3.1661,3.1661,3.1661,3.1617,3.1083,3.0566,3.0125,2.9806,2.8991,2.8034,2.8491,2.8362,2.7951,2.7678,2.7061,2.6348,2.5916,2.5464,2.5068,2.4591,2.4017,2.3503,2.3503,2.3276,2.3188,2.3416,2.3503,2.3547,2.3754,2.3797,2.3797,2.3797,2.3787,2.3667,2.341,2.3556,2.3663,2.3575,2.3909,2.3995,2.3548,2.4324,2.517,2.577,2.5828,2.5945,2.6131,2.6166,2.627,2.6465,2.6452,2.6452,2.6452,2.6452,2.6452,2.6452,2.6452,2.6189,2.559,2.6189,2.6163,2.5603,2.6201,2.6499,2.1811,2.1953,2.2138,2.3378,2.3984,2.4399,2.5073,2.5426,2.5841,2.6453,2.6715,2.7053,2.7849,2.8167,2.8386,2.8749,2.8803,2.8913,2.9241,2.9237,2.9237,2.9237,2.9237,2.9153,2.8836,2.8803,2.9208,3.0144,3.0209,3.0624,3.1575,3.1618,3.1618,3.1618,3.1618,3.168,3.1863,3.1874,3.2088,3.2606,3.1982,3.1795,3.1948,3.148,3.1439,3.1705,3.1705,3.1705,3.1705,3.1705,3.1705,3.1661,3.1306,3.0892,3.0476,3.0578,3.0216,2.9692,2.9498,2.9452,2.9395,2.8967,2.8445,2.7859,2.7345,2.6889,2.6432,2.5581,2.4774,2.4079,2.3797,2.3406,2.3188,2.346,2.3831,2.4209,2.4413,2.4829,2.5126,2.5126,2.5126,2.505,2.4767,2.4878,2.4982,2.5123,2.4802,2.4564,2.4671,2.5123,2.5535,2.5863,2.6015,2.6131,2.6201,2.6339,2.643,2.6499,2.6499,2.6499,2.6499,2.6499,2.6499,2.6499,2.6499,2.6399,2.6197,2.6399,2.6399,2.621,2.6399,2.6499,2.2302,2.2597,2.2892,2.3973,2.4497,2.4858,2.5327,2.5677,2.5994,2.631,2.6464,2.6824,2.7598,2.8012,2.8451,2.8989,2.9208,2.9438,2.9707,2.974,2.974,2.974,2.9587,2.9358,2.9088,2.8902,2.9132,2.9893,3.0111,3.0548,3.1323,3.1531,3.1618,3.1618,3.1618,3.1721,3.2015,3.2117,3.2443,3.2994,3.2763,3.25,3.2227,3.1893,3.172,3.1705,3.1705,3.1705,3.1705,3.1705,3.1705,3.1661,3.1528,3.125,3.1026,3.1184,3.1139,3.0937,3.0385,3.0283,3.0272,2.9886,2.9417,2.8892,2.8361,2.7877,2.7349,2.6444,2.5498,2.468,2.4305,2.3787,2.344,2.3884,2.438,2.484,2.521,2.5715,2.6049,2.6049,2.5906,2.5713,2.5529,2.5474,2.5592,2.5868,2.5535,2.5382,2.5699,2.5851,2.5968,2.6119,2.6223,2.6305,2.6305,2.643,2.6499,2.6499,2.6499,2.6499,2.6499,2.6499,2.6399,2.6185,2.6386,2.6298,2.5908,2.6298,2.6386,2.6185,2.6399,2.6499,2.3023,2.3733,2.4563,2.5095,2.5215,2.5336,2.5786,2.5895,2.5895,2.5895,2.6267,2.6693,2.7228,2.808,2.8935,2.9401,2.9893,3.022,3.0242,3.0253,3.0253,3.0253,2.9838,2.9543,2.9521,2.9121,2.9033,2.9456,2.9936,3.0406,3.0865,3.1356,3.1618,3.1618,3.1618,3.1721,3.2015,3.2319,3.2734,3.3251,3.3552,3.3302,3.2539,3.2515,3.2202,3.1705,3.1705,3.1705,3.1705,3.1705,3.1705,3.1705,3.1705,3.1705,3.1705,3.1705,3.1705,3.1617,3.1196,3.0871,3.0623,3.0352,2.9977,2.9488,2.8948,2.8453,2.7904,2.7154,2.6181,2.5232,2.5031,2.4433,2.409,2.4818,2.5158,2.5485,2.6155,2.6445,2.6599,2.6577,2.6109,2.5723,2.5688,2.5486,2.5453,2.5875,2.6097,2.627,2.6465,2.6499,2.6499,2.6499,2.6499,2.6499,2.6499,2.6499,2.6499,2.6499,2.6499,2.6499,2.6499,2.6499,2.6235,2.5649,2.6223,2.5984,2.4876,2.5984,2.621,2.5649,2.6235,2.6499,2.3313,2.3733,2.4126,2.4967,2.5215,2.5336,2.5786,2.5895,2.5895,2.5895,2.6005,2.6332,2.7162,2.7807,2.8495,2.9347,2.9893,3.033,3.0668,3.0723,3.0723,3.0723,3.0614,3.0406,3.0057,2.9587,2.9347,2.9478,2.9936,3.0406,3.0865,3.1356,3.1618,3.1618,3.1618,3.1823,3.2392,3.3058,3.3586,3.4085,3.3814,3.3493,3.308,3.2683,3.2202,3.1705,3.1705,3.1705,3.1705,3.1705,3.1705,3.1705,3.1705,3.1705,3.1705,3.1705,3.1705,3.1661,3.1584,3.1496,3.1395,3.1339,3.0944,3.0442,2.9922,2.9402,2.8799,2.7882,2.7177,2.6599,2.6196,2.5673,2.5379,2.5768,2.6279,2.6775,2.7103,2.7603,2.786,2.7471,2.6771,2.6281,2.6419,2.6056,2.5828,2.6097,2.6166,2.627,2.6465,2.6499,2.6499,2.6499,2.6499,2.6499,2.6499,2.6499,2.6499,2.6499,2.6499,2.6499,2.6499,2.6499,2.6424,2.6273,2.6411,2.6361,2.6084,2.6361,2.6411,2.6273,2.6424,2.6499,2.4224,2.4519,2.4814,2.536,2.5327,2.5281,2.5513,2.5426,2.5338,2.5546,2.5579,2.5874,2.6835,2.7533,2.8241,2.9041,2.9915,3.0603,3.0854,3.1083,3.1214,3.1214,3.1029,3.0799,3.0537,3.0078,2.9718,2.95,2.974,3.01,3.057,3.105,3.14,3.1567,3.1618,3.1986,3.2796,3.3519,3.4113,3.458,3.4305,3.3863,3.3284,3.2984,3.2418,3.1705,3.1705,3.1705,3.1705,3.1705,3.1705,3.1705,3.1705,3.1705,3.1705,3.1705,3.1705,3.1705,3.1705,3.1705,3.1705,3.1705,3.1512,3.1127,3.0314,2.9881,2.9402,2.8324,2.7684,2.7267,2.6899,2.6475,2.6216,2.6558,2.6981,2.7429,2.7725,2.8179,2.8282,2.7627,2.6955,2.6479,2.6366,2.6177,2.6062,2.6166,2.627,2.6361,2.6499,2.6499,2.6499,2.6499,2.6499,2.6499,2.6499,2.6499,2.6499,2.6499,2.6499,2.6499,2.6499,2.6499,2.6373,2.6122,2.6361,2.6373,2.6122,2.6373,2.6499,2.6499,2.6499,2.6499,2.5215,2.5524,2.5895,2.5895,2.5535,2.5215,2.5215,2.4854,2.4596,2.504,2.5171,2.5448,2.6365,2.726,2.8078,2.8716,2.9915,3.0821,3.0887,3.1313,3.1618,3.1618,3.1247,3.0996,3.0996,3.057,3.01,2.962,2.9521,2.9696,3.0188,3.0646,3.1116,3.1607,3.168,3.2179,3.3158,3.3767,3.4261,3.4726,3.4726,3.4234,3.3284,3.3284,3.2695,3.1705,3.1705,3.1705,3.1705,3.1705,3.1705,3.1705,3.1705,3.1705,3.1705,3.1705,3.1705,3.1705,3.1705,3.1705,3.1705,3.1705,3.1657,3.1428,3.047,3.0098,2.9743,2.8657,2.7985,2.7592,2.7429,2.7062,2.6857,2.7267,2.751,2.7725,2.8139,2.8271,2.8122,2.7333,2.6858,2.6499,2.6066,2.6131,2.6236,2.6236,2.6396,2.6499,2.6499,2.6499,2.6499,2.6499,2.6499,2.6499,2.6499,2.6499,2.6499,2.6499,2.6499,2.6499,2.6499,2.6499,2.626,2.5724,2.6235,2.6248,2.5711,2.6248,2.6499,2.6499,2.6499,2.6499,2.5215,2.5524,2.5895,2.5895,2.5535,2.5215,2.5215,2.4854,2.4508,2.4585,2.4942,2.539,2.5917,2.6802,2.773,2.8661,2.9642,3.0461,3.0843,3.1313,3.1618,3.1618,3.1553,3.1498,3.1498,3.1061,3.0581,3.0122,2.9707,2.9696,3.0188,3.0646,3.1116,3.1607,3.2088,3.2493,3.2857,3.3469,3.4014,3.4482,3.4482,3.4042,3.3284,3.3284,3.2695,3.1705,3.1705,3.1705,3.1705,3.1705,3.1705,3.1705,3.1705,3.1705,3.1705,3.1705,3.1705,3.1705,3.1705,3.1705,3.1705,3.1705,3.1416,3.1019,3.0838,3.0122,2.94,2.9167,2.8714,2.8311,2.8259,2.8219,2.8179,2.8259,2.8299,2.8351,2.8431,2.7929,2.7345,2.7101,2.6639,2.6313,2.6374,2.643,2.6465,2.6465,2.6499,2.6499,2.6499,2.6499,2.6499,2.6499,2.6499,2.6499,2.6499,2.6499,2.6499,2.6499,2.6499,2.6499,2.6499,2.6499,2.6449,2.6348,2.6449,2.6449,2.6348,2.6449,2.6499,2.6499,2.6499,2.6499,2.5204,2.5376,2.5484,2.5361,2.4979,2.4567,2.4436,2.4061,2.3787,2.4039,2.4268,2.465,2.5382,2.6103,2.6889,2.785,2.8822,2.9707,3.0439,3.0941,3.1334,3.1586,3.1618,3.1618,3.1618,3.1411,3.0985,3.0264,2.9991,2.986,2.9838,3.0504,3.0996,3.1236,3.1893,3.2331,3.2583,3.317,3.3717,3.4188,3.4335,3.3994,3.3284,3.3284,3.2695,3.1705,3.1705,3.1705,3.1705,3.1705,3.1705,3.1705,3.1705,3.1705,3.1705,3.1705,3.1705,3.1705,3.1705,3.1705,3.1705,3.1705,3.1536,3.1223,3.0627,3.011,2.9593,2.9039,2.8703,2.851,2.851,2.851,2.851,2.851,2.851,2.8438,2.8267,2.777,2.7287,2.7061,2.6644,2.6396,2.6499,2.6499,2.6499,2.6499,2.6499,2.6499,2.6499,2.6499,2.6499,2.6499,2.6499,2.6499,2.6499,2.6499,2.6499,2.6499,2.6499,2.6499,2.6499,2.6499,2.6499,2.6499,2.6499,2.6499,2.6499,2.6499,2.6499,2.6499,2.6499,2.6499,2.4893,2.4893,2.4819,2.4594,2.4228,2.3888,2.3649,2.3275,2.311,2.3455,2.3618,2.3923,2.4727,2.5349,2.6026,2.6867,2.7905,2.8957,2.9784,3.0472,3.104,3.1422,3.1465,0.0,3.1465,3.1378,3.0974,3.0122,2.9958,2.9773,2.95,3.0384,3.0898,3.0898,3.1609,3.2117,3.2319,3.2908,3.3469,3.3941,3.4188,3.3946,3.3284,3.3284,3.2695,3.1705,3.1705,3.1705,3.1705,3.1705,3.1705,3.1705,3.1705,3.1705,3.1705,3.1705,3.1705,3.1705,3.1705,3.1705,3.1705,3.1705,3.1633,3.138,3.0549,3.0098,2.9749,2.8919,2.8595,2.851,2.851,2.851,2.851,2.851,2.851,2.8409,2.7977,2.7703,2.7373,2.6971,2.6696,2.6499,2.6499,2.6499,2.6499,2.6499,2.6499,2.6499,2.6499,2.6499,2.6499,2.6499,2.6499,2.6499,2.6499,2.6499,2.6499,2.6499,2.6499,2.6499,2.6499,2.6499,2.6499,2.6499,2.6499,2.6499,2.6499,2.6499,2.6499,2.6499,2.6499,2.6499,2.393,2.393,2.3861,2.3668,2.3525,2.34,2.3211,2.3086,2.3012,2.3056,2.3416,2.3716,2.3804,2.4618,2.5415,2.5939,2.7195,2.8287,2.8858,3.0046,3.0919,3.0952,0.0,0.0,3.0963,3.0581,3.0122,2.9587,2.9186,2.911,2.9467,3.0384,3.0898,3.0898,3.1609,3.2015,3.2015,3.2617,3.317,3.3645,3.3965,3.3825,3.3284,3.3284,3.2695,3.1705,3.1705,3.1705,3.1705,3.1705,3.1705,3.1705,3.1705,3.1705,3.1705,3.1705,3.1705,3.1705,3.1705,3.1705,3.1705,3.1705,3.138,3.097,3.0874,3.0134,2.9352,2.9256,2.8883,2.851,2.851,2.851,2.851,2.851,2.851,2.8313,2.7665,2.752,2.7323,2.6671,2.6524,2.6499,2.6499,2.6499,2.6499,2.6499,2.6499,2.6499,2.6499,2.6499,2.6499,2.6499,2.6499,2.6499,2.6499,2.6499,2.6499,2.6499,2.6499,2.6499,2.6499,2.6499,2.6499,2.6499,2.6499,2.6499,2.6499,2.6499,2.6499,2.6499,2.6499,2.6499,2.3308,2.3387,2.3262,2.283,2.289,2.2886,2.2436,2.2503,2.2665,2.2777,2.2966,2.3319,2.4033,2.4497,2.5109,2.6168,2.7053,2.7872,2.8694,2.9547,3.0155,3.045,3.0482,3.0482,3.0482,3.0319,3.0013,2.9521,2.9077,2.8891,2.9077,2.9958,3.0482,3.0482,3.1326,3.1772,3.1772,3.2353,3.2748,3.2874,3.3714,3.3659,3.2827,3.314,3.2695,3.1705,3.1705,3.1705,3.1705,3.1705,3.1705,3.1705,3.1705,3.1705,3.1705,3.1705,3.1705,3.1705,3.1705,3.1705,3.1705,3.1705,3.1356,3.0862,3.0494,3.011,2.9641,2.9003,2.8679,2.851,2.851,2.851,2.851,2.851,2.851,2.834,2.7642,2.7483,2.7311,2.6643,2.6499,2.6499,2.6499,2.6499,2.6499,2.6499,2.6499,2.6499,2.6499,2.6499,2.6499,2.6499,2.6499,2.6499,2.6499,2.6499,2.6499,2.6499,2.6499,2.6499,2.6499,2.6499,2.6499,2.6499,2.6499,2.6499,2.6499,2.6499,2.6499,2.6499,2.6499,2.6499,2.2418,2.26,2.2548,2.1945,2.2103,2.2241,2.158,2.1759,2.209,2.2289,2.244,2.2848,2.387,2.4309,2.4869,2.6016,2.6715,2.7392,2.8256,2.8913,2.9456,2.9936,2.9991,2.9991,2.9991,2.9871,2.9642,2.9339,2.9,2.8803,2.8803,2.9543,3.0057,3.0209,3.1177,3.1721,3.1721,3.2291,3.2596,3.2575,3.3609,3.3636,3.2743,3.3116,3.2779,3.1946,3.1777,3.1705,3.1705,3.1705,3.1705,3.1705,3.1705,3.1705,3.1705,3.1705,3.1705,3.1705,3.1705,3.1705,3.1705,3.1705,3.1452,3.1019,3.029,2.9977,2.9701,2.8955,2.8631,2.851,2.851,2.851,2.851,2.851,2.851,2.834,2.7642,2.7483,2.7311,2.6643,2.6499,2.6499,2.6499,2.6499,2.6499,2.6499,2.6499,2.6499,2.6499,2.6499,2.6499,2.6499,2.6499,2.6499,2.6499,2.6499,2.6499,2.6499,2.6499,2.6499,2.6499,2.6499,2.6499,2.6499,2.6499,2.6499,2.6499,2.6499,2.6499,2.6499,2.6499,2.6499,2.1108,2.142,2.1583,2.0968,2.1191,2.1354,2.0762,2.0905,2.128,2.1464,2.1845,2.2324,2.2991,2.3874,2.4639,2.515,2.6005,2.6759,2.7261,2.8156,2.8989,2.9434,2.9489,2.9489,2.9489,2.9099,2.8814,2.8814,2.8803,2.8803,2.8803,2.9274,2.9718,3.0199,3.1367,3.2015,3.2015,3.2617,3.2879,3.2924,3.373,3.3825,3.3284,3.3284,3.2996,3.2466,3.1946,3.1705,3.1705,3.1705,3.1705,3.1705,3.1705,3.1705,3.1705,3.1705,3.1705,3.1705,3.1705,3.1705,3.1705,3.1705,3.1705,3.15,3.0398,2.9725,2.9304,2.9292,2.8919,2.851,2.851,2.851,2.851,2.851,2.851,2.834,2.7642,2.7483,2.7311,2.6643,2.6499,2.6499,2.6499,2.6499,2.6499,2.6499,2.6499,2.6499,2.6499,2.6499,2.6499,2.6499,2.6499,2.6499,2.6499,2.6499,2.6499,2.6499,2.6499,2.6499,2.6499,2.6499,2.6499,2.6499,2.6499,2.6499,2.6499,2.6499,2.6499,2.6499,2.6499,2.6499,2.0631,2.0796,2.0778,2.0287,2.052,2.0695,2.0222,2.0489,2.0867,2.1069,2.1415,2.2035,2.3148,2.387,2.4607,2.5535,2.6212,2.6748,2.725,2.7861,2.844,2.8978,2.9033,2.9164,2.9456,2.9394,2.939,2.9729,2.9751,2.9609,2.9318,3.0013,3.022,2.9729,3.0563,3.1091,3.1238,3.1788,3.2068,3.209,3.2913,3.2886,3.2235,3.2575,3.2454,3.1925,3.1789,3.1705,3.1705,3.1705,3.1705,3.1705,3.1705,3.1705,3.1705,3.1705,3.1705,3.1705,3.1705,3.1705,3.1705,3.1705,3.1464,3.1103,3.0766,3.0254,2.9689,2.8967,2.8643,2.851,2.851,2.851,2.851,2.851,2.834,2.8035,2.7593,2.7311,2.7022,2.6603,2.6499,2.6499,2.6499,2.6499,2.6499,2.6499,2.6499,2.6499,2.6499,2.6499,2.6499,2.6499,2.6499,2.6499,2.6499,2.6499,2.6499,2.6499,2.6499,2.6499,2.6499,2.6499,2.6499,2.6499,2.6499,2.6499,2.6499,2.6499,2.6499,2.6499,2.6499,2.6499,2.0149,2.036,2.0378,1.9985,2.0079,2.0171,1.976,1.9893,2.0167,2.0362,2.0722,2.1367,2.255,2.3429,2.4253,2.5243,2.5911,2.6583,2.7228,2.7533,2.8014,2.8727,2.8967,2.9197,2.9456,2.9652,2.9893,3.0188,3.0209,3.0002,2.951,3.022,3.0199,2.9285,3.0363,3.102,3.1024,3.1588,3.1855,3.1862,3.2557,3.2598,3.1985,3.2346,3.231,3.1973,3.1801,3.1705,0.0,3.1705,3.1705,3.1705,3.1705,3.1705,3.1705,3.1705,3.1705,3.1705,3.1705,3.1705,3.1705,3.1705,3.1211,3.0543,3.0338,3.005,2.9617,2.8751,2.851,2.851,2.851,2.851,2.8462,2.8325,2.8128,2.7883,2.7422,2.7149,2.6895,2.6578,2.6499,2.6499,2.6499,2.6499,2.6499,2.6499,2.6499,2.6499,2.6499,2.6499,2.6499,2.6499,2.6499,2.6499,2.6499,2.6499,2.6499,2.6499,2.6499,2.6499,2.6499,2.6499,2.6499,2.6499,2.6499,2.6499,2.6499,2.6499,2.6499,2.6499,2.6499,2.6499,0.0,2.0113,2.0296,1.9939,1.9847,1.9747,1.9393,1.9301,0.0,1.9557,1.9902,2.0458,2.1402,2.2632,2.3703,2.4475,2.533,2.6234,2.7173,2.7403,2.7841,2.8795,2.9332,2.9591,2.9635,3.004,3.0275,3.0308,3.0319,3.01,2.9657,3.0105,2.9897,2.8937,3.0678,3.1548,3.121,3.1759,3.2043,3.2089,3.2601,3.2681,3.2442,3.2442,3.2442,3.2406,3.1934,3.1705,3.1705,3.1705,3.1705,3.1705,3.1705,3.1705,3.1705,3.1705,3.1705,3.1705,3.1705,3.1705,3.1693,3.1621,3.091,2.9929,2.94,2.9244,2.9136,2.8655,2.851,2.851,2.851,2.851,2.8445,2.8084,2.7977,2.7786,2.7136,2.6996,2.6881,2.6565,2.6499,2.6499,2.6499,2.6499,2.6499,2.6499,2.6499,2.6499,2.6499,2.6499,2.6499,2.6499,2.6499,2.6499,2.6499,2.6499,2.6499,2.6499,2.6499,2.6499,2.6499,2.6499,2.6499,2.6499,2.6499,2.6499,2.6499,2.6499,2.6499,2.6499,2.6499,2.6512,1.9421,0.0,1.9567,1.9476,1.9448,1.9421,0.0,1.9301,1.9301,1.9341,1.9696,2.0271,2.1213,2.2402,2.3541,2.4475,2.533,2.6234,2.7173,2.8448,2.938,2.9601,3.0256,3.07,3.0844,3.0987,3.1108,3.1269,3.1431,3.1384,3.091,3.1589,3.1332,2.9983,3.0869,3.1111,3.0445,3.1007,3.1447,3.1809,3.1941,3.1941,3.191,3.191,3.191,3.1898,3.1765,3.1705,3.1705,3.1705,3.1705,3.1705,3.1705,3.1705,3.1705,3.1705,3.1705,3.1705,3.1705,3.1705,3.1573,3.0766,3.0013,2.9429,2.9036,2.8799,2.8667,2.8546,2.851,2.851,2.851,2.8618,2.8591,2.8135,2.7924,2.7681,2.7134,2.6791,2.6581,2.6524,2.6499,2.6499,2.6499,2.6499,2.6499,2.6499,2.6499,2.6499,2.6499,2.6499,2.6499,2.6499,2.6499,2.6499,2.6499,2.6499,2.6499,2.6499,2.6499,2.6499,2.6499,2.6499,2.6499,2.6499,2.6499,2.6499,2.6499,2.6499,2.6499,2.6499,2.6499,2.6713,1.9301,1.9301,1.9301,1.9301,1.9301,1.9301,1.9301,1.9301,1.9301,1.9301,1.946,1.985,2.0513,2.19,2.3154,2.3852,2.5248,2.6573,2.7467,2.8934,2.9953,3.0083,3.0826,3.1363,3.1494,3.1567,3.1598,3.1607,3.1874,3.1867,3.1489,3.2235,3.2018,3.0668,3.1289,3.1249,3.0408,3.0781,3.1241,3.1705,3.1705,3.1705,3.1705,3.1705,3.1705,3.1705,3.1705,3.1705,3.1705,3.1705,3.1705,3.1705,3.1705,3.1705,3.1705,3.1705,3.1705,3.1705,3.1705,3.1548,3.1211,3.035,2.9808,2.9346,2.8922,2.8803,2.8788,2.8788,2.8788,2.8788,2.8788,2.8855,2.8766,2.8059,2.7854,2.7617,2.6916,2.6643,2.6499,2.6499,2.6499,2.6499,2.6499,2.6499,2.6499,2.6499,2.6499,2.6499,2.6499,2.6499,2.6499,2.6499,2.6499,2.6499,2.6499,2.6499,2.6499,2.6499,2.6499,2.6499,2.6499,2.6499,2.6499,2.6499,2.6499,2.6499,2.6499,2.6499,2.6499,2.6499,2.6499,2.6788,1.9191,1.9256,1.932,1.9384,1.9393,1.9393,1.9393,1.9387,1.9341,1.9341,1.9381,1.9557,2.0066,2.151,2.2829,2.3491,2.5454,2.7217,2.8028,2.9258,3.0253,3.0478,3.1368,3.1926,3.1926,3.2046,3.2026,3.1772,3.1975,3.2051,3.1948,3.2501,3.2316,3.1263,3.1762,3.1623,3.0724,3.0916,3.1285,3.1705,3.1705,3.1705,3.1705,3.1705,3.1705,3.1705,3.1705,3.1705,3.1705,3.1705,3.1705,3.1705,3.1705,3.1705,3.1705,3.1705,3.1705,3.1705,3.1621,3.1247,3.0706,3.0176,2.9799,2.9387,2.9016,2.9,2.917,2.9221,2.917,2.9091,2.9091,2.9131,2.895,2.8114,2.789,2.7628,2.6816,2.6549,2.6499,2.6499,2.6499,2.6499,2.6499,2.6499,2.6499,2.6499,2.6499,2.6499,2.6499,2.6499,2.6499,2.6499,2.6499,2.6499,2.6499,2.6499,2.6499,2.6499,2.6499,2.6499,2.6499,2.6499,2.6499,2.6499,2.6499,2.6499,2.6499,2.6499,2.6499,2.6499,2.6499,2.6839,1.8715,1.9045,1.9384,1.9701,1.9793,1.9793,1.9793,1.9688,1.9557,1.9557,1.9676,2.0125,2.1164,2.2161,2.3401,2.4963,2.7041,2.8522,2.8679,3.0141,3.1269,3.1544,3.2448,3.3055,3.3055,3.2885,3.2667,3.2392,3.2617,3.2846,3.3017,3.2932,3.2715,3.2289,3.1926,3.1594,3.1217,3.1217,3.1395,3.1705,3.1705,3.1705,3.1705,3.1705,3.1705,3.1705,3.1705,3.1705,3.1705,3.1705,3.1705,3.1705,3.1705,3.1705,3.1705,3.1705,3.1705,3.1645,3.1199,3.0694,3.0152,2.9816,2.9322,2.898,2.9248,2.9341,2.9392,2.9624,2.9417,2.9091,2.9091,2.9236,2.9231,2.8636,2.825,2.7897,2.7293,2.6826,2.6499,2.6499,2.6499,2.6499,2.6499,2.6499,2.6499,2.6499,2.6499,2.6499,2.6499,2.6499,2.6499,2.6499,2.6499,2.6499,2.6499,2.6499,2.6499,2.6499,2.6499,2.6499,2.6499,2.6499,2.6499,2.6499,2.6499,2.6499,2.6499,2.6499,2.6499,2.6499,2.6499,2.704,1.8605,1.8999,1.9402,1.9783,2.0049,2.0246,2.0412,2.0561,2.0704,2.0816,2.1139,2.156,2.2201,2.3248,2.4766,2.6976,2.8232,2.9082,2.9489,3.0822,3.1885,3.2123,3.3101,3.3729,3.3668,3.3419,3.3044,3.2487,3.2708,3.29,3.2891,3.291,3.2783,3.2529,3.2279,3.1943,3.154,3.1528,3.1572,3.1705,3.1705,3.1705,3.1705,3.1705,3.1705,3.1705,3.1705,3.1705,3.1705,3.1705,3.1705,3.1705,3.1705,3.1705,3.1705,3.1705,3.1524,3.1247,3.1007,3.0338,2.9658,2.9597,2.9321,2.9,2.9302,2.9509,2.965,2.9753,2.9624,2.9468,2.9468,2.9534,2.9462,2.89,2.865,2.8323,2.7469,2.7115,2.6851,2.6549,2.6499,2.6499,2.6499,2.6499,2.6499,2.6499,2.6499,2.6499,2.6499,2.6499,2.6499,2.6499,2.6499,2.6499,2.6499,2.6499,2.6499,2.6499,2.6499,2.6499,2.6499,2.6499,2.6499,2.6499,2.6499,2.6499,2.6499,2.6499,2.6499,2.6499,2.6801,2.7331,1.832,1.8788,1.9265,1.9727,2.0122,2.0527,2.0964,2.1323,2.1687,2.2073,2.2462,2.2859,2.3216,2.465,2.6433,2.8522,2.9217,2.9679,3.0306,3.1414,3.23,3.2583,3.3477,3.4113,3.4089,3.3737,3.3259,3.2647,3.2737,3.2744,3.2606,3.2675,3.2635,3.2515,3.237,3.2094,3.1717,3.1705,3.1705,3.1705,3.1705,3.1705,3.1705,3.1705,3.1705,3.1705,3.1705,3.1705,3.1705,3.1705,3.1705,3.1705,3.1705,3.1705,3.1693,3.1573,3.1259,3.0843,3.0591,2.9977,2.9321,2.946,2.9303,2.9131,2.9392,2.965,2.9792,2.9792,2.9792,2.9792,2.9792,2.9792,2.9679,2.9239,2.8988,2.8662,2.7846,2.7469,2.719,2.6763,2.6587,2.6499,2.6499,2.6499,2.6499,2.6499,2.6521,2.6555,2.6555,2.6602,2.6636,2.6636,2.6636,2.6602,2.6555,2.6521,2.6499,2.6499,2.6499,2.6499,2.6499,2.6499,2.6499,2.6499,2.6499,2.6499,2.6499,2.6499,2.6562,2.67,2.7115,2.7645,1.7477,1.8155,1.8891,1.9462,1.991,2.0464,2.1355,2.1584,2.185,2.2656,2.2981,2.3439,2.4299,2.6352,2.8151,2.8968,2.9848,3.0588,3.0883,3.1796,3.2583,3.2817,3.3622,3.4162,3.4335,3.3726,3.3298,3.3251,3.2817,3.2618,3.2864,3.2424,3.2275,3.2503,3.1997,3.1753,3.1705,3.1705,3.1705,3.1705,3.1705,3.1705,3.1705,3.1705,3.1705,3.1705,3.1705,3.1705,3.1705,3.1705,3.1705,3.1705,3.1705,3.1705,3.1645,3.1151,3.0946,3.0778,2.9749,2.9364,2.9289,2.9154,2.9128,2.917,2.9624,2.9792,2.9792,2.9792,2.9792,2.9792,2.9792,2.9792,2.9779,2.9741,2.9315,2.8863,2.8787,2.8009,2.7268,2.7231,2.6851,2.6499,2.6499,2.6499,2.6499,2.6499,2.6624,2.6679,2.6679,2.6841,2.6943,2.6943,2.6943,2.6875,2.6679,2.6555,2.6499,2.6499,2.6499,2.6499,2.6499,2.6499,2.6499,2.6499,2.6499,2.6499,2.6499,2.6499,2.6763,2.7218,2.7268,2.7846,1.7542,1.8171,1.8806,1.9289,2.0014,2.095,2.21,2.3006,2.3867,2.4587,2.5296,2.5851,2.6206,2.7513,2.8733,2.9247,3.0208,3.1005,3.1362,3.2039,3.255,3.2642,3.3195,3.3636,3.3731,3.3457,3.316,3.2838,3.2635,3.2418,3.2163,3.1935,3.1884,3.1985,3.1825,3.1705,3.1705,3.1705,3.1705,3.1705,3.1705,3.1705,3.1705,3.1705,3.1705,3.1705,3.1705,3.1705,3.1705,3.1705,3.1705,3.1705,3.1705,3.1705,3.1645,3.1115,3.0675,3.029,2.9556,2.9088,2.8855,2.9047,2.9091,2.9182,2.9663,2.9792,2.9792,2.9792,2.9792,2.9792,2.9792,2.9792,2.9792,2.9792,2.9628,2.9365,2.8963,2.8335,2.7695,2.7344,2.6876,2.6499,2.6499,2.6499,2.6499,2.6499,2.6624,2.6816,2.7162,2.7689,2.8182,2.8505,2.8135,2.7773,2.7455,2.686,2.6499,2.6499,2.6499,2.6499,2.6499,2.6499,2.6499,2.6499,2.6499,2.6499,2.6499,2.6839,2.7115,2.7341,2.7984,2.8499,1.7425,1.8129,1.8779,1.9123,2.0021,2.1184,2.2328,2.3789,2.5125,2.5947,2.6813,2.7458,2.7601,2.8366,2.9138,2.9754,3.0503,3.1151,3.1617,3.2142,3.2503,3.2503,3.2959,3.3284,3.3284,3.314,3.2887,3.2527,3.2334,3.207,3.1729,3.1705,3.1705,3.1705,3.1705,3.1705,3.1705,3.1705,3.1705,3.1705,3.1705,3.1705,3.1705,3.1705,3.1705,3.1705,3.1705,3.1705,3.1705,3.1705,3.1705,3.1693,3.1524,3.1452,3.138,3.0681,3.0146,2.9761,2.9232,2.8811,2.859,2.8973,2.9091,2.9182,2.9663,2.9792,2.9792,2.9792,2.9792,2.9792,2.9792,2.9792,2.9792,2.9792,2.9792,2.9679,2.9289,2.8762,2.8197,2.7657,2.7128,2.67,2.6524,2.6521,2.6555,2.6555,2.685,2.7209,2.7597,2.8478,2.9255,2.9833,2.926,2.8646,2.8205,2.7416,2.686,2.6683,2.6671,2.6602,2.6499,2.6499,2.6575,2.6751,2.6751,2.6839,2.7014,2.7356,2.7632,2.7821,2.8574,2.8988,1.6969,1.7901,1.8753,1.8945,1.9893,2.1057,2.1984,2.3606,2.5221,2.6368,2.7206,2.7845,2.8309,2.8858,2.952,3.0451,3.0826,3.1151,3.1617,3.2142,3.2491,3.2491,3.2959,3.3272,3.3272,3.2803,3.2491,3.2491,3.2018,3.1705,3.1705,3.1705,3.1705,3.1705,3.1705,3.1705,3.1705,3.1705,3.1705,3.1705,3.1705,3.1705,3.1705,3.1705,3.1705,3.1705,3.1705,3.1705,3.1705,3.1705,3.1705,3.1645,3.1127,3.0922,3.0735,2.9689,2.9304,2.922,2.8691,2.851,2.859,2.8973,2.9091,2.9182,2.9663,2.9792,2.9792,2.9792,2.9792,2.9792,2.9792,2.9792,2.9792,2.9792,2.9792,2.9792,2.9792,2.934,2.8725,2.8222,2.7657,2.714,2.66,2.6624,2.6679,2.6714,2.7343,2.7855,2.802,2.9069,3.0047,3.065,3.0179,2.9523,2.8802,2.8226,2.7648,2.7062,2.7024,2.6841,2.6521,2.6499,2.6763,2.7268,2.7329,2.7557,2.8109,2.8109,2.8398,2.8888,2.89,2.9252,1.7192,1.8234,1.9191,1.9534,2.0351,2.1381,2.2611,2.3929,2.5401,2.7203,2.8184,2.8687,2.8678,2.9364,2.9974,3.0288,3.0802,3.1318,3.1661,3.1849,3.1958,3.1958,3.209,3.2187,3.2187,3.2042,3.1958,3.1958,3.1801,3.1705,3.1705,3.1705,3.1705,3.1705,3.1705,3.1705,3.1705,3.1705,3.1524,3.1151,3.1524,3.1705,3.1705,3.1705,3.1705,3.1705,3.1705,3.1705,3.1705,3.1705,3.1488,3.1139,3.0983,3.0694,3.0242,2.9556,2.9304,2.922,2.8691,2.851,2.859,2.8973,2.9091,2.9182,2.9663,2.9792,2.9792,2.9792,2.9792,2.9792,2.9792,2.9792,2.9792,2.9792,2.9792,2.9792,2.9792,2.934,2.8838,2.8675,2.7921,2.7231,2.7102,2.6842,2.685,2.7196,2.763,2.8596,3.0368,3.1231,3.2013,3.2794,3.2129,3.1453,3.0993,2.976,2.896,2.8752,2.8305,2.7683,2.6875,2.7119,2.7354,2.7518,2.7742,2.7946,2.8109,2.8499,2.8737,2.89,2.9352,2.9628,1.722,1.8475,1.9613,1.9829,2.0676,2.1815,2.3349,2.4795,2.6338,2.7965,2.8826,2.9269,2.9342,2.993,3.0428,3.0614,3.1003,3.1395,3.1661,3.1705,3.1705,3.1705,3.1705,3.1705,3.1705,3.1705,3.1705,3.1705,3.1705,3.1705,3.1705,3.1705,3.1705,3.1705,3.1705,3.1705,3.1705,3.1705,3.1548,3.1235,3.156,3.1705,3.1705,3.1705,3.1705,3.1705,3.1488,3.1392,3.138,3.1163,3.0855,3.0543,3.0338,3.0062,2.9713,2.9184,2.8979,2.8943,2.8619,2.851,2.859,2.8973,2.9091,2.9182,2.9663,2.9792,2.9792,2.9792,2.9792,2.9792,2.9792,2.9792,2.9792,2.9792,2.9869,2.9934,2.9934,2.9694,2.9416,2.9076,2.857,2.8012,2.7511,2.7458,2.7613,2.8025,2.8669,2.9808,3.1681,3.2274,3.2862,3.3813,3.3277,3.2565,3.1796,3.0723,2.9857,2.9378,2.9181,2.8774,2.8085,2.7963,2.8049,2.8354,2.8407,2.8549,2.8775,2.9114,2.9277,2.9289,2.9628,2.9792,1.7088,1.8583,1.9852,1.9889,2.0872,2.2314,2.4011,2.5839,2.7487,2.8511,2.913,2.9669,3.017,3.0487,3.0802,3.1261,3.135,3.1439,3.1673,3.1705,3.1705,3.1705,3.1705,3.1705,3.1705,3.1705,3.1705,3.1705,3.1705,3.1705,3.1705,3.1705,3.1705,3.1705,3.1705,3.1681,3.1633,3.1681,3.1657,3.1573,3.1657,3.1657,3.1573,3.1669,3.1705,3.1681,3.1151,3.0922,3.0874,3.0302,3.0062,2.9965,2.9484,2.9268,2.9172,2.8691,2.851,2.851,2.851,2.851,2.859,2.8973,2.9091,2.9209,2.9663,2.9792,2.9792,2.9792,2.9792,2.9792,2.9792,2.9792,2.983,2.983,2.9972,3.0113,3.0152,3.0292,3.0215,2.949,2.9437,2.9178,2.8013,2.833,2.8815,2.9174,3.0174,3.1219,3.2288,3.246,3.2909,3.4032,3.3796,3.3058,3.1792,3.1249,3.0502,2.9493,2.9854,3.0095,2.9989,2.9038,2.8846,2.9582,2.9226,2.9302,2.9869,2.9869,2.9869,2.9869,2.983,2.983,1.6831,1.8215,1.9546,2.0036,2.1548,2.3215,2.4127,2.5397,2.6683,2.7936,2.8886,2.976,3.0589,3.0982,3.1261,3.1572,3.1617,3.1617,3.1705,3.1705,3.1705,3.1705,3.1705,3.1705,3.1705,3.1705,3.1705,3.1705,3.1705,3.1705,3.1705,3.1705,3.1705,3.1705,3.1705,3.1512,3.1091,3.15,3.1296,3.0434,3.1308,3.1271,3.0458,3.1332,3.1705,3.1681,3.1151,3.0922,3.0874,3.0302,2.9845,2.946,2.9352,2.9039,2.8667,2.8546,2.851,2.851,2.851,2.8618,2.8764,2.9013,2.9197,2.9392,2.9702,2.9792,2.9792,2.9792,2.9792,2.9792,2.9792,2.9934,3.0049,3.0049,3.0075,3.0216,3.062,3.0684,3.0608,3.0564,3.009,2.9703,2.959,2.9552,2.9881,3.0959,3.1247,3.1821,3.3075,3.28,3.2974,3.4201,3.3864,3.3392,3.3118,3.2022,3.147,3.176,3.1415,3.1486,3.2174,3.0922,3.0173,3.022,3.0108,3.0126,3.0254,3.0254,3.0254,3.0254,3.0113,3.0049,1.6326,1.7879,1.9595,2.1138,2.2318,2.3325,2.4208,2.4965,2.5876,2.7181,2.8307,2.9428,3.0532,3.1005,3.1273,3.1617,3.1705,3.1705,3.1705,3.1705,3.1705,3.1705,3.1705,3.1705,3.1705,3.1705,3.1705,3.1705,3.1705,3.1705,3.1705,3.1705,3.1705,3.1705,3.1705,3.1573,3.1296,3.1573,3.1428,3.0855,3.144,3.1416,3.0898,3.1199,3.1476,3.1669,3.0874,3.0494,3.0477,2.9653,2.9172,2.8919,2.8919,2.8751,2.851,2.851,2.851,2.851,2.8618,2.8724,2.8831,2.9157,2.9314,2.9457,2.9702,2.9792,2.9792,2.9792,2.9792,2.9792,2.9792,2.9934,3.0152,3.0419,3.0583,3.0772,3.1095,3.127,3.1334,3.1206,3.1019,3.0778,3.0441,3.0821,3.1382,3.1899,3.2263,3.2701,3.3416,3.318,3.334,3.4312,3.4124,3.379,3.3518,3.2846,3.2469,3.2481,3.2483,3.2616,3.303,3.243,3.1916,3.1523,3.1296,3.122,3.122,3.122,3.1121,3.0897,3.0608,3.0394,1.5816,1.7552,1.9722,2.2167,2.2809,2.3114,2.4205,2.4637,2.5167,2.6302,2.7589,2.8899,3.0295,3.0769,3.1107,3.1629,3.1705,3.1705,3.1705,3.1705,3.1705,3.1705,3.1705,3.1705,3.1705,3.1705,3.1669,3.1585,3.1573,3.1536,3.144,3.1524,3.1573,3.1573,3.1657,3.1669,3.1573,3.1657,3.1657,3.1573,3.1476,3.1488,3.1548,3.0922,3.0983,3.1524,3.0549,3.0037,2.9881,2.8907,2.851,2.851,2.851,2.851,2.851,2.851,2.851,2.855,2.8724,2.8831,2.891,2.9263,2.9419,2.9509,2.974,2.9792,2.9792,2.9792,2.9792,2.9792,2.9792,2.9972,3.0292,3.0833,3.1233,3.1556,3.1759,3.2042,3.2151,3.1833,3.2064,3.2073,3.1348,3.2201,3.293,3.2692,3.3129,3.3547,3.3649,3.3561,3.3736,3.4356,3.4312,3.4037,3.3547,3.3402,3.3122,3.2701,3.3198,3.3481,3.3417,3.3602,3.3479,3.2988,3.2461,3.2196,3.2196,3.2196,3.2015,3.1663,3.1206,3.0846,1.5553,1.7315,1.9469,2.174,2.2461,2.2906,2.4009,2.439,2.4726,2.5392,2.6686,2.8236,2.9943,3.0464,3.0892,3.1572,3.1705,3.1705,3.1705,3.1705,3.1705,3.1705,3.1705,3.1705,3.1705,3.1705,3.1524,3.1055,3.1019,3.0783,3.0326,3.0735,3.1019,3.1019,3.1476,3.1488,3.1031,3.1476,3.1476,3.1019,3.0561,3.0585,3.0995,2.9965,3.005,3.0995,3.035,2.9833,2.9352,2.8751,2.851,2.851,2.851,2.851,2.851,2.851,2.851,2.855,2.8724,2.8922,2.9091,2.9341,2.956,2.974,2.9792,2.9792,2.9792,2.9792,2.9792,2.9792,2.9792,3.0075,3.0508,3.1046,3.1713,3.2367,3.2875,3.2925,3.2903,3.2981,3.3017,3.3108,3.3192,3.3759,3.4153,3.4134,3.3761,3.3707,3.4211,3.3804,3.3736,3.4356,3.392,3.359,3.3518,3.2962,3.2846,3.3344,3.346,3.3717,3.4235,3.4254,3.4264,3.4162,3.3164,3.2618,3.2618,3.2618,3.2511,3.2273,3.17,3.1344,1.5739,1.7103,1.8755,2.1212,2.2136,2.2752,2.3916,2.4251,2.444,2.4775,2.5489,2.6723,2.8784,2.96,3.0261,3.1128,3.1395,3.1528,3.1661,3.1705,3.1705,3.1705,3.1705,3.1705,3.1705,3.1705,3.1488,3.0958,3.0922,3.0694,3.0122,3.0302,3.0567,3.091,3.1151,3.1296,3.1356,3.1585,3.144,3.091,3.0338,3.0206,3.041,2.9641,2.9713,3.0398,2.9869,2.9508,2.9256,2.8727,2.851,2.851,2.851,2.851,2.851,2.851,2.851,2.855,2.8855,2.9013,2.917,2.9495,2.9702,2.9792,2.9792,2.9792,2.9792,2.9792,2.9792,2.9792,2.9792,3.0113,3.0621,3.1516,3.2137,3.2797,3.3673,3.3667,3.3507,3.3563,3.3514,3.3534,3.3839,3.4162,3.4414,3.4414,3.4167,3.4095,3.4385,3.4167,3.4109,3.4385,3.4167,3.3993,3.3993,3.3746,3.3703,3.3978,3.3993,3.4124,3.4399,3.4414,3.4414,3.4414,3.3908,3.3667,3.3667,3.3667,3.3479,3.3164,3.2662,3.2209,1.5684,1.6736,1.8,2.0395,2.1369,2.2134,2.3462,2.3764,2.3817,2.4115,2.448,2.5304,2.7284,2.8387,2.9371,3.0521,3.0937,3.1261,3.1661,3.1705,3.1705,3.1705,3.1705,3.1705,3.1705,3.1705,3.1428,3.0766,3.0718,3.0386,2.9725,2.9809,3.0074,3.0458,3.0645,3.091,3.1308,3.1308,3.1103,3.0675,3.0146,2.9893,2.9869,2.934,2.9316,2.9677,2.9412,2.922,2.9076,2.8679,2.851,2.851,2.851,2.851,2.851,2.851,2.855,2.8618,2.8973,2.9131,2.9248,2.9663,2.9792,2.9792,2.9792,2.9792,2.9792,2.9792,2.9792,2.9792,2.9792,3.0113,3.0646,3.1686,3.2282,3.2952,3.4128,3.4191,3.402,3.402,3.3902,3.3874,3.4128,3.4312,3.4414,3.4414,3.4414,3.4414,3.4414,3.4414,3.4414,3.4414,3.4414,3.4414,3.4414,3.4414,3.4414,3.4414,3.4414,3.4414,3.4414,3.4414,3.4414,3.4414,3.4414,3.4414,3.4414,3.4414,3.423,3.3874,3.35,3.296,1.5105,1.606,1.7286,1.9128,1.9944,2.0724,2.2237,2.2542,2.2681,2.3249,2.3777,2.447,2.5645,2.6877,2.8236,2.9943,3.0464,3.0892,3.1617,3.1705,3.1705,3.1705,3.1705,3.1705,3.1705,3.1705,3.1284,3.0206,3.0122,2.9677,2.8643,2.9076,2.9352,2.9376,2.9869,3.0146,3.017,3.017,3.0158,3.0122,2.9593,2.934,2.9316,2.8799,2.857,2.8619,2.9088,2.9015,2.8546,2.8522,2.851,2.851,2.851,2.851,2.851,2.851,2.8618,2.8791,2.9013,2.9236,2.9419,2.9702,2.9792,2.9792,2.9792,2.9792,2.9792,2.9792,2.9792,2.9792,2.9792,3.0113,3.0583,3.1368,3.1992,3.2775,3.4128,3.438,3.438,3.438,3.438,3.4346,3.438,3.438,3.4414,3.4414,3.4414,3.4414,3.4414,3.4414,3.4414,3.4414,3.4414,3.4414,3.4414,3.4414,3.4414,3.4414,3.4414,3.4414,3.4414,3.4414,3.4414,3.4414,3.4414,3.4414,3.4414,3.4414,3.4312,3.4094,3.3736,3.3339,1.4382,1.5193,1.6224,1.7537,1.8426,1.9336,2.0622,2.1188,2.171,2.26,2.3079,2.3728,2.4971,2.6215,2.7579,2.898,2.9749,3.0375,3.1083,3.135,3.1528,3.1661,3.1705,3.1705,3.1705,3.1705,3.1404,3.0694,3.0278,2.9773,2.9051,2.8871,2.91,2.9785,2.9989,3.0254,3.0591,3.0254,2.9917,2.9581,2.9388,2.9124,2.8787,2.8595,2.851,2.8522,2.8703,2.8691,2.851,2.851,2.851,2.851,2.851,2.851,2.851,2.8657,2.8724,2.8831,2.9197,2.9341,2.9419,2.9702,2.9792,2.9792,2.9792,2.9792,2.9792,2.9792,2.9792,2.9792,2.9792,3.0011,3.0444,3.1294,3.2232,3.3101,3.3736,3.4162,3.4414,3.4414,3.4414,3.4414,3.4414,3.4414,3.4414,3.4414,3.4414,3.4414,3.4414,3.4414,3.4414,3.4414,3.4414,3.4414,3.4414,3.4414,3.4414,3.4414,3.4414,3.4414,3.4414,3.4414,3.4414,3.4414,3.4414,3.4414,3.4414,3.4414,3.4346,3.4312,3.4162,3.3908,1.3981,1.4652,1.5448,1.6377,1.7088,1.7903,1.9161,1.9755,2.0386,2.1711,2.2273,2.293,2.4254,2.5392,2.659,2.7955,2.8781,2.9588,3.0521,3.0892,3.1205,3.1661,3.1705,3.1705,3.1705,3.1705,3.1488,3.0958,3.0555,3.0037,2.934,2.9136,2.9364,3.0062,2.9917,2.9989,3.0338,2.9821,2.9388,2.9027,2.9027,2.8847,2.851,2.851,2.851,2.851,2.851,2.851,2.851,2.851,2.851,2.851,2.851,2.851,2.851,2.8724,2.8843,2.8961,2.9263,2.947,2.956,2.974,2.9792,2.9792,2.9792,2.9792,2.9792,2.9792,2.9792,2.9792,2.9792,3.0011,3.0406,3.1233,3.216,3.2925,3.3339,3.3908,3.4414,3.4414,3.4414,3.4414,3.4414,3.4414,3.4414,3.4414,3.4414,3.4414,3.4414,3.4414,3.4414,3.4414,3.4414,3.4414,3.4414,3.4414,3.4414,3.4414,3.4414,3.4414,3.4414,3.4414,3.4414,3.4414,3.4414,3.4414,3.4414,3.4414,3.4414,3.4414,3.4414,3.4162,0.0,0.0,0.0,1.5618,1.591,1.6456,1.7969,1.821,1.8642,2.0474,2.1269,2.2049,2.3416,2.4332,2.5353,2.6904,2.7647,2.8491,2.9943,3.0419,3.0847,3.1572,3.1661,3.1705,3.1705,3.1705,3.1488,3.0983,3.0922,3.0477,2.94,2.9821,3.0086,3.0086,2.9581,2.9304,2.9304,2.8775,2.851,2.851,2.851,2.851,2.851,2.851,2.851,2.851,2.851,2.851,2.851,2.851,2.851,2.851,2.851,2.851,2.851,2.8724,2.8922,2.9131,2.9353,2.956,2.9792,2.9792,2.9792,2.9792,2.9792,2.9792,2.9792,2.9792,2.9792,2.9792,2.9792,3.0075,3.0508,3.1123,3.1666,3.2237,3.2846,3.3701,3.438,3.438,3.4414,3.4414,3.4414,3.4414,3.4414,3.4414,3.4414,3.4414,3.4414,3.4414,3.4414,3.4414,3.4414,3.4414,3.4414,3.4414,3.4414,3.4414,3.4414,3.4414,3.4414,3.4414,3.4414,3.4414,3.4414,3.4414,3.4414,3.4414,3.4414,3.4414,3.4414,3.4128,1.368,0.0,0.0,0.0,0.0,0.0,1.5782,1.6567,1.7514,1.882,1.9861,2.1079,2.2776,2.347,2.4223,2.5596,2.6907,2.8045,2.8991,2.9669,3.0375,3.1038,3.1306,3.1484,3.1661,3.1705,3.1645,3.15,3.1139,3.0747,3.0458,3.0218,3.0086,3.0086,2.9581,2.9304,2.9304,2.8775,2.851,2.851,2.851,2.851,2.851,2.851,2.851,2.851,2.851,2.851,2.851,2.851,2.851,2.851,2.851,2.851,2.855,2.8895,2.9052,2.917,2.9534,2.974,2.9792,2.9792,2.9792,2.9792,2.9792,2.9792,2.9792,2.9792,2.9792,2.9792,2.9792,2.9869,3.0049,3.0343,3.0822,3.1355,3.1809,3.2769,3.3673,3.4094,3.4312,3.4414,3.4414,3.4414,3.4414,3.4414,3.4414,3.4414,3.4414,3.4414,3.4414,3.4414,3.4414,3.4414,3.4414,3.4414,3.4414,3.4414,3.4414,3.4414,3.4414,3.4414,3.4414,3.4414,3.4414,3.4414,3.4414,3.4414,3.4414,3.4414,3.4414,3.4312,1.3933,1.4229,1.4499,1.4499,0.0,0.0,1.505,1.5581,1.6296,1.7601,1.8531,1.967,2.1337,2.2275,2.3077,2.4005,2.5555,2.6982,2.7966,2.8689,2.9485,3.0476,3.0836,3.1205,3.1661,3.1705,3.1705,3.1705,3.1428,3.1151,3.0922,3.0374,3.0086,3.0086,2.9581,2.9304,2.9304,2.8775,2.851,2.851,2.851,2.851,2.851,2.851,2.851,2.851,2.851,2.851,2.851,2.851,2.851,2.851,2.851,2.851,2.855,2.8934,2.9091,2.917,2.9636,2.9792,2.9792,2.9792,2.9792,2.9792,2.9792,2.9792,2.9792,2.9792,2.9792,2.9792,2.9792,2.9792,2.9869,3.0049,3.0394,3.0809,3.1307,3.2245,3.3171,3.377,3.4162,3.4414,3.4414,3.4414,3.4414,3.4414,3.4414,3.4414,3.4414,3.4414,3.4414,3.4414,3.4414,3.4414,3.4414,3.4414,3.4414,3.4414,3.4414,3.4414,3.4414,3.4414,3.4414,3.4414,3.4414,3.4414,3.4414,3.4414,3.4414,3.4414,3.4414,3.4414,1.4502,1.4763,1.5008,1.5008,1.4743,0.0,1.5184,1.5089,1.5308,1.6619,1.7319,1.8042,1.9491,2.0761,2.1836,2.2411,2.3895,2.545,2.6832,2.7568,2.8445,2.9852,3.0329,3.0802,3.1528,3.1617,3.1661,3.1705,3.1705,3.15,3.1031,3.0398,3.0086,3.0086,2.952,2.9208,2.9208,2.8751,2.851,2.851,2.851,2.851,2.851,2.851,2.851,2.851,2.851,2.851,2.851,2.851,2.851,2.851,2.851,2.851,2.855,2.8934,2.9091,2.917,2.9636,2.9792,2.9792,2.9792,2.9792,2.9792,2.9792,2.9792,2.9792,2.9792,2.9792,2.9792,2.9792,2.9792,2.9869,3.0011,3.019,3.0482,3.1086,3.1946,3.281,3.3374,3.3991,3.4414,3.4414,3.4414,3.4414,3.4414,3.4414,3.4414,3.4414,3.4414,3.4414,3.4414,3.4414,3.4414,3.4414,3.4414,3.4414,3.4414,3.4414,3.4414,3.4414,3.4414,3.4414,3.4414,3.4414,3.4414,3.4414,3.4414,3.4414,3.4414,3.4414,3.4414,1.4908,1.4961,1.5008,1.5008,1.4743,0.0,1.4663,1.4834,1.5138,1.561,1.6175,1.7001,1.8412,1.9049,1.9934,2.1735,2.2455,2.3521,2.5563,2.6919,2.7998,2.8899,2.9623,3.0329,3.0994,3.1261,3.1484,3.1661,3.1705,3.1657,3.156,3.0645,3.0086,3.0086,2.916,2.8667,2.8667,2.8558,2.851,2.851,2.851,2.851,2.851,2.851,2.851,2.851,2.851,2.851,2.851,2.851,2.851,2.851,2.851,2.851,2.855,2.8934,2.9091,2.917,2.9636,2.9792,2.9792,2.9792,2.9792,2.9792,2.9792,2.9792,2.9792,2.9792,2.9792,2.9792,2.9792,2.9792,2.9792,2.9869,2.9908,3.0049,3.0482,3.1442,3.2354,3.2797,3.3701,3.4414,3.4414,3.4414,3.4414,3.4414,3.4414,3.4414,3.4414,3.4414,3.4414,3.4414,3.4414,3.4414,3.4414,3.4414,3.4414,3.4414,3.4414,3.4414,3.4414,3.4414,3.4414,3.4414,3.4414,3.4414,3.4414,3.4414,3.4414,3.4414,3.4414,3.4414,1.5137,1.5284,1.5357,1.5217,1.4957,0.0,0.0,1.4522,1.4609,1.4903,1.5296,1.5892,1.6865,1.7559,1.8396,1.9629,2.083,2.2044,2.3323,2.5172,2.6736,2.784,2.8538,2.9393,3.0464,3.1025,3.1563,3.2082,3.1862,3.1585,3.1332,3.0518,2.9965,2.9701,2.8919,2.851,2.851,2.851,2.851,2.851,2.851,2.851,2.851,2.851,2.851,2.851,2.851,2.851,2.851,2.851,2.851,2.851,2.851,2.8538,2.8697,2.8973,2.917,2.9314,2.9663,2.9792,2.9792,2.9792,2.9792,2.9792,2.9792,2.9792,2.9792,2.9792,2.9792,2.9792,2.9792,2.9792,2.9792,2.9792,2.9792,2.9895,3.0292,3.1294,3.2232,3.2618,3.3632,3.4414,3.4414,3.4414,3.4414,3.4414,3.4414,3.4414,3.4414,3.4414,3.4414,3.4414,3.4414,3.4414,3.4414,3.4414,3.4414,3.4414,3.4414,3.4414,3.4414,3.4414,3.4414,3.4414,3.4414,3.4414,3.4414,3.4414,3.4414,3.4414,3.4414,3.4414,1.5418,1.5651,1.5758,1.5471,1.5177,1.4928,0.0,0.0,0.0,1.4456,1.4642,1.492,1.5468,1.626,1.6996,1.7445,1.9048,2.0492,2.1248,2.3073,2.4957,2.6539,2.7353,2.8394,2.9795,3.0743,3.1489,3.1968,3.1709,3.1368,3.0946,3.047,3.0037,2.9617,2.8991,2.8655,2.8655,2.8558,2.851,2.851,2.851,2.851,2.851,2.851,2.851,2.851,2.851,2.851,2.851,2.851,2.851,2.8538,2.8538,2.8657,2.8843,2.9091,2.9275,2.9419,2.9702,2.9792,2.9792,2.9792,2.9792,2.9792,2.9792,2.9792,2.9792,2.9792,2.9792,2.9792,2.9792,2.9792,2.9792,2.9792,2.9792,2.9895,3.0292,3.1294,3.2232,3.2618,3.3632,3.4414,3.4414,3.4414,3.4414,3.4414,3.4414,3.4414,3.4414,3.4414,3.4414,3.4414,3.4414,3.4414,3.4414,3.4414,3.4414,3.4414,3.4414,3.4414,3.4414,3.4414,3.4414,3.4414,3.4414,3.4414,3.4414,3.4414,3.4414,3.4414,3.4414,3.4414,1.5772,1.5758,1.5758,1.5471,1.5177,1.4928,1.4589,0.0,1.4168,1.4456,0.0,1.4388,1.4952,0.0,0.0,1.6389,1.7104,1.8306,2.0551,2.132,2.2508,2.4802,2.628,2.7611,2.8855,3.0159,3.0711,3.016,3.0661,3.0983,3.0922,3.0819,3.0802,3.0699,2.9737,2.9208,2.9208,2.8751,2.851,2.851,2.851,2.851,2.851,2.851,2.851,2.851,2.851,2.851,2.851,2.851,2.8618,2.8764,2.8764,2.8803,2.8831,2.9223,2.938,2.9419,2.9702,2.9792,2.9792,2.9792,2.9792,2.9792,2.9792,2.9792,2.9792,2.9792,2.9792,2.9792,2.9792,2.9792,2.9792,2.9792,2.9792,2.9895,3.0292,3.1294,3.2232,3.2618,3.3632,3.4414,3.4414,3.4414,3.4414,3.4414,3.4414,3.4414,3.4414,3.4414,3.4414,3.4414,3.4414,3.4414,3.4414,3.4414,3.4414,3.4414,3.4414,3.4414,3.4414,3.4414,3.4414,3.4414,3.4414,3.4414,3.4414,3.4414,3.4414,3.4414,3.4414,3.4414,1.5785,1.5784,1.5718,1.5257,1.5102,1.4888,1.4376,1.4175,1.4168,1.4456,0.0,0.0,0.0,0.0,0.0,0.0,1.6219,1.7141,1.8582,1.9505,2.1121,2.4065,2.5079,2.6192,2.7831,2.8936,2.9797,3.0279,3.0381,3.073,3.1344,3.1091,3.0922,3.0922,2.9845,2.9304,2.9304,2.8775,2.851,2.851,2.851,2.851,2.851,2.851,2.851,2.851,2.851,2.851,2.851,2.8618,2.8724,2.8831,2.9067,2.9145,2.9184,2.9341,2.9509,2.965,2.9753,2.9792,2.9792,2.9792,2.9792,2.9792,2.9792,2.9792,2.9792,2.9792,2.9792,2.9792,2.9792,2.9792,2.983,2.9934,2.9972,3.0152,3.0785,3.164,3.2439,3.2952,3.377,3.4414,3.4414,3.4414,3.4414,3.4414,3.4414,3.4414,3.4414,3.4414,3.4414,3.4414,3.4414,3.4414,3.4414,3.4414,3.4414,3.4414,3.4414,3.4414,3.4414,3.4414,3.4414,3.4414,3.4414,3.4414,3.4414,3.4414,3.4414,3.4414,3.4414,3.4414,1.5772,1.5784,1.5691,1.511,1.5008,1.4854,1.4222,1.4148,1.4289,1.4583,1.4703,0.0,0.0,0.0,1.5024,1.5014,0.0,1.6156,1.6858,1.7914,1.9722,2.2794,2.3952,2.5244,2.7084,2.8077,2.9038,3.0045,3.0252,3.0639,3.1452,3.1259,3.1139,3.1139,3.0206,2.9737,2.9737,2.9063,2.8727,2.8727,2.8582,2.851,2.851,2.851,2.851,2.851,2.851,2.851,2.851,2.8724,2.8843,2.8922,2.9263,2.9419,2.9509,2.9509,2.965,2.9792,2.9792,2.9792,2.9792,2.9792,2.9792,2.9792,2.9792,2.9792,2.9792,2.9792,2.9792,2.9792,2.9792,2.9792,2.9869,3.0049,3.0216,3.0508,3.1209,3.2005,3.2761,3.3269,3.3908,3.4414,3.4414,3.4414,3.4414,3.4414,3.4414,3.4414,3.4414,3.4414,3.4414,3.4414,3.4414,3.4414,3.4414,3.4414,3.4414,3.4414,3.4414,3.4414,3.4414,3.4414,3.4414,3.4414,3.4414,3.4414,3.4414,3.4414,3.4414,3.4414,3.4414,3.4414,1.5778,1.5784,1.5691,1.511,1.5008,1.4854,1.4222,1.4302,1.4589,1.4934,1.517,1.5371,1.5384,1.5378,1.5184,1.4609,1.4747,0.0,0.0,1.6645,1.7984,2.0431,2.2994,2.5217,2.6752,2.7981,2.8732,2.8781,3.0052,3.091,3.0946,3.1416,3.1681,3.1681,3.1151,3.0874,3.0874,2.9797,2.9268,2.9268,2.8751,2.851,2.851,2.851,2.851,2.851,2.851,2.851,2.851,2.8724,2.8922,2.9091,2.9302,2.956,2.9792,2.9792,2.9792,2.9792,2.9792,2.9792,2.9792,2.9792,2.9792,2.9792,2.9792,2.9792,2.9792,2.9792,2.9792,2.9792,2.9792,2.9792,2.9869,3.0049,3.0482,3.097,3.1392,3.2362,3.3276,3.3548,3.4025,3.4414,3.4414,3.4414,3.4414,3.4414,3.4414,3.4414,3.4414,3.4414,3.4414,3.4414,3.4414,3.4414,3.4414,3.4414,3.4414,3.4414,3.4414,3.4414,3.4414,3.4414,3.4414,3.4414,3.4414,3.4414,3.4414,3.4414,3.4414,3.4414,3.4414,3.4414,1.6346,1.6346,1.6249,1.5842,1.5745,1.5642,1.5052,1.4943,1.5061,1.5229,1.5331,1.5451,1.5651,1.5524,1.5331,1.513,1.5004,1.5043,0.0,1.6732,1.8343,2.0186,2.2064,2.3644,2.4819,2.6055,2.7323,2.8653,2.975,3.0663,3.1404,3.1609,3.1705,3.1705,3.1199,3.0922,3.0922,2.9833,2.9304,2.9292,2.8763,2.851,2.851,2.851,2.851,2.851,2.851,2.851,2.851,2.8855,2.9052,2.9131,2.9534,2.9702,2.9792,2.9792,2.9792,2.9792,2.9792,2.9792,2.9792,2.9792,2.9792,2.9792,2.9792,2.9792,2.9792,2.9792,2.9792,2.9792,2.9792,2.9792,2.9869,3.0228,3.0558,3.0998,3.1713,3.2497,3.322,3.3695,3.4108,3.4414,3.4414,3.4414,3.4414,3.4414,3.4414,3.4414,3.4414,3.4414,3.4414,3.4414,3.4414,3.4414,3.4414,3.4414,3.4414,3.4414,3.4414,3.4414,3.4414,3.4414,3.4414,3.4414,3.4414,3.4414,3.4414,3.4414,3.4414,3.4414,3.4414,3.4414,1.7365,1.7365,1.7284,1.6961,1.6797,1.6564,1.5989,1.5722,1.562,1.5718,1.5705,1.5765,1.5952,1.5919,1.5792,0.0,0.0,0.0,0.0,1.7202,1.8652,1.9788,2.1169,2.2522,0.0,2.4925,2.6408,2.8288,2.9491,3.0563,3.1524,3.1661,3.1705,3.1705,3.138,3.1199,3.1199,3.011,2.9581,2.9569,2.8847,2.851,2.851,2.851,2.851,2.851,2.851,2.855,2.8618,2.8973,2.9131,2.9248,2.9624,2.9792,2.9792,2.9792,2.9792,2.9792,2.9792,2.9792,2.9792,2.9792,2.9792,2.9792,2.9792,2.9792,2.9792,2.9792,2.9792,2.9792,2.9792,2.9792,2.9869,3.0228,3.0558,3.0998,3.1713,3.2497,3.322,3.3695,3.4108,3.4414,3.4414,3.4414,3.4414,3.4414,3.4414,3.4414,3.4414,3.4414,3.4414,3.4414,3.4414,3.4414,3.4414,3.4414,3.4414,3.4414,3.4414,3.4414,3.4414,3.4414,3.4414,3.4414,3.4414,3.4414,3.4414,3.4414,3.4414,3.4414,3.4414,3.4414]}]]